     2              OBSERVATION DATA    GPS                 RINEX VERSION / TYPE
teqc 1997Sep28 Duncan Agnew 19980804 18:56:48UTC            PGM / RUN BY / DATE
                                                            COMMENT
Original Marker Name: D-1382                                COMMENT
Campaign Name: Anza Transect Fall 92-Spring 93              COMMENT
4-Character Station Name: D138                              COMMENT
6-Character Antenna Code: TRMSST                            COMMENT
Vertical Measurement Point: BGP                             COMMENT
Vertical Offset to Rinex Ref. Point: 0.0597                 COMMENT
Radial Measurement Point: NGP                               COMMENT
Radial Offset to Rinex Ref. Point: 0.2334                   COMMENT
Antenna Height from Field Measurement: 1.3790 m             COMMENT
Original XYZ: -2373977.2919 -4761846.9963 3507629.2201      COMMENT
New XYZ position is based on association with SCEC monument COMMENT
E1D0K5C6+0011. Position of that monument is believed to be  COMMENT
valid to within 1 m horizontally; vertical accuracy         COMMENT
should be no worse than 3-times this value.                 COMMENT
                                                            COMMENT
Revised Rinex header created by UCSD GPS archive for        COMMENT
GSAC on 12-Apr-1999 (1999:102) 09:16:30 GMT                 COMMENT
For assistance contact dagnew@ucsd.edu or hjohnson@ucsd.edu COMMENT
                                                            COMMENT
D-1382 1986                                                 MARKER NAME
Akulian SCRIPPS INSTITUTION OF OCEANOGRAPHY                 OBSERVER / AGENCY
422 TRIMBLE 4000 SST NP 4.64 / SP 4.20                      REC # / TYPE / VERS
62875 TR 4000SST L1/L2 GEO                                  ANT # / TYPE
 -2373974.0000 -4761842.0000  3507625.0000                  APPROX POSITION XYZ
        1.2994        0.0000        0.0000                  ANTENNA: DELTA H/E/N
     1     1     0                                          WAVELENGTH FACT L1/2
     3    C1    L1    L2                                    # / TYPES OF OBSERV
     0                                                      INTERVAL
  1993     4    26    17    42    0.000000                  TIME OF FIRST OBS
  1993     4    26    23    43   60.000000                  TIME OF LAST OBS
     0                                                      # OF SATELLITES
                                                            END OF HEADER
 93  4 26 17 42  0.0000000  0  8G18G28G11G29G19G27G 2G16
  20527192.5554         -0.63157
  23601020.961          -0.99516
  24302417.586          -0.96515
  22511817.8754         -0.94756
  21036356.8364         -0.56756
  22570498.4304         -0.31856
  24345658.367          -0.32515
  24876752.6884         -0.04253
 93  4 26 17 42 30.0000000  0  8G18G28G11G29G19G27G 2G16
  20518857.242      -43806.418 7        -0.41533
  23592351.055      -45549.421 6        -0.01431
  24275402.141     -141987.520 5        -0.03531
  22514297.3284      13036.33046        -0.27972
  21021171.3914     -79808.05146        -0.08472
  22545834.078     -129620.644 6        -0.01531
  24315746.5234    -157175.18645        -0.42771
  24851848.2194    -130875.68342
 93  4 26 17 43  0.0000000  0  8G18G28G11G29G19G27G 2G16
  20510616.523      -87109.305 7    -33742.95422
  23583786.5704     -90543.78046    -35060.58161
  24248441.6644    -283658.56845   -110392.92361
  22516849.469       26437.677 6     10442.21822
  21006025.3754    -159404.55746    -62023.33362
  22521188.297     -259119.911 6   -100908.49921
  24285878.9844    -314129.82745   -122302.57561
  24827035.563     -261261.504 2        -0.30631
 93  4 26 17 43 30.0000000  0  8G18G28G11G29G19G27G 2G16
  20502481.563     -129858.074 7    -67053.71622
  23575330.7974    -134971.20746    -69679.38361
  24221545.7504    -424996.60745   -220526.30161
  22519473.594       40221.808 6     21182.98922
  20990919.6174    -238781.06946   -123875.15962
  22496575.438     -388468.330 6   -201699.43321
  24256061.430     -470840.360 5   -244414.51121
  24802315.250     -391161.885 2   -101221.35521
 93  4 26 17 44  0.0000000  0  8G18G28G11G29G19G27G 2G16
  20494455.789     -172037.176 7    -99920.58122
  23566992.0084    -178817.54945   -103845.36461
  24194712.0554    -566000.18445   -330399.05161
  22522172.7424      54393.02346     32225.36461
  20975860.3444    -317920.65246   -185542.34964
  22471989.203     -517660.562 6
  24226283.8054    -627311.13945   -366339.63661
  24777680.727     -520581.971 2
 93  4 26 17 44 30.0000000  0  7G18G28G11G29G19G27G 2
  20486541.109     -213623.791 7   -132325.76522
  23558757.234     -222087.221 5   -137562.01521
  24167944.195     -706662.446 5   -440005.85821
  22524937.6564      68945.53646     43564.87461
  20960851.2274    -396805.40446   -247010.98364
  22447436.031     -646700.281 6   -402919.04621
  24196550.656     -783550.118 5   -488084.15321
 93  4 26 17 45  0.0000000  0  7G18G28G11G29G19G27G 2
  20478743.180     -254602.748 7   -164257.44123
  23550639.7814    -264772.67146   -170823.43461
  24141240.539     -846987.415 5   -549349.82621
  22527775.1254      83863.60746     55189.21862
  20945885.3284    -475439.03146   -308283.93463
  22422911.9844    -775573.46046   -503339.68561
  24166862.5634    -939562.41645   -609652.03961
 93  4 26 17 45 30.0000000  0  7G18G28G11G29G19G27G 2
  20471057.3674    -294986.42447   -195725.26263
  23542630.8754    -306843.88045   -203606.20661
  24114603.0004    -986967.41745   -658424.97861
  22530688.2664      99154.21046     67103.85761
  20930969.3754    -553823.66446   -369362.86463
  22398419.508     -904268.050 6   -603621.13621
  24137221.664    -1095331.693 5   -731030.53621
 93  4 26 17 46  0.0000000  0  8G18G28G11G29G19G27G 2G16
  20463478.2114    -334819.47347   -226764.02463
  23534740.523     -348304.425 5   -235913.11221
  24088032.969    -1126601.844 5   -767230.87021
  22533667.438      114814.666 6     79306.68621
  20916101.6254    -631960.44446   -430248.66563
  22373962.430    -1032799.380 6   -703775.38721
  24107626.594    -1250852.232 5   -852215.20221
  24680099.891     -127478.912 2
 93  4 26 17 46 30.0000000  0  8G18G28G11G29G19G27G 2G16
  20455998.102     -374128.137 7   -257394.17823
  23526965.9614    -389160.92445   -267749.34661
  24061524.9224   -1265887.83845   -875765.27061
  22536719.5004     130842.29946     91795.63261
  20901274.8914    -709875.15146   -490961.42463
  22349534.156    -1161164.296 6   -803799.96021
  24078082.5314   -1406113.87745   -973198.15861
  24655934.6024    -254460.96742
 93  4 26 17 47  0.0000000  0  8G18G28G11G29G19G27G 2G16
  20448614.297     -412933.122 7   -287631.85623
  23519309.9454    -429400.14745   -299104.58961
  24035088.5314   -1404818.49645   -984022.78761
  22539840.539      147251.606 6    104581.96922
  20886492.9694    -787563.22046   -551497.58163
  22325143.805    -1289348.156 6   -903683.44022
  24048589.4614   -1561096.23145  -1093963.47861
  24631866.7194    -380935.33643
 93  4 26 17 47 30.0000000  0  8G18G28G11G29G19G27G 2G16
  20441325.438     -451230.723 7   -317474.17323
  23511769.2584    -469018.36745   -329975.94561
  24008719.9304   -1543385.89345  -1091997.21961
  22543037.1564     164047.03646    117669.17561
  20871751.9694    -865027.93846   -611859.69963
  22300782.813    -1417361.418 6  -1003433.99122
  24019149.5864   -1715793.39545  -1214506.60661
  24607895.406     -506887.873 2        -0.09531
 93  4 26 17 48  0.0000000  0  8G18G28G11G29G19G27G 2G16
  20434141.688     -488998.030 7   -346903.27423
  23504345.555     -508020.275 5   -360367.05621
  23982422.227    -1681583.730 5  -1199683.73421
  22546304.281      181218.574 6    131049.47021
  20857052.2734    -942267.45546   -672046.34162
  22276457.023    -1545202.220 6  -1103050.16022
  23989765.2114   -1870217.30645  -1334836.77661
  24584025.445     -632324.941 3    -97743.23921
 93  4 26 17 48 30.0000000  0  8G18G28G11G29G19G27G 2G16
  20427058.3914    -526216.45747   -375904.66463
  23497035.7894    -546420.22745   -390289.09161
  23956191.1644   -1819415.90045  -1307085.29961
  22549643.5234     198759.70146    144717.75361
  20842396.7344   -1019279.56646   -732055.78662
  22252161.9144   -1672862.07846  -1202525.31962
  23960427.430    -2024385.729 5  -1454967.88821
  24560256.7504    -757244.42743   -195083.07561
 93  4 26 17 49  0.0000000  0  8G18G28G11G29G19G27G 2G16
  20420084.773     -562858.840 7   -404457.20023
  23489851.4534    -584205.38146   -419732.06961
  23930039.156    -1956871.896 5  -1414193.71921
  22553053.719      216678.841 6    158680.58621
  20827793.5784   -1096032.14246   -791862.98862
  22227905.070    -1800336.358 6  -1301855.89122
  23931136.5864   -2178299.96345  -1574900.92761
  24536585.6644    -881632.64144   -292008.94261
 93  4 26 17 49 30.0000000  0  8G18G28G11G29G19G27G 2G16
  20413224.828     -598908.110 7   -432547.58023
  23482777.5784    -621376.62945   -448696.67661
  23903949.539    -2093940.066 5  -1520999.98321
  22556537.5234     234995.06346    172952.83661
  20813238.9224   -1172518.65546   -851462.87762
  22203684.5164   -1927617.99846  -1401036.34362
  23901900.2734   -2331957.30145  -1694633.80361
  24513012.852    -1005489.010 4   -388520.36521
 93  4 26 17 50  0.0000000  0  8G18G28G11G29G19G27G 2G16
  20406479.219     -634352.089 7   -460166.30223
  23475819.7344    -657927.07045   -477177.53361
  23877946.898    -2230590.741 5  -1627480.94121
  22560105.344      253739.836 6    187559.01921
  20798744.6414   -1248691.59246   -910818.42162
  22179508.766    -2054664.460 6  -1500033.53722
  23872710.266    -2485333.213 5  -1814147.38521
  24489551.305    -1128787.860 4   -484597.37721
 93  4 26 17 50 30.0000000  0  8G18G28G11G29G19G27G 2G16
  20399851.914     -669183.200 7   -487307.47223
  23468984.711     -693843.066 5   -505164.04921
  23852032.586    -2366802.341 5  -1733619.75521
  22563761.9144     272947.36846    202525.77761
  20784312.3204   -1324522.81646   -969907.68563
  22155381.742    -2181463.542 6  -1598837.97522
  23843582.156    -2638406.246 5  -1933424.93821
  24466200.773    -1251507.263 5   -580222.86721
 93  4 26 17 51  0.0000000  0  8G18G28G11G29G19G27G 2G16
  20393336.594     -703409.248 7   -513977.15223
  23462272.6334    -729123.97445   -532655.66261
  23826193.4534   -2502574.68945  -1839416.28461
  22567503.742      292613.272 6    217849.73021
  20769945.2584   -1400025.28946  -1028740.79063
  22131294.195    -2308029.001 6  -1697460.36522
  23814511.9924   -2791171.33545  -2052462.54061
  24442955.9924   -1373657.32145   -675404.70261
 93  4 26 17 51 30.0000000  0  8G18G28G11G29G19G27G 2G16
  20386939.891     -737039.760 7   -540182.78423
  23455672.2504    -763792.66945   -559670.24061
  23800436.0314   -2637916.44045  -1944877.32961
  22571329.4774     312717.64446    233515.34361
  20755632.4924   -1475224.43146  -1087337.53063
  22107250.008    -2434385.793 6  -1795920.17522
  23785505.5704   -2943617.06845  -2171251.30461
  24419824.3984   -1495241.12544   -770145.27861
 93  4 26 17 52  0.0000000  0  8G18G28G11G29G19G27G 2G16
  20380649.070     -770087.947 7   -565934.65423
  23449195.578     -797854.071 6   -586211.60721
  23774762.4534   -2772843.62145  -2050015.30761
  22575233.0944     333226.40446    249496.04661
  20741379.3754   -1550137.21346  -1145711.12663
  22083239.609    -2560562.392 6  -1894239.55322
  23756549.867    -3095756.674 5  -2289801.49521
  24396785.9064   -1616260.29343   -864445.90961
 93  4 26 17 52 30.0000000  0  8G18G28G11G29G19G27G 2G16
  20374474.141     -802544.807 7   -591225.75123
  23442831.875     -831290.464 5   -612265.96521
  23749165.1644   -2907355.12845  -2154829.38161
  22579212.8594     354138.42946    265790.99361
  20727172.2894   -1624784.17246  -1203877.58663
  22059259.883    -2686571.268 6  -1992428.24822
  23727660.7504   -3247582.57845  -2408107.27961
  24373865.930    -1736715.253 4   -958306.84621
 93  4 26 17 53  0.0000000  0  8G18G28G11G29G19G27G 2G16
  20368411.398     -834413.076 7   -616058.21023
  23436587.875     -864093.105 6   -637826.49921
  23723649.1804   -3041450.67445  -2259319.35561
  22583264.0634     375427.83646    282380.00361
  20713015.6024   -1699191.13846  -1261857.03163
  22035313.188    -2812410.493 6  -2090484.74422
  23698825.047    -3399090.494 5  -2526165.29621
  24351052.4454   -1856609.34443  -1051730.79761
 93  4 26 17 53 29.9990000  0  8G18G28G11G29G19G27G 2G16
  20362459.1904    -865683.52647   -640424.80963
  23430472.276     -896246.556 6   -662881.15921
  23698214.940    -3175107.583 5  -2363467.52321
  22587386.089      397095.322 6    299263.62521
  20698902.8944   -1773348.55346  -1319642.03763
  22011406.823    -2938048.766 6  -2188384.64922
  23670057.3864   -3550272.51845  -2643969.33761
  24328350.276    -1975917.413 4  -1144698.08921
 93  4 26 17 53 59.9990000  0  8G18G28G11G29G19G27G 2G16
  20356623.526     -896357.599 7   -664326.70923
  23424475.4804    -927743.06946   -687423.93361
  23672862.5194   -3308321.91445  -2467270.82761
  22591580.362      419145.678 6    316445.56421
  20684840.2144   -1847253.91546  -1377230.63163
  21987538.269    -3063460.882 6  -2286108.33122
  23641344.761    -3701164.446 5  -2761547.33921
  24305755.050    -2094653.677 3  -1237219.79421
 93  4 26 17 54 29.9990000  0  8G18G28G11G29G19G27G 2G16
  20350896.8394    -926443.87447   -687770.57463
  23418611.292     -958582.322 6   -711454.55121
  23647601.917    -3441081.499 5  -2570719.76821
  22595848.050      441570.724 6    333919.47921
  20670823.4014   -1920910.26946  -1434625.20162
  21963721.097    -3188636.448 6  -2383647.68422
  23612689.9564   -3851758.18045  -2878892.97961
  24283270.0734   -2212830.03144  -1329305.24161
 93  4 26 17 54 59.9990000  0  8G18G28G11G29G19G27G 2G16
  20345289.190     -955923.068 7   -710741.38423
  23412863.136     -988767.180 6   -734975.26821
  23622425.8944   -3573373.74745  -2673804.58161
  22600187.5504     464369.57746    351684.69061
  20656857.7614   -1994291.97446  -1491805.74862
  21939946.886    -3313568.278 6  -2480997.12422
  23584090.7454   -4002045.96545  -2996000.22561
  24260883.7064   -2330435.16344  -1420945.58961
 93  4 26 17 55 29.9990000  0  8G18G28G11G29G19G27G 2G16
  20339797.448     -984771.395 7   -733220.62423
  23407246.683    -1018299.781 5   -757987.70821
  23597343.878    -3705182.082 5  -2776512.27421
  22604604.628      487576.562 6    369767.90321
  20642954.3234   -2067355.66446  -1548738.49362
  21916223.605    -3438243.407 6  -2578146.51722
  23555554.6984   -4152015.90446  -3112859.79561
  24238618.6124   -2447450.15144  -1512126.05061
 93  4 26 17 55 59.9990000  0  8G18G28G11G29G19G27G 2G16
  20334426.940    -1012992.437 7   -755211.08323
  23401747.737    -1047179.509 5   -780491.43821
  23572351.636    -3836512.402 5  -2878847.51821
  22609099.5504     511200.26446    388175.83261
  20629113.8154   -2140090.73446  -1605415.17362
  21892539.261    -3562693.800 6  -2675120.82122
  23527073.245    -4301658.725 5  -3229464.47421
  24216464.4874   -2563886.71644  -1602855.80961
 93  4 26 17 56 29.9990000  0  8G18G28G11G29G19G27G 2G16
  20329177.683    -1040576.670 7   -776705.32623
  23396377.448    -1075398.054 5   -802479.96821
  23547451.8554   -3967357.71045  -2980804.79961
  22613676.0264     535256.40846    406920.75061
  20615338.7764   -2212478.10146  -1661820.90463
  21868899.7374   -3686928.85546  -2771927.30762
  23498668.9724   -4450939.87445  -3345787.32061
  24194418.237    -2679730.143 4  -1693123.37021
 93  4 26 17 56 59.9990000  0  8G18G28G11G29G19G27G 2G16
  20324053.855    -1067507.656 7   -797690.54523
  23391130.690    -1102961.003 5   -823957.65821
  23522647.2224   -4097705.90845  -3082374.73361
  22618341.690      559768.423 6    426020.87921
  20601632.0034   -2284502.27646  -1717943.64263
  21845303.870    -3810920.017 6  -2868543.73822
  23470331.7064   -4599855.07045  -3461824.99361
  24172495.0974   -2794952.37945  -1782906.88261
 93  4 26 17 57 29.9990000  0  8G18G28G11G29G19G27G 2G16
  20319046.597    -1093824.185 7   -818196.97623
  23386013.1834   -1129873.33145   -844928.34261
  23497934.425    -4227566.489 5  -3183564.71121
  22623093.464      584732.356 6    445473.14121
  20587990.1124   -2356188.33346  -1773802.90763
  21821752.4644   -3934677.86046  -2964978.37262
  23442061.612    -4748424.610 5  -3577593.33521
  24150681.050    -2909567.407 3  -1872217.27321
 93  4 26 17 57 59.9990000  0  8G18G28G11G29G19G27G 2G16
  20314149.0584   -1119554.74847   -838246.81363
  23381014.0034   -1156146.51545   -865401.01561
  23473314.597    -4356955.995 5  -3284387.59521
  22627920.769      610109.664 6    465247.50421
  20574405.9014   -2427581.26746  -1829433.76663
  21798243.753    -4058216.597 6  -3061242.28322
  23413848.3864   -4896673.10245  -3693111.51461
  24128983.167    -3023606.729 4  -1961079.06521
 93  4 26 17 58 29.9990000  0  8G18G28G11G29G19G27G 2G16
  20309366.183    -1144693.697 7   -857835.64123
  23376134.323    -1181796.997 5   -885388.45921
  23448783.097    -4485867.537 5  -3384838.05521
  22632829.058      635888.034 6    485334.38921
  20560874.7064   -2498689.36546  -1884842.67063
  21774784.9254   -4181505.54646  -3157311.53662
  23385697.4724   -5044605.11445  -3808383.08561
  24107389.1904   -3137062.68044  -2049486.22661
 93  4 26 17 58 59.9990000  0  8G18G28G11G29G19G27G 2G16
  20304698.089    -1169220.466 7   -876947.44423
  23371372.3624   -1206813.30645   -904881.75961
  23424345.5814   -4614282.40245  -3484901.46761
  22637813.628      662075.483 6    505740.05521
  20547398.3394   -2569511.10946  -1940028.44064
  21751374.573    -4304530.341 6  -3253174.97422
  23357607.315    -5192222.083 5  -3923409.20321
  24085918.9724   -3249917.78044  -2137425.24761
 93  4 26 17 59 29.9990000  0  8G18G28G11G29G19G27G 2G16
  20300149.690    -1193122.921 7   -895572.76523
  23366739.019    -1231172.726 5   -923863.15821
  23400008.878    -4742189.626 6  -3584569.31121
  22642872.0894     688663.18946    526457.58261
  20533981.8554   -2640034.36746  -1994981.63464
  21728009.7144   -4427303.51646  -3348842.32461
  23329582.1284   -5339499.57245  -4038170.75561
  24064557.8704   -3362167.24244  -2224892.33461
 93  4 26 17 59 59.9990000  0  8G18G28G11G29G19G27G 2G16
  20295720.0734   -1216399.89247   -913710.71563
  23362224.1284   -1254893.79845   -942347.17061
  23375761.6364   -4869598.84445  -3683849.11861
  22648004.245      715622.327 6    547464.53621
  20520616.7304   -2710257.31946  -2049700.81763
  21704692.675    -4549831.169 6  -3444318.37821
  23301621.8784   -5486434.64645  -4152665.48461
  24043310.7694   -3473813.66344  -2311889.47661
 93  4 26 18  0 29.9990000  0  8G18G28G11G29G19G27G 2G16
  20291411.526    -1239047.869 7   -931358.53523
  23357829.011    -1277972.195 5   -960330.38721
  23351613.894    -4996499.514 6  -3782732.63821
  22653206.7144     742972.59046    568776.26661
  20507315.7694   -2780149.96646  -2104162.61464
  21681422.440    -4672112.331 6  -3539602.34821
  23273730.925    -5633006.955 6  -4266877.55821
  24022178.0344   -3584828.84642  -2398394.76961
 93  4 26 18  0 59.9990000  0  8G18G28G11G29G19G27G 2G16
  20287217.800    -1261084.993 7   -948530.36323
  23353562.667    -1300404.397 5   -977810.03921
  23327561.2144   -5122895.29246  -3881222.76561
  22658484.761      770706.286 6    590386.77421
  20494078.3554   -2849718.50646  -2158371.86562
  21658200.331    -4794168.996 6  -3634711.39621
  23245903.4094   -5779223.25945  -4380812.22561
  24001177.9174   -3695223.15943
 93  4 26 18  1 29.9990000  0  8G18G28G11G29G19G27G 2G16
  20283138.300    -1282518.870 7   -965232.12923
  23349420.667    -1322181.741 5   -994779.43621
  23303605.8234   -5248776.07246  -3979311.59561
  22663839.050      798829.601 6    612300.86621
  20480906.8554   -2918943.60646  -2212313.51062
  21635016.6594   -4915989.52646  -3729636.43362
  23218150.0034   -5925073.71145  -4494461.82361
  23980295.581    -3804986.539 2
 93  4 26 18  1 59.9990000  0  7G18G28G11G29G19G27G 2
  20279172.855    -1303361.579 7   -981473.23223
  23345393.3864   -1343330.41945  -1011258.97661
  23279752.050    -5374142.008 6  -4076999.23321
  22669266.737      827351.614 6    634525.66221
  20467797.9954   -2987831.58246  -2265992.45062
  21611879.730    -5037571.357 6  -3824375.46922
  23190461.644    -6070578.995 6  -4607842.45421
 93  4 26 18  2 29.9990000  0  7G18G28G11G29G19G27G 2
  20275315.401    -1323633.110 7   -997269.26023
  23341480.761    -1363882.940 5  -1027273.95121
  23255989.917    -5499009.372 6  -4174298.39421
  22674765.776      856257.058 6    657049.21821
  20454746.2144   -3056421.39246  -2319439.06162
  21588783.183    -5158935.920 6  -3918945.22222
  23162832.550    -6215764.183 6  -4720973.67121
 93  4 26 18  2 59.9990000  0  7G18G28G11G29G19G27G 2
  20271566.058    -1343333.499 7  -1012620.23823
  23337682.870    -1383850.148 5  -1042832.84421
  23232321.753    -5623382.752 5  -4271212.63321
  22680331.8004     885523.51146    679854.07861
  20441743.0264   -3124736.59146  -2372671.68263
  21565730.847    -5280094.654 6  -4013354.59322
  23135264.862    -6360639.604 6  -4833863.51321
 93  4 26 18  3 29.9990000  0  7G18G28G11G29G19G27G 2
  20267923.550    -1362471.230 7  -1027532.79523
  23333991.206    -1403250.120 5  -1057949.74121
  23208745.6904   -5747277.17946  -4367753.66461
  22685969.2374     915142.26746    702933.46061
  20428792.8394   -3192796.14146  -2425705.10363
  21542707.8314   -5401064.25246  -4107616.57362
  23107752.7304   -6505210.45146  -4946516.00061
 93  4 26 18  3 59.9990000  0  7G18G28G11G29G19G27G 2
  20264388.9644   -1381045.51547  -1042006.29063
  23330408.003    -1422090.292 5  -1072630.41021
  23185260.0194   -5870695.63545  -4463923.83561
  22691673.5194     945105.75546    726281.44761
  20415882.0424   -3260624.44346  -2478558.33063
  21519724.464    -5521854.597 6  -4201738.87722
  23080301.417    -6649473.961 6  -5058929.02821
 93  4 26 18  4 29.9990000  0  7G18G28G11G29G19G27G 2
  20260965.362    -1399046.873 7  -1056033.35223
  23326937.7844   -1440337.88945  -1086849.34761
  23161865.9484   -5993633.16046  -4559719.22861
  22697441.3624     975412.70846    749897.08761
  20403019.7064   -3328231.23746  -2531238.95463
  21496771.237    -5642468.315 6  -4295723.55722
  23052912.6054   -6793415.59946  -5171091.23761
 93  4 26 18  4 59.9990000  0  7G18G28G11G29G19G27G 2
  20257646.026    -1416486.074 7
  23323577.644    -1457974.621 5
  23138563.612    -6116088.545 6  -4655138.94821
  22703270.6984    1006077.25945    773791.37661
  20390193.9174   -3395617.75046  -2583747.92563
  21473851.440    -5762918.600 6  -4389580.88122
  23025577.792    -6937041.709 6  -5283007.58321
 93  4 26 18  5 29.9980000  0  7G18G28G11G29G19G27G 2
  20254430.943    -1433378.484 7
  23320336.287    -1475007.958 5
  23115353.4204   -6238061.39146  -4750182.66161
  22709176.279     1037094.543 6    797960.53421
  20377414.9434   -3462785.21546  -2636086.21063
  21450964.779    -5883186.366 6  -4483295.98522
  22998305.014    -7080362.770 6  -5394686.22221
 93  4 26 18  5 59.9980000  0  7G18G28G11G29G19G27G 2
  20251323.857    -1449714.075 7
  23317208.076    -1491440.076 5
  23092233.967    -6359544.906 6  -4844845.09621
  22715144.834     1068462.621 6    822403.01921
  20364675.3654   -3529722.04046  -2688244.78063
  21428116.201    -6003264.171 6  -4576863.08722
  22971087.631    -7223385.151 5  -5506132.11921
 93  4 26 18  6 29.9980000  0  7G18G28G11G29G19G27G 2
  20248319.553    -1465496.311 7
  23314196.100    -1507279.113 5
  23069209.936    -6480539.050 6  -4939126.19521
  22721178.514     1100167.750 6    847108.15021
  20351985.8654   -3596420.60246  -2740217.68763
  21405303.537    -6123147.223 6  -4670278.41322
  22943928.881    -7366107.643 6  -5617344.34821
 93  4 26 18  6 59.9980000  0  7G18G28G11G29G19G27G 2
  20245419.897    -1480740.702 7
  23311285.490    -1522557.841 5
  23046280.404    -6601047.047 6  -5033028.48321
  22727277.475     1132196.471 6    872065.42321
  20339339.2174   -3662863.16646  -2791991.11563
  21382529.686    -6242820.470 6  -4763530.24722
  22916826.623    -7508535.920 6  -5728327.31021
 93  4 26 18  7 29.9980000  0  7G18G28G11G29G19G27G 2
  20242621.029    -1495441.293 7
  23308484.873    -1537287.267 5
  23023441.4364   -6721067.45246  -5126550.81561
  22733426.8184    1164525.23946    897256.47161
  20326748.9904   -3729031.27746  -2843550.68963
  21359800.748    -6362264.681 6  -4856603.62922
  22889779.7484   -7650660.65046  -5839073.76761
 93  4 26 18  7 59.9980000  0  7G18G28G11G29G19G27G 2
  20239926.170    -1509609.262 7
  23305781.100    -1551473.716 5
  23000690.6704   -6840605.46446
  22739633.9364    1197150.25345    922678.39261
  20314208.3424   -3794922.18146  -2894894.25962
  21337108.248    -6481510.705 6
  22862796.240    -7792480.568 6  -5949582.68521
 93  4 26 18  8 29.9980000  0  7G18G28G11G29G19G27G 2
  20237329.779    -1523251.915 7
  23303192.123    -1565094.974 5
  22978037.1784   -6959652.21446
  22745904.1784    1230092.84945    948347.76361
  20301726.7564   -3860524.75346  -2946013.14362
  21314456.795    -6600547.764 6
  22835863.326    -7933994.256 5  -6059852.98521
 93  4 26 18  8 59.9980000  0  7G18G28G11G29G19G27G 2
  20234835.193    -1536364.218 7
  23300709.951    -1578149.685 5
  22955478.4044   -7078194.92146  -5404831.80261
  22752239.7724    1263361.99445    974271.56161
  20289300.6074   -3925821.50246  -2996893.74062
  21291844.928    -6719369.811 6  -5134867.23822
  22808993.451    -8075206.904 5  -6169888.70321
 93  4 26 18  9 29.9980000  0  7G18G28G11G29G19G27G 2
  20232444.686    -1548921.194 7
  23298334.045    -1590616.394 5
  22933022.1784   -7196218.47046  -5496798.12761
  22758628.607     1296963.678 5   1000454.50821
  20276933.6784   -3990814.87746  -3047537.93163
  21269272.397    -6837985.303 6  -5227294.85322
  22782176.412    -8216111.002 6  -6279683.99821
 93  4 26 18  9 59.9980000  0  7G18G28G11G29G19G27G 2
  20230164.1544   -1560911.40147
  23296077.029    -1602490.636 5
  22910660.0614   -7313714.92946  -5588353.72861
  22765091.522     1330910.949 5   1026906.73821
  20264620.1544   -4055518.51146  -3097956.36363
  21246736.975    -6956410.044 6  -5319573.83122
  22755422.8034   -8356713.41346  -6389244.25761
 93  4 26 18 10 29.9980000  0  7G18G28G11G29G19G27G 2
  20227990.186    -1572332.992 7
  23293929.139    -1613783.366 5
  22888400.795    -7430688.880 6  -5679502.18621
  22771615.436     1365188.956 5   1053616.67821
  20252359.0764   -4119956.88346  -3148168.08663
  21224237.647    -7074642.401 6  -5411702.90222
  22728722.529    -8497022.812 6  -6498576.16621
 93  4 26 18 10 59.9980000  0  7G18G28G11G29G19G27G 2
  20225927.037    -1583175.258 7
  23291891.607    -1624512.130 5
  22866242.7564   -7547136.82846  -5770240.77061
  22778199.6934    1399781.62645   1080571.82361
  20240146.0844   -4184138.56346  -3198179.79663
  21201773.139    -7192694.870 6  -5503691.79022
  22702081.615    -8637026.947 6  -6607670.20221
 93  4 26 18 11 29.9980000  0  7G18G28G11G29G19G27G 2
  20223976.264    -1593424.870 7
  23289959.818    -1634655.192 5
  22844184.256    -7663049.886 6  -5860562.54721
  22784839.3814    1434704.82545   1107784.52061
  20227983.8114   -4248061.23846  -3247989.68363
  21179344.482    -7310566.747 6  -5595539.98222
  22675502.7254   -8776706.53446  -6716511.36661
 93  4 26 18 11 59.9980000  0  7G18G28G11G29G19G27G 2
  20222137.1864   -1603088.54747
  23288137.568    -1644217.271 5
  22822230.2794   -7778419.19246  -5950460.62461
  22791551.9204    1469973.10045   1135266.10561
  20215874.0294   -4311712.08746  -3297587.75063
  21156953.373    -7428238.954 6  -5687232.56922
  22648984.1234   -8916048.31445  -6825089.30261
 93  4 26 18 12 29.9980000  0  7G18G28G11G29G19G27G 2
  20220404.842    -1612199.281 7
  23286424.256    -1653224.624 5
  22800377.7324   -7893262.22246  -6039948.61861
  22798322.928     1505557.511 5   1162993.99321
  20203808.0764   -4375096.09046  -3346977.88963
  21134595.467    -7545713.668 6  -5778771.27622
  22622532.9904   -9055053.81146  -6933405.17761
 93  4 26 18 12 59.9980000  0  7G18G28G11G29G19G27G 2
  20218772.092    -1620781.821 7
  23284812.225    -1661701.181 5
  22778617.467    -8007601.123 6  -6129043.77821
  22805150.584     1541421.349 5   1190939.61721
  20191795.3574   -4438226.22746  -3396170.20763
  21112275.170    -7663009.458 6  -5870170.55922
  22596140.3184   -9193747.58846  -7041478.18061
 93  4 26 18 13 29.9980000  0  7G18G28G11G29G19G27G 2
  20217236.420    -1628843.171 7
  23283299.959    -1669640.115 5
  22756959.5294   -8121432.06046  -6217743.13361
  22812025.0144    1577567.19645   1219105.01561
  20179831.0684   -4501096.04546  -3445159.69163
  21089989.404    -7780111.214 6  -5961418.65022
  22569806.9204   -9332131.17446  -7149309.46761
 93  4 26 18 13 59.9980000  0  7G18G28G11G29G19G27G 2
  20215800.8424   -1636393.23547
  23281887.615    -1677047.217 5
  22735393.936    -8234743.210 6  -6306037.46221
  22818960.764     1613992.606 5   1247488.24721
  20167917.2794   -4563710.39746  -3493950.10763
  21067750.8734   -7896993.44147  -6052495.68062
  22543532.100    -9470196.254 6  -7256892.56921
 93  4 26 18 14 29.9980000  0  7G18G28G11G29G19G27G 2
  20214461.928    -1643425.574 7
  23280580.357    -1683916.157 5
  22713936.537    -8347527.678 6  -6393921.40921
  22825945.7404    1650694.35145   1276086.77761
  20156049.186    -4626067.028 6  -3542539.69923
  21045548.482    -8013656.974 7  -6143402.30222
  22517318.4594   -9607947.25446  -7364230.92661
 93  4 26 18 14 59.9980000  0  7G18G28G11G29G19G27G 2
  20213219.920    -1649957.906 7  -1251549.20823
  23279374.2564   -1690257.19345  -1186738.48861
  22692570.3114   -8459794.05746  -6481401.64661
  22832978.2094    1687670.06945   1304898.80061
  20144229.522    -4688193.925 6  -3590950.28822
  21023388.2324   -8130120.59447  -6234153.14662
  22491162.178    -9745404.900 6  -7471340.70421
 93  4 26 18 15 29.9980000  0  7G18G28G11G29G19G27G 2
  20212069.7874   -1655997.13847  -1256255.15263
  23278269.412    -1696071.088 5  -1191268.84421
  22671305.0454   -8571536.66546  -6568473.73161
  22840075.9754    1724938.68545   1333939.04961
  20132448.1784   -4750097.35746  -3639186.73762
  21001261.4364   -8246386.17546  -6324749.67862
  22465063.3504   -9882563.52646  -7578217.49061
 93  4 26 18 15 59.9980000  0  7G18G28G11G29G19G27G 2
  20211019.670    -1661518.843 7  -1260557.82023
  23277267.8264   -1701341.50145  -1195375.74561
  22650145.3344   -8682733.86146  -6655120.85161
  22847223.717     1762518.141 5   1363221.53921
  20120714.0684   -4811763.34946  -3687238.17762
  20979176.397    -8362442.676 7  -6415183.28322
  22439022.0294  -10019405.80346  -7684847.76261
 93  4 26 18 16 29.9980000  0  7G18G28G11G29G19G27G 2
  20210065.490    -1666527.075 7  -1264460.38323
  23276368.3504   -1706074.97845  -1199064.20761
  22629090.592    -8793394.782 6  -6741350.09121
  22854432.443     1800391.557 5   1392733.06721
  20109023.5924   -4873186.42946  -3735100.32763
  20957128.6004   -8478308.36646  -6505468.21062
  22413036.5224  -10155950.28446  -7791245.97961
 93  4 26 18 16 59.9980000  0  7G18G28G11G29G19G27G 2
  20209212.1544   -1671020.69847  -1267961.96763
  23275566.943    -1710282.089 5  -1202342.53121
  22608131.959    -8903523.989 6  -6827165.00321
  22861691.2014    1838558.63945   1422473.41661
  20097379.0924   -4934385.97246  -3782788.29163
  20935115.982    -8593993.312 7  -6595612.29422
  22387111.2324  -10292195.20546  -7897410.78461
 93  4 26 18 17 29.9980000  0  7G18G28G11G29G19G27G 2
  20208454.8654   -1674991.51147  -1271056.16763
  23274857.7014   -1713986.22745  -1205228.90361
  22587270.9364   -9013133.31946  -6912574.82661
  22869010.225     1876996.910 5   1452425.08121
  20085776.3654   -4995359.43646  -3830300.08763
  20913133.912    -8709512.482 7  -6685627.20822
  22361236.0224  -10428160.51946  -8003357.70961
 93  4 26 18 17 59.9980000  0  7G18G28G11G29G19G27G 2
  20207796.553    -1678451.326 7  -1273752.17023
  23274248.584    -1717208.785 5  -1207740.03821
  22566509.725    -9122239.627 6  -6997592.67421
  22876369.045     1915679.835 5   1482567.39521
  20074215.3504   -5056114.91346  -3877642.02163
  20891178.857    -8824886.043 7  -6775528.65222
  22335415.6004  -10563864.00446  -8109100.61561
 93  4 26 18 18 29.9970000  0  7G18G28G11G29G19G27G 2
  20207237.790    -1681390.668 7
  23273727.3214   -1719945.09145
  22545846.8064   -9230828.51946  -7082207.35261
  22883779.790     1954614.733 5   1512906.03221
  20062696.1814   -5116634.30646  -3924799.99563
  20869251.798    -8940106.935 7  -6865311.14322
  22309644.7824  -10699290.63546  -8214627.78561
 93  4 26 18 18 59.9970000  0  7G18G28G11G29G19G27G 2
  20206777.5014   -1683809.58147
  23273299.4154   -1722200.18745
  22525280.189    -9338908.052 6  -7166425.12321
  22891240.4934    1993808.05445   1543446.02461
  20051223.0484   -5176933.83046  -3971786.64363
  20847352.9234   -9055184.04647  -6954981.60062
  22283924.7674  -10834448.00246  -8319945.14061
 93  4 26 18 19 29.9970000  0  7G18G28G11G29G19G27G 2
  20206416.415    -1685711.723 7
  23272969.2124   -1723934.23845
  22504814.7594   -9446450.84446  -7250224.62961
  22898745.8144    2033258.75245   1574186.56961
  20039796.2204   -5236966.42946  -4018565.28763
  20825487.735    -9170090.848 7  -7044519.34423
  22258259.6734  -10969321.07246  -8425040.95561
 93  4 26 18 19 59.9970000  0  7G18G28G11G29G19G27G 2
  20206151.439    -1687104.877 7  -1280495.40223
  23272744.767    -1725121.549 5  -1213906.01921
  22484455.9394   -9553437.84946  -7333591.05861
  22906302.032     2072981.307 5   1605138.95721
  20028430.2824   -5296718.20146  -4065125.11763
  20803654.2674   -9284818.91047  -7133917.80163
  22232651.9154  -11103888.55646  -8529898.65761
 93  4 26 18 20 29.9970000  0  7G18G28G11G29G19G27G 2
  20205977.7824   -1688026.06747  -1281213.26263
  23272617.7204   -1725790.81845  -1214427.58861
  22464200.0714   -9659889.60646  -7416540.40961
  22913909.392     2112942.529 5   1636277.31521
  20017104.8144   -5356221.73646  -4111491.51063
  20781854.384    -9399387.880 7  -7223192.29823
  22207100.665   -11238171.772 6  -8634534.84221
 93  4 26 18 20 59.9970000  0  7G18G28G11G29G19G27G 2
  20205882.306    -1688508.072 7
  23272583.6104   -1725961.93445
  22444039.071    -9765830.531 6  -7499091.70221
  22921554.1034    2153107.66245   1667574.57861
  20005823.3294   -5415507.20846  -4157687.98963
  20760076.923    -9513822.810 7  -7312362.34523
  22181595.4464  -11372188.94946  -8738963.73861
 93  4 26 18 21 29.9970000  0  7G18G28G11G29G19G27G 2
  20205873.9544   -1688551.42347
  23272645.5954   -1725652.09545
  22423973.735    -9871263.483 6  -7581247.16421
  22929231.6034    2193462.94045   1699019.99861
  19994582.7984   -5474571.79746  -4203712.34663
  20738325.118    -9628132.756 7  -7401435.00023
  22156144.2744  -11505934.83446  -8843181.24261
 93  4 26 18 21 59.9970000  0  7G18G28G11G29G19G27G 2
  20205954.743    -1688131.017 7
  23272787.8374   -1724887.86645  -1213724.14861
  22404013.7434   -9976180.17146  -7663000.34761
  22936951.7354    2234027.54845   1730628.50961
  19983381.6034   -5533435.29646  -4249580.00663
  20716599.821    -9742295.065 7  -7490392.61423
  22130749.7514  -11639390.58946  -8947172.66461
 93  4 26 18 22 29.9970000  0  7G18G28G11G29G19G27G 2
  20206126.4784   -1687230.40547  -1280593.46263
  23273026.157    -1723663.033 5  -1212769.77821
  22384145.2744  -10080571.25546  -7744343.95961
  22944710.1964    2274799.65945   1762398.72261
  19972219.0484   -5592101.38546  -4295293.84363
  20694909.376    -9856280.883 7  -7579212.69223
  22105410.485   -11772545.026 6  -9050929.27621
 93  4 26 18 22 59.9970000  0  7G18G28G11G29G19G27G 2
  20206388.821    -1685836.066 7  -1279507.02123
  23273343.7354   -1721966.26245  -1211447.68161
  22364381.5794  -10184429.94146  -7825272.72361
  22952510.814     2315783.184 5   1794333.66221
  19961101.8684   -5650554.32946  -4340841.59663
  20673257.142    -9970073.903 7  -7667882.54823
  22080129.353   -11905397.523 6  -9154450.61321
 93  4 26 18 23 29.9970000  0  7G18G28G11G29G19G27G 2
  20206745.7824   -1683979.20547  -1278060.18163
  23273751.1344   -1719827.33045  -1209781.02861
  22344716.5014  -10287775.54046  -7905801.68861
  22960348.5874    2356961.11045   1826420.09261
  19950006.2744   -5708822.04846  -4386245.01763
  20651635.454   -10083683.964 7  -7756409.82623
  22054899.6814  -12037978.34446  -9257760.26361
 93  4 26 18 23 59.9970000  0  7G18G28G11G29G19G27G 2
  20207186.126    -1681663.752 7  -1276255.98223
  23274245.5644   -1717225.78245  -1207753.89761
  22325151.212   -10390595.044 6  -7985920.69521
  22968221.501     2398343.285 5   1858665.68021
  19938959.6034   -5766895.08446  -4431496.73363
  20630053.915   -10197098.759 6  -7844784.95723
  22029724.1894  -12170280.15546  -9360852.52861
 93  4 26 18 24 29.9970000  0  7G18G28G11G29G19G27G 2
  20207723.165    -1678845.128 7  -1274059.71023
  23274841.939    -1714094.989 5  -1205314.36221
  22305693.587   -10492837.716 6  -8065590.25121
  22976147.1034    2439971.39745   1891102.88361
  19927957.0324   -5824703.90546  -4476542.57362
  20608515.259   -10310289.541 7  -7932985.52323
  22004611.7044  -12302256.27546  -9463690.97361
 93  4 26 18 24 59.9970000  0  7G18G28G11G29G19G27G 2
  20208352.7674   -1675524.12447  -1271471.97563
  23275536.5094   -1710452.78045  -1202476.34661
  22286347.0244  -10594503.13646  -8144809.99161
  22984112.571     2481859.578 5   1923742.74221
  19917010.7434   -5882237.11646  -4521373.64762
  20587014.462   -10423276.331 7  -8021027.14323
  21979555.9154  -12433912.89646  -9566280.46961
 93  4 26 18 25 29.9970000  0  7G18G28G11G29G19G27G 2
  20209079.6344   -1671716.13047  -1268504.77263
  23276320.501    -1706329.916 5  -1199263.79421
  22267108.056   -10695605.515 6  -8223591.02621
  22992129.376     2523993.857 4   1956574.35221
  19906109.6184   -5939513.27246  -4566004.42562
  20565547.298   -10536084.180 7  -8108929.32323
  21954559.2744  -12565268.75246  -9668635.60761
 93  4 26 18 25 59.9970000  0  7G18G28G11G29G19G27G 2
  20209909.8764   -1667366.93947  -1265115.85163
  23277197.2434   -1701697.28745  -1195654.00861
  22247984.4934  -10796104.69946  -8301902.02661
  23000200.5794    2566409.79044   1989625.43061
  19895271.5714   -5996483.97746  -4610397.17663
  20544120.774   -10648679.049 7  -8196665.55323
  21929626.3924  -12696286.25446  -9770727.10061
 93  4 26 18 26 29.9970000  0  7G18G28G11G29G19G27G 2
  20210842.2514   -1662444.90147  -1261280.56063
  23278182.0954   -1696525.85945  -1191624.38961
  22228982.7204  -10895964.57546  -8379714.86861
  23008338.657     2609145.199 5   2022925.48921
  19884492.0484   -6053120.26346  -4654529.34863
  20522743.024   -10761023.745 7  -8284206.84423
  21904764.696   -12826938.683 6  -9872534.13421
 93  4 26 18 26 59.9970000  0  7G18G28G11G29G19G27G 2
  20211888.7984   -1656959.81247  -1257006.53163
  23279273.7284   -1690827.67345  -1187184.31261
  22210098.485   -10995190.231 6  -8457033.53221
  23016527.9314    2652191.58445   2056467.81561
  19873774.7824   -6109433.04546  -4698409.44363
  20501412.0794  -10873116.55847  -8371551.86662
  21879972.704   -12957233.149 6  -9974062.19821
 93  4 26 18 27 29.9970000  0  7G18G28G11G29G19G27G 2
  20213037.9784   -1650911.05147  -1252293.27763
  23280456.6104   -1684584.04245  -1182319.21661
  22191340.321   -11093774.083 6  -8533852.07621
  23024775.1734    2695537.28944   2090243.44161
  19863122.6964   -6165417.62346  -4742033.79863
  20480131.915   -10984942.142 7  -8458688.66823
  21855249.110   -13087157.288 6 -10075301.70021
 93  4 26 18 27 59.9970000  0  7G18G28G11G29G19G27G 2
  20214290.790    -1644337.797 7  -1247171.30823
  23281751.493    -1677806.322 5  -1177037.94721
  22172698.470   -11191736.571 6  -8610186.43421
  23033079.2124    2739163.13745   2124237.29161
  19852526.0244   -6221099.85646  -4785422.55463
  20458895.8064  -11096536.66947  -8545645.41562
  21830591.087   -13216722.526 6 -10176261.56421
 93  4 26 18 28 29.9970000  0  7G18G28G11G29G19G27G 2
  20215635.7594   -1637270.20547  -1241664.15363
  23283135.2904   -1670518.95145  -1171359.56961
  22154172.8994  -11289094.32446  -8686049.57661
  23041426.7044    2783040.05144   2158426.80061
  19841985.3844   -6276500.17946  -4828591.65063
  20437701.1574  -11207919.09947  -8632436.90162
  21806003.2204  -13345941.60946 -10276951.70361
 93  4 26 18 28 59.9970000  0  7G18G28G11G29G19G27G 2
  20217076.5404   -1629696.59147  -1235762.70063
  23284616.8604   -1662734.48645  -1165293.80361
  22135759.915   -11385844.629 6  -8761439.40321
  23049825.1494    2827163.83045   2192808.67261
  19831495.9464   -6331613.24046  -4871536.89963
  20416546.9784  -11319088.43647  -8719062.34063
  21781481.4624  -13474811.54446 -10377369.76961
 93  4 26 18 29 29.9970000  0  7G18G28G11G29G19G27G 2
  20218611.0644   -1621631.23547  -1229478.09263
  23286189.759    -1654463.015 5  -1158848.56721
  22117464.7824  -11481991.14346  -8836358.70361
  23058266.7674    2871535.96044   2227384.02961
  19821062.1104   -6386458.18446  -4914273.22863
  20395429.9464  -11430048.47247  -8805524.68162
  21757019.017   -13603352.119 6 -10477531.19221
 93  4 26 18 29 59.9970000  0  7G18G28G11G29G19G27G 2
  20220235.9704   -1613089.19847
  23287854.2124   -1645722.96045
  22099281.876   -11577544.998 6  -8910816.20521
  23066755.470     2916141.392 4   2262141.22121
  19810665.6494   -6441058.51346  -4956818.95264
  20374354.9154  -11540809.62747  -8891832.05762
  21732616.2984  -13731586.40446 -10577453.94862
 93  4 26 18 30 29.9970000  0  8G18G28G11G29G19G27G 2G16
  20221956.6184   -1604047.83547
  23289602.4544   -1636523.04345
  22081209.9704  -11672504.84646  -8984810.84561
  23075285.524     2960970.392 4   2297072.58121
  19800324.7824   -6495413.40746  -4999173.41664
  20353319.1894  -11651349.37647  -8977966.91362
  21708270.439   -13859528.419 6 -10677148.94722
  22956391.8534         -0.90752
 93  4 26 18 30 59.9970000  0  8G18G28G11G29G19G27G 2G16
  20223773.8844   -1594512.10847
  23291447.0094   -1626847.14444
  22063251.0954  -11766870.35546  -9058342.34061
  23083862.282     3006024.465 4   2332179.35021
  19790028.6654   -6549524.15846  -5041337.64064
  20332323.6034  -11761669.46047  -9063930.60162
  21683977.4934  -13987189.84246 -10776625.31962
  22942000.751      -75625.906 3        -0.25031
 93  4 26 18 31 29.9960000  0  8G18G28G11G29G19G27G 2G16
  20225674.4964   -1584514.61347
  23293379.9734   -1616699.89544
  22045409.262   -11860652.187 6  -9131419.03021
  23092471.785     3051271.929 3   2367436.77621
  19779773.4884   -6603414.97146  -5083330.48863
  20311370.8954  -11871779.17847  -9149730.36563
  21659737.1844  -14114570.92746 -10875883.23362
  22927715.1764    -150690.07543    -58491.79561
 93  4 26 18 31 59.9960000  0  8G18G28G11G29G19G27G 2G16
  20227663.9964   -1574047.01347
  23295395.6764   -1606085.67744
  22027671.8404  -11953849.84446  -9204040.50661
  23101117.293     3096708.844 4   2402841.82621
  19769561.4264   -6657076.21646  -5125144.44363
  20290458.4494  -11981686.77947  -9235372.63263
  21635554.2704  -14241648.60446 -10974904.74162
  22913536.676     -225194.194 3   -116546.94121
 93  4 26 18 32 29.9960000  0  8G18G28G11G29G19G27G 2G16
  20229746.0664   -1563114.42947
  23297504.3564   -1595009.27844
  22010050.145   -12046457.653 6  -9276202.35121
  23109801.2314    3142337.83244   2438396.58261
  19759394.9884   -6710501.58846  -5166774.61463
  20269581.6994  -12091397.30247  -9320861.32763
  21611435.1134  -14368407.27946 -11073677.67561
  22899463.7464    -299138.98643   -174166.25461
 93  4 26 18 32 59.9960000  0  8G18G28G11G29G19G27G 2G16
  20231909.0514   -1551746.06547
  23299696.4264   -1583476.41744
  21992538.699   -12138481.554 6  -9347909.19221
  23118518.910     3188152.779 5   2474096.17421
  19749273.1844   -6763699.70546  -5208227.69763
  20248738.277   -12200925.996 7  -9406208.33223
  21587374.5354  -14494832.85246 -11172191.04362
  22885501.9964    -372531.33043   -231355.09761
 93  4 26 18 33 29.9960000  0  8G18G28G11G29G19G27G 2G16
  20234158.2154   -1539931.83447
  23301980.2314   -1571495.94745
  21975139.051   -12229912.993 6  -9419154.36821
  23127280.3794    3234163.65644   2509948.46161
  19739191.9344   -6816660.49846  -5249495.84764
  20227931.2544  -12310266.71047  -9491408.86763
  21563383.9024  -14620906.63046 -11270430.28462
  22871637.027     -445371.677 3   -288113.79821
 93  4 26 18 33 59.9960000  0  8G18G28G11G29G19G27G 2G16
  20236490.9414   -1527679.32947
  23304343.2624   -1559082.77545
  21957852.488   -12320760.502 6  -9489944.53021
  23136072.371     3280372.686 1   2545955.14521
  19729159.6604   -6869378.75346  -5290575.02363
  20207159.879   -12419425.544 7  -9576467.66923
  21539457.5274  -14746651.96346 -11368413.59962
  22857882.449     -517667.244 4   -344448.06221
 93  4 26 18 34 29.9960000  0  7G18G28G11G19G27G 2G16
  20238905.8634   -1514982.38147
  23306783.7384   -1546226.68245
  21940674.770   -12411021.284 6  -9560277.52421
  19719176.3714   -6921846.49246  -5331458.97563
  20186423.7154  -12528398.80547  -9661381.87363
  21515586.1914  -14872080.16246 -11466149.78062
  22844225.5744    -589415.84844   -400356.02861
 93  4 26 18 34 59.9960000  0  7G18G28G11G19G27G 2G16
  20241405.4414   -1501849.16047
  23309313.9494   -1532928.66144
  21923610.645   -12500695.582 6  -9630153.50021
  19709238.4344   -6974063.02146  -5372147.19463
  20165722.684   -12637179.451 7  -9746145.98823
  21491778.2544  -14997198.41446 -11563644.45562
  22830680.2314    -660615.20544   -455836.07761
 93  4 26 18 35 29.9960000  0  7G18G28G11G19G27G 2G16
  20243988.0204   -1488274.49847
  23311928.4494   -1519189.34944
  21906658.316   -12589782.347 6  -9699571.66621
  19699353.6454   -7026032.87246  -5412643.19363
  20145059.106   -12745763.824 7  -9830757.14323
  21468024.8164  -15122030.58746 -11660916.21162
  22817236.4414    -731264.80544   -510887.68661
 93  4 26 18 35 59.9960000  0  7G18G28G11G19G27G 2G16
  20246653.9104   -1474259.57247
  23314631.4884   -1505011.55744
  21889816.129   -12678283.397 6  -9768533.43921
  19689507.6524   -7077764.17646  -5452953.31863
  20124432.426   -12854153.667 7  -9915216.73023
  21444322.1684  -15246591.00746 -11757976.21462
  22803898.6994    -801359.49344   -565506.97061
 93  4 26 18 36 29.9960000  0  7G18G28G11G19G27G 2G16
  20249406.0664   -1459805.47547
  23317408.6064   -1490406.74444
  21873087.996   -12766199.217 6  -9837039.18721
  19679710.0044   -7129259.38846  -5493079.46563
  20103842.965   -12962361.726 7  -9999534.67023
  21420668.1134  -15370884.58646 -11854828.27862
  22790663.2384    -870901.85244   -619695.79261
 93  4 26 18 36 59.9960000  0  7G18G28G11G19G27G 2G16
  20252236.1764   -1444928.77647
  23320264.3794   -1475395.08244
  21856466.8244  -12853535.42346  -9905093.29561
  19669953.9264   -7180526.37146  -5533027.78063
  20083284.231   -13070391.411 7 -10083713.60923
  21397064.8244  -15494921.18646 -11951480.11062
  22777533.1914    -939906.80645   -673465.88961
 93  4 26 18 37 29.9960000  0  7G18G28G11G19G27G 2G16
  20255151.3484   -1429610.50247
  23323199.2384   -1459981.84644
  21839961.020   -12940281.384 6  -9972687.47621
  19660246.2074   -7231543.74946  -5572781.59063
  20062761.9494  -13178232.15247 -10167745.33363
  21373508.5514  -15618695.99346 -12047927.93062
  22764507.770    -1008367.340 4   -726811.73621
 93  4 26 18 37 59.9960000  0  7G18G28G11G19G27G 2G16
  20258146.3874   -1413878.78547
  23326203.8874   -1444203.59544
  21823561.5354  -13026453.27146 -10039834.33661
  19650582.4184   -7282323.65846  -5612350.36363
  20042273.0044  -13285912.33447 -10251651.94263
  21350008.2544  -15742213.49946 -12144175.27862
  22751570.0824   -1076306.67344   -779751.47261
 93  4 26 18 38 29.9960000  0  7G18G28G11G19G27G 2G16
  20261218.0904   -1397737.56047
  23329278.4884   -1428062.19344
  21807273.8244  -13112044.30046 -10106528.58761
  19640965.6844   -7332860.01746  -5651729.35963
  20021812.902   -13393424.890 7 -10335427.93423
  21326554.2234  -15865463.49846 -12240214.17262
  22738745.9734   -1143725.28644   -832285.46861
 93  4 26 18 38 59.9960000  0  7G18G28G11G19G27G 2G16
  20264365.8634   -1381189.64747
  23332411.0434   -1411555.22743
  21791097.7854  -13197053.92546 -10172769.79061
  19631394.4184   -7383159.32746  -5690923.64063
  20001386.723   -13500762.598 7 -10419067.67623
  21303150.645   -15988439.024 6 -12336039.21321
  22726017.824    -1210624.812 5   -884414.94821
 93  4 26 18 39 29.9960000  0  7G18G28G11G19G27G 2G16
  20267591.1294   -1364237.85847
  23335626.9964   -1394680.40344
  21775031.6214  -13281483.14346 -10238558.75261
  19621865.6524   -7433232.46446  -5729941.67963
  19980993.5434  -13607928.23047 -10502573.34163
  21279802.3484  -16111134.36646 -12431645.89562
  22713383.4574   -1277000.87944   -936136.58361
 93  4 26 18 39 59.9960000  0  7G18G28G11G19G27G 2G16
  20270893.6684   -1346884.50947
  23338912.1454   -1377429.80744
  21759075.332   -13365334.198 6 -10303897.19221
  19612378.8874   -7483094.16046  -5768794.95763
  19960631.7544  -13714935.78447 -10585955.83363
  21256509.8164  -16233543.80646 -12527029.79762
  22700853.5354   -1342851.08445   -987448.44361
 93  4 26 18 40 29.9960000  0  7G18G28G11G19G27G 2G16
  20274274.0434   -1329120.21846
  23342260.5594   -1359795.59443
  21743228.691   -13448608.877 6 -10368786.51221
  19602927.1064   -7532745.80046  -5807484.55864
  19940300.316   -13821782.611 7 -10669213.06923
  21233270.473   -16355662.078 6 -12622186.82222
  22688425.8244   -1408162.94545  -1038340.79161
 93  4 26 18 40 59.9960000  0  7G18G28G11G19G27G 2G16
  20277735.4414   -1310937.96147
  23345694.9264   -1341764.95543
  21727493.988   -13531301.221 6 -10433222.06721
  19593522.4024   -7582181.33346  -5846005.76364
  19919997.5514  -13928463.13247 -10752340.72863
  21210091.645   -16477470.948 6 -12717102.75921
  22676102.2234   -1472931.10445  -1088809.51261
 93  4 26 18 41 29.9960000  0  7G18G28G11G19G27G 2G16
  20281273.1214   -1292340.65946
  23349203.1764   -1323339.94843
  21711866.059   -13613408.516 6 -10497201.76021
  19584152.7074   -7631404.00046  -5884361.09864
  19899726.9734  -14034981.20247 -10835341.80263
  21186972.270   -16598965.531 7 -12811773.82821
  22663880.676    -1537149.554 5  -1138849.84921
 93  4 26 18 41 59.9960000  0  7G18G28G11G19G27G 2G16
  20284890.5664   -1273332.40846   -958078.07362
  23352782.7384   -1304525.64443  -1124228.75061
  21696354.816   -13694929.586 6 -10560724.64321
  19574829.7464   -7680415.52846  -5922551.90563
  19879488.6684  -14141339.27947 -10918218.20563
  21163910.6994  -16720151.38546 -12906204.30761
  22651761.3794   -1600813.56045  -1188458.17561
 93  4 26 18 42 29.9960000  0  7G18G28G11G19G27G 2G16
  20288585.1684   -1253925.40646   -942955.80462
  23356436.332    -1285322.065 2  -1109265.00621
  21680951.1604  -13775862.17246 -10623788.98361
  19565539.2074   -7729220.42546  -5960581.70664
  19859284.981   -14247517.213 7 -11000954.23723
  21140909.1684  -16841030.95546 -13000396.10562
  22639754.215    -1663937.343 5  -1237645.56321
 93  4 26 18 42 59.9960000  0  7G18G28G11G19G27G 2G16
  20292346.8014   -1234146.90846   -927544.05762
  23360159.6454   -1265742.17343  -1094008.02961
  21665661.926   -13856220.053 6 -10686405.49021
  19556289.6604   -7777829.37946  -5998458.83164
  19839113.3794  -14353523.53247 -11083556.54763
  21117956.4024  -16961642.96946 -13094379.43861
  22627842.6994   -1726551.48345  -1286435.80761
 93  4 26 18 43 29.9960000  0  7G18G28G11G19G27G 2G16
  20296185.4884   -1213985.34246   -911833.81562
  23363965.465    -1245779.199 3  -1078452.52821
  21650481.1914  -13935991.57546 -10748565.11261
  19547078.0434   -7826232.00046  -6036175.17864
  19818977.0664  -14459342.94947 -11166013.22763
  21095057.1914  -17081992.88547 -13188158.52862
  22616024.746    -1788640.592 5  -1334816.95221
 93  4 26 18 43 59.9960000  0  7G18G28G11G19G27G 2G16
  20300092.9184   -1193449.10546
  23367831.4964   -1225436.45043
  21635411.3094  -14015176.02646 -10810267.27861
  19537912.8094   -7874411.14346  -6073717.38064
  19798877.4734  -14564956.83847 -11248309.74763
  21072200.5594  -17202090.10346 -13281740.72062
  22604303.129    -1850217.925 5  -1382799.31221
 93  4 26 18 44 29.9960000  0  7G18G28G11G19G27G 2G16
  20304071.3404   -1172543.51146   -879541.61362
  23371775.160    -1204723.357 3  -1046461.08421
  21620457.340   -14093774.412 6 -10871512.77121
  19528787.7234   -7922353.24346  -6111074.87264
  19778819.9734  -14670359.03247 -11330441.31763
  21049391.9024  -17321942.95446 -13375132.48762
  22592683.0434   -1911295.40045  -1430392.16461
 93  4 26 18 44 59.9950000  0  7G18G28G11G19G27G 2G16
  20308119.1014   -1151261.60146   -862958.37262
  23375782.8904   -1183654.87742  -1030044.15961
  21605612.9914  -14171781.14546 -10932297.23061
  19519711.2494   -7970052.35146  -6148243.01663
  19758802.7104  -14775556.22647 -11412413.15063
  21026633.585   -17441546.639 6 -13468330.10421
  22581157.1084   -1971856.43345  -1477582.60561
 93  4 26 18 45 29.9950000  0  7G18G28G11G19G27G 2G16
  20312239.6244   -1129612.65146   -846089.13062
  23379855.023    -1162256.403 2  -1013370.07921
  21590879.4214  -14249206.89546 -10992628.98761
  19510674.9834   -8017535.02146  -6185242.50863
  19738818.1404  -14880573.96247 -11494245.13263
  21003922.4054  -17560891.13246 -13561325.76562
  22569731.319    -2031909.667 5  -1524377.32521
 93  4 26 18 45 59.9950000  0  7G18G28G11G19G27G 2G16
  20316431.6404   -1107591.60546   -828929.93262
  23383990.1874   -1140533.88742   -996443.54061
  21576257.4604  -14326039.39946 -11052498.46761
  19501682.843    -8064788.256 6  -6222063.23023
  19718870.2734  -14985405.47747 -11575932.01463
  20981263.6324  -17679956.88646 -13654104.21462
  22558399.124    -2091456.439 5  -1570777.45321
 93  4 26 18 46 29.9950000  0  7G18G28G11G19G27G 2G16
  20320694.6484   -1085186.33146   -811471.35962
  23388183.5624   -1118483.81342   -979261.75361
  21561749.9524  -14402284.94046 -11111910.56261
  19492731.5694   -8111834.90546  -6258722.96764
  19698952.2024  -15090081.34747 -11657497.61863
  20958659.6554  -17798745.07846 -13746666.38062
  22547164.694    -2150497.858 5  -1616783.76621
 93  4 26 18 46 59.9950000  0  7G18G28G11G19G27G 2G16
  20325030.241    -1062399.939 6   -793715.81122
  23392451.999    -1096096.322 2   -961816.99421
  21547352.8194  -14477943.62546 -11170865.36161
  19483813.8904   -8158685.69846  -6295230.08663
  19679058.1634  -15194614.24047 -11738951.80363
  20936110.265   -17917242.585 7 -13839002.05422
  22536024.2884   -2209036.63945  -1662398.40061
 93  4 26 18 47 29.9950000  0  7G18G28G11G19G27G 2G16
  20329438.124    -1039235.913 6   -775666.00822
  23396766.1554   -1073362.90242   -944102.73161
  21533066.624   -14553016.991 6 -11229364.07421
  19474940.757    -8205323.669 6  -6331571.38123
  19659194.655   -15298997.997 7 -11820289.78224
  20913615.890   -18035456.918 7 -13931117.06522
  22524976.0774   -2267086.78445  -1707632.31061
 93  4 26 18 47 59.9950000  0  7G18G28G11G19G27G 2G16
  20333919.8584   -1015686.39846   -757315.81162
  23401165.585    -1050269.921 1   -926108.29921
  21518894.6404  -14627496.09446 -11287399.72061
  19466110.1874   -8251722.33046  -6367726.19863
  19639365.5464  -15403203.89947 -11901489.16964
  20891169.913   -18153407.967 7 -14023026.92622
  22514027.1554   -2324634.90245  -1752475.02461
 93  4 26 18 48 29.9950000  0  6G18G11G19G27G 2G16
  20338471.710     -991774.351 7   -738683.13322
  21504832.5154  -14701386.32146 -11344976.50261
  19457325.1874   -8297892.27646  -6403702.79863
  19619567.4524  -15507238.56947 -11982555.12764
  20868768.460   -18271117.254 6 -14114748.40022
  22503173.7654   -2381673.05245  -1796920.34761
 93  4 26 18 48 59.9950000  0  6G18G11G19G27G 2G16
  20343088.9214    -967508.77846   -719774.97362
  21490886.648   -14774675.429 6 -11402084.87121
  19448587.218    -8343816.486 6  -6439487.92023
  19599809.1714  -15611074.51047 -12063466.23664
  20846419.819   -18388579.433 6 -14206277.31322
  22492421.554    -2438183.405 5  -1840954.41121
 93  4 26 18 49 29.9950000  0  6G18G11G19G27G 2G16
  20347773.702     -942891.068 6   -700592.43922
  21477052.296   -14847364.336 6 -11458725.55621
  19439896.0854   -8389496.55846  -6475082.80163
  19580089.038   -15714699.053 7 -12144212.60624
  20824108.765   -18505815.189 7 -14297629.81422
  22481762.710    -2494165.539 4  -1884576.88521
 93  4 26 18 49 59.9950000  0  6G18G11G19G27G 2G16
  20352523.7024    -917927.23446   -681140.19362
  21463335.116   -14919457.524 6 -11514902.03321
  19431244.0464   -8434965.96546  -6510513.52063
  19560406.5544  -15818125.09147 -12224804.30464
  20801847.476   -18622813.519 7 -14388797.30922
  22471217.1554   -2549618.65145  -1927787.12361
 93  4 26 18 50 29.9950000  0  6G18G11G19G27G 2G16
  20357339.593     -892613.230 6   -661415.08522
  21449729.562   -14990956.074 6 -11570615.16221
  19422625.2264   -8480245.78846  -6545796.51863
  19540761.085   -15921370.365 7 -12305255.14224
  20779632.679   -18739546.048 6 -14479757.67522
  22460761.405    -2604553.552 5  -1970593.53621
 93  4 26 18 50 59.9950000  0  6G18G11G19G27G 2G16
  20362226.0234    -866934.71146   -641405.93462
  21436236.8824  -15061858.08546 -11625863.45961
  19414046.4764   -8525332.90146  -6580929.35263
  19521152.593   -16024422.869 7 -12385555.77624
  20757471.288   -18855994.329 6 -14570496.54722
  22450400.3744   -2658992.60745  -2013013.61561
 93  4 26 18 51 29.9950000  0  6G18G11G19G27G 2G16
  20367183.648     -840888.716 6   -621110.44722
  21422857.7184  -15132158.80546 -11680643.21261
  19405503.6014   -8570226.86946  -6615911.68763
  19501574.366   -16127285.068 7 -12465708.11624
  20735371.452   -18972144.524 6 -14661003.14222
  22440136.593    -2712942.820 5  -2055052.76321
 93  4 26 18 51 59.9950000  0  6G18G11G19G27G 2G16
  20372205.054     -814495.281 6   -600544.22422
  21409594.2804  -15201866.42946 -11734960.82161
  19396995.9054   -8614934.95746  -6650749.18263
  19482036.960   -16229978.496 7 -12545728.94624
  20713324.710   -19087989.593 7 -14751271.97122
  22429960.9994   -2766408.09345  -2096714.03961
 93  4 26 18 52 29.9950000  0  6G18G11G19G27G 2G16
  20377293.187     -787769.647 6   -579719.15622
  21396440.616   -15270979.400 6 -11788815.05421
  19388529.608    -8659428.560 6  -6685419.54923
  19462524.2024  -16332505.32847 -12625619.96064
  20691337.2964  -19203538.49546 -14841310.06062
  22419877.8824   -2819389.22445  -2137998.04961
 93  4 26 18 52 59.9950000  0  6G18G11G19G27G 2G16
  20382437.632     -760721.764 6   -558642.99122
  21383403.2804  -15339497.72646 -11842205.92361
  19380105.640    -8703686.769 6  -6719906.48523
  19443047.1014  -16434863.81547 -12705379.80464
  20669400.015   -19318811.506 6 -14931133.14022
  22409886.905    -2871881.829 5  -2178901.42121
 93  4 26 18 53 29.9950000  0  6G18G11G19G27G 2G16
  20387649.3434    -733345.91346   -537311.23262
  21370479.8514  -15407410.59546 -11895125.02561
  19371732.3744   -8747697.54546  -6754200.62063
  19423600.0774  -16537049.83847 -12785005.25564
  20647520.4914  -19433797.59646 -15020732.63862
  22400003.2964   -2923855.45945  -2219400.36861
 93  4 26 18 53 59.9950000  0  6G18G11G19G27G 2G16
  20392920.773     -705641.309 6   -515723.30622
  21357669.5234  -15474720.42546 -11947574.22961
  19363400.9604   -8791457.64346  -6788299.40963
  19404188.6244  -16639060.78247 -12864494.28564
  20625693.702   -19548502.594 6 -15110113.10022
  22390206.9294   -2975312.84345  -2259497.09661
 93  4 26 18 54 29.9950000  0  6G18G11G19G27G 2G16
  20398257.819     -677596.506 6   -493870.31022
  21344976.0384  -15541428.40146 -11999554.44861
  19355123.5464   -8834970.22546  -6822205.33563
  19384814.2414  -16740883.48447 -12943836.63364
  20603913.382   -19662945.670 6 -15199289.47922
  22380511.374    -3026268.201 5  -2299202.59421
 93  4 26 18 54 59.9950000  0  6G18G11G19G27G 2G16
  20403661.343     -649194.515 6   -471738.99422
  21332399.5624  -15607528.17946 -12051060.74961
  19346886.4914   -8878250.14746  -6855929.96663
  19365478.9834  -16842488.70247 -13023009.51264
  20582187.257   -19777124.087 6 -15288259.63622
  22370910.6554   -3076726.83645  -2338521.04261
 93  4 26 18 55 29.9950000  0  6G18G11G19G27G 2G16
  20409134.538     -620439.015 6   -449332.21222
  21319936.726   -15673020.587 6 -12102093.77221
  19338692.046    -8921311.703 6  -6889484.44123
  19346184.9374  -16943873.86947 -13102010.92664
  20560509.671   -19891030.858 6 -15377018.12022
  22361400.741    -3126700.405 5  -2377461.52621
 93  4 26 18 55 59.9950000  0  6G18G11G19G27G 2G16
  20414672.4524    -591336.98646   -426655.41662
  21307589.1874  -15737903.75046 -12152652.05761
  19330541.3274   -8964151.88746  -6922866.41663
  19326931.8194  -17045047.69547 -13180847.66064
  20538884.9684  -20004672.96646 -15465570.35562
  22351977.882    -3176199.279 5  -2416032.11321
 93  4 26 18 56 29.9950000  0  6G18G11G19G27G 2G16
  20420275.069     -561901.964 6   -403719.13722
  21295360.296   -15802178.041 6 -12202735.89821
  19322432.3664   -9006767.79746  -6956073.63063
  19307719.9054  -17146011.09147 -13259520.42364
  20517311.163   -20118051.622 6 -15553917.31522
  22342652.890    -3225232.306 5  -2454239.69421
 93  4 26 18 56 59.9950000  0  6G18G11G19G27G 2G16
  20425934.890     -532151.999 6   -380537.45222
  21283240.023   -15865850.579 6 -12252350.83421
  19314363.2804   -9049164.33246  -6989109.90463
  19288544.4834  -17246771.90147 -13338035.32664
  20495788.905   -20231154.249 6 -15642049.19122
  22333406.749    -3273801.820 5  -2492086.11721
 93  4 26 18 57 29.9950000  0  6G18G11G19G27G 2G16
  20431657.366     -502090.895 6   -357113.31022
  21271238.2024  -15928924.32346 -12301499.17461
  19306336.9994   -9091336.53146  -7021971.37763
  19269404.1244  -17347356.79747 -13416413.15663
  20474315.2804  -20343978.89846 -15729964.44562
  22324257.0694   -3321896.95845  -2529562.88261
 93  4 26 18 57 59.9940000  0  6G18G11G19G27G 2G16
  20437435.307     -471710.081 6   -333440.06222
  21259353.174   -15991391.312 6 -12350174.72221
  19298358.6664   -9133271.01346  -7054647.60763
  19250297.8854  -17447753.78447 -13494644.56263
  20452900.455   -20456527.008 6 -15817664.23222
  22315195.2914   -3369502.78145  -2566658.36061
 93  4 26 18 58 29.9940000  0  6G18G11G19G27G 2G16
  20443282.6114    -440996.15946   -309507.22462
  21247581.7684  -16053252.40046 -12398378.13761
  19290422.018    -9174971.067 6  -7087141.17124
  19231235.5104  -17547936.03647 -13572708.63863
  20431536.947   -20568800.823 6 -15905150.27322
  22306231.416    -3416617.279 5  -2603371.00021
 93  4 26 18 58 59.9940000  0  6G18G11G19G27G 2G16
  20449191.385     -409946.735 6   -285312.97022
  21235922.6434  -16114511.40646 -12446112.41061
  19282531.0884   -9216449.33546  -7119461.91363
  19212211.1434  -17647904.20647 -13650605.90063
  20410220.111   -20680810.309 6 -15992430.35322
  22297361.6114   -3463231.56745  -2639693.85361
 93  4 26 18 59 29.9940000  0  6G18G11G19G27G 2G16
  20455158.9714    -378582.61946   -260873.51562
  21224379.2214  -16175171.39546 -12493379.90861
  19274678.2684   -9257705.41546  -7151609.52363
  19193225.9714  -17747678.65447 -13728352.21263
  20388953.213   -20792575.456 6 -16079520.03122
  22288586.1824   -3509354.08145  -2675633.50361
 93  4 26 18 59 59.9940000  0  7G18G28G11G19G27G 2G16
  20461185.588     -346911.961 6   -236195.18222
  23524437.9714         -0.12152
  21212951.861   -16235226.299 6 -12540175.90021
  19266872.416    -9298732.231 6  -7183578.47723
  19174282.2834  -17847232.55247 -13805926.67163
  20367732.565   -20904093.231 6 -16166416.95822
  22279896.400    -3554993.567 5  -2711196.78421
 93  4 26 19  0 29.9940000  0  7G18G28G11G19G27G 2G16
  20467269.783     -314940.314 6   -211282.31822
  23530269.2914      30618.12043        -0.31671
  21201639.5724  -16294669.93746 -12586495.60761
  19259110.1504   -9339521.66046  -7215362.46263
  19155379.9794  -17946565.08747 -13883328.63063
  20346559.971   -21015351.494 6 -16253111.65822
  22271305.268    -3600151.060 5  -2746384.47021
 93  4 26 19  0 59.9940000  0  7G18G28G11G19G27G 2G16
  20473407.291     -282684.413 6   -186147.95622
  23536142.1824      61482.24643     24049.57861
  21190441.393   -16353505.965 6 -12632341.82121
  19251392.8384   -9380077.86346  -7246964.70664
  19136510.9324  -18045713.51447 -13960587.13963
  20325435.197   -21126355.343 6 -16339608.13022
  22262802.5184   -3644838.03245  -2781205.51861
 93  4 26 19  1 29.9940000  0  7G18G28G11G19G27G 2G16
  20479599.588     -250151.651 6   -160797.85522
  23542064.393       92602.244 3     48298.85321
  21179360.5494  -16411738.78646 -12677718.02661
  19243718.0334   -9420406.24146  -7278389.42963
  19117676.3384  -18144688.13147 -14037710.19964
  20304363.354   -21237102.682 6 -16425904.71122
  22254385.080    -3689071.303 5  -2815673.06521
 93  4 26 19  1 59.9940000  0  6G18G11G19G27G 2G16
  20485845.697     -217321.048 6   -135215.66922
  21168396.6904  -16469362.29946 -12722619.45961
  19236091.5334   -9460504.45746  -7309634.80163
  19098880.9794  -18243466.93147 -14114680.68264
  20283338.510   -21347583.169 6 -16511993.36022
  22246054.877    -3732847.401 5  -2849784.33021
 93  4 26 19  2 29.9940000  0  6G18G11G19G27G 2G16
  20492150.963     -184194.553 6   -109402.92222
  21157545.7914  -16526380.22946 -12767048.98261
  19228501.9864   -9500374.53546  -7340702.39363
  19080114.9554  -18342072.98847 -14191516.56364
  20262365.143   -21457803.542 6 -16597879.32222
  22237808.416    -3776173.147 5  -2883544.69121
 93  4 26 19  2 59.9940000  0  6G18G11G19G27G 2G16
  20498512.791     -150761.213 6    -83351.07621
  21146811.1664  -16582786.05246 -12811001.55961
  19220957.6824   -9540023.24646  -7371597.49863
  19061388.0964  -18440497.04847 -14268210.62664
  20241436.822   -21567760.738 6 -16683560.22122
  22229651.408    -3819040.321 5  -2916947.72621
 93  4 26 19  3 29.9940000  0  6G18G11G19G27G 2G16
  20504933.8544    -117022.90146    -57061.58362
  21136196.1824  -16638577.60846 -12854475.47861
  19213454.6904   -9579441.41846  -7402312.96663
  19042695.7834  -18538717.45047 -14344745.99164
  20220566.674   -21677452.249 6 -16769034.08422
  22221582.5024   -3861445.88045  -2949991.03761
 93  4 26 19  3 59.9940000  0  6G18G11G19G27G 2G16
  20511405.955      -82997.725 6    -30548.57722
  21125695.127   -16693760.380 6 -12897475.02421
  19206000.2294   -9618624.60446  -7432845.32563
  19024045.1274  -18636732.61047 -14421121.42564
  20199740.627   -21786886.055 6 -16854307.14422
  22213602.025    -3903390.885 5  -2982675.53021
 93  4 26 19  4 29.9940000  0  6G18G11G19G27G 2G16
  20517938.3304     -48690.89446     -3816.09261
  21115311.135   -16748336.473 6 -12940001.82321
  19198586.6974   -9657580.70246  -7463200.74062
  19005432.6194  -18734544.13047 -14497338.18064
  20178967.971   -21896049.874 7 -16939369.81922
  22205707.9864   -3944867.89145  -3014995.31861
 93  4 26 19  4 59.9940000  0  6G18G11G19G27G 2G16
  20524517.6044     -14100.25946     23137.52361
  21105038.7364  -16802306.47146 -12982056.35961
  19191220.1504   -9696306.14346  -7493376.41763
  18986858.3934  -18832142.12047 -14573388.54864
  20158248.416   -22004939.496 7 -17024218.85822
  22197905.143    -3985864.781 4  -3046940.98521
 93  4 26 19  5 29.9940000  0  6G18G11G19G27G 2G16
  20531155.9554      20778.79346     50315.88761
  21094886.0654  -16855664.68946 -13023634.17661
  19183895.3774   -9734780.77546  -7523356.65863
  18968331.6354  -18929510.67847 -14649260.13964
  20137580.0254  -22113546.81047 -17108847.88963
  22190195.783    -4026383.548 4  -3078514.05221
 93  4 26 19  5 59.9940000  0  6G18G11G19G27G 2G16
  20537849.6434      55953.43146     77724.57561
  21084846.3934  -16908417.83646 -13064740.51361
  19176620.9164   -9773016.31646  -7553150.59463
  18949844.9244  -19026655.13647 -14724957.11164
  20116963.229   -22221880.146 7 -17193263.43422
  22182579.1664   -4066429.40444  -3109718.70861
 93  4 26 19  6 29.9940000  0  6G18G11G19G27G 2G16
  20544601.049       91435.560 6    105372.86421
  21074926.4554  -16960562.44246 -13105372.66061
  19169388.0964   -9811010.88246  -7582756.76163
  18931402.1044  -19123569.17347 -14800474.52664
  20096401.900   -22329946.641 7 -17277471.05622
  22175042.9084   -4106001.83743  -3140554.38261
 93  4 26 19  6 59.9940000  0  6G18G11G19G27G 2G16
  20551412.658      127221.485 6    133257.88521
  21065118.5724  -17012096.49346 -13145529.04861
  19162208.3154   -9848754.65346  -7612167.49063
  18913003.619   -19220246.518 7 -14875807.49924
  20075883.854   -22437762.747 6 -17361483.57223
  22167607.596    -4145118.358 3  -3171034.81321
 93  4 26 19  7 29.9940000  0  6G18G11G19G27G 2G16
  20558277.6824     163303.37146    161373.52361
  21055425.3384  -17063020.58446 -13185210.14561
  19155070.1824   -9886258.03746  -7641390.91463
  18894653.3544  -19316681.57747 -14950951.69563
  20055414.807   -22545328.012 7 -17445300.62722
  22160237.5884   -4183782.33942  -3201162.66261
 93  4 26 19  7 59.9940000  0  6G18G11G19G27G 2G16
  20565199.3074     199667.17446    189708.82661
  21045853.2134  -17113339.71346 -13224419.84961
  19147974.9244   -9923535.32046  -7670438.14563
  18876348.0804  -19412886.95047 -15025916.90563
  20034990.830   -22652646.556 6 -17528925.42223
  22152978.260    -4221986.413 3  -3230932.09921
 93  4 26 19  8 29.9940000  0  6G18G11G19G27G 2G16
  20572170.5494     236298.24646    218252.39161
  21036392.6354  -17163048.72946 -13263154.13461
  19140923.9164   -9960590.46146  -7699312.28963
  18858084.6194  -19508864.16347 -15100704.32463
  20014619.104   -22759708.513 6 -17612350.28522
  22145789.471    -4259725.189 2  -3260339.01721
 93  4 26 19  8 59.9940000  0  6G18G11G19G27G 2G16
  20579191.7214     273195.02546    247003.01061
  21027050.1904  -17212142.40746 -13301408.94261
  19133916.6824   -9997427.22546  -7728016.26763
  18839862.3464  -19604610.19947 -15175311.61363
  19994299.432   -22866500.468 7 -17695564.77123
  22138702.940    -4296994.799 2  -3289380.26421
 93  4 26 19  9 29.9940000  0  6G18G11G19G27G 2G16
  20586254.596      310332.585 6    275941.26021
  21017825.0724  -17260633.76046 -13339194.39761
  19126942.8384  -10034060.25046
  18821685.0184  -19700138.47847 -15249749.21864
  19974026.815   -22973027.433 7 -17778572.75723
  22131698.283    -4333791.964 2
 93  4 26 19  9 59.9940000  0  5G18G11G19G27G 2
  20593367.674      347705.440 6    305062.83821
  21008709.1194  -17308519.23646 -13376507.75961
  19120015.4474  -10070477.25046  -7784938.37863
  18803545.1044  -19795459.87247 -15324025.61564
  19953805.721   -23079289.127 7 -17861374.03923
 93  4 26 19 10 29.9940000  0  6G18G11G19G27G 2G16
  20600528.6434     385329.76946    334380.37061
  20999715.6824  -17355785.47446 -13413338.57961
  19113131.1824  -10106653.15846  -7813127.40863
  18785449.3854  -19890561.06747 -15398130.42564
  19933639.666   -23185267.141 7 -17943954.27123
  22117954.002          -0.99913
 93  4 26 19 10 59.9940000  0  6G18G11G19G27G 2G16
  20607734.361      423191.675 6    363883.05621
  20990836.0724  -17402445.49846 -13449697.03861
  19106290.5104  -10142585.20146  -7841126.40663
  18767392.4474  -19985439.54947 -15472061.69964
  19913519.885   -23290976.012 7 -18026324.77823
  22111207.0104     -35473.31543
 93  4 26 19 11 29.9930000  0  6G18G11G19G27G 2G16
  20614983.3644     461290.06146    393570.00061
  20982072.8104  -17448503.71546 -13485586.54661
  19099499.9974  -10178265.55546  -7868929.29563
  18749379.2714  -20080107.49947 -15545828.92264
  19893458.372   -23396413.554 7 -18108483.86223
  22104534.239      -70535.970 2        -0.36831
 93  4 26 19 11 59.9930000  0  6G18G11G19G27G 2G16
  20622282.1464     499653.51546    423463.47861
  20973422.317   -17493960.360 6 -13521007.28921
  19092760.6924  -10213692.26146  -7896534.53563
  18731405.4274  -20174559.51347 -15619427.88464
  19873444.685   -23501585.341 7 -18190435.85923
  22097931.8494    -105196.71742    -27008.83761
 93  4 26 19 12 29.9930000  0  6G18G11G19G27G 2G16
  20629633.505      538286.464 6    453566.96421
  20964888.8334  -17538812.38846 -13555956.91861
  19086069.0444  -10248859.80146  -7923937.82463
  18713477.2004  -20268768.12047 -15692837.18364
  19853483.317   -23606486.688 7 -18272177.12723
  22091417.9194    -139436.38043    -53689.12861
 93  4 26 19 12 59.9930000  0  6G18G11G19G27G 2G16
  20637036.067      577186.353 6    483878.45221
  20956468.7864  -17583053.57946 -13590430.56461
  19079424.9354  -10283763.83646  -7951135.78263
  18695595.7324  -20362733.56747 -15766057.01264
  19833575.1614  -23711114.43247 -18353705.20963
  22084986.997     -173235.811 2    -80026.42621
 93  4 26 19 13 29.9930000  0  6G18G11G19G27G 2G16
  20644490.5284     616353.29746    514398.02161
  20948165.6464  -17626685.76146 -13624429.65361
  19072833.2244  -10318410.29846  -7978133.04863
  18677760.2554  -20456468.85747 -15839097.49964
  19813716.021   -23815469.616 7 -18435020.90123
  22078644.5524    -206587.17142   -106014.51961
 93  4 26 19 13 59.9930000  0  6G18G11G19G27G 2G16
  20651992.5834     655760.67246    545104.92561
  20939978.0134  -17669712.42646 -13657956.91661
  19066289.9664  -10352814.40646  -8004941.46063
  18659966.1464  -20549967.10547 -15911953.26763
  19793906.349   -23919565.426 7 -18516134.46623
  22072370.8104                         -0.94452
 93  4 26 19 14 29.9930000  0  5G18G11G19G27G 2
  20659530.3254     695377.00846    575974.67261
  20931904.1614  -17712144.35246 -13691020.74761
  19059786.028   -10386990.276 6  -8031572.02823
  18642216.9824  -20643253.59247 -15984644.03564
  19774142.755   -24023414.327 7 -18597055.65423
 93  4 26 19 14 59.9930000  0  5G18G11G19G27G 2
  20667112.544      735216.062 6    607017.98321
  20923944.3494  -17753977.68746 -13723618.14361
  19053325.075   -10420943.736 6  -8058029.28924
  18624503.7474  -20736332.70347 -16057173.20264
  19754427.974   -24127015.799 7 -18677784.03623
 93  4 26 19 15 29.9930000  0  5G18G11G19G27G 2
  20674739.5444     775291.05146    638245.13061
  20916097.263   -17795209.590 6 -13755746.88521
  19046903.9894  -10454666.69346  -8084306.93663
  18606835.2864  -20829184.82547 -16129525.49463
  19734761.028   -24230372.374 7 -18758321.58623
 93  4 26 19 15 59.9930000  0  5G18G11G19G27G 2
  20682408.114      815605.361 6    669658.72921
  20908363.9504  -17835837.62646 -13787405.08761
  19040536.333   -10488146.359 6  -8110395.00724
  18589209.6854  -20921800.48347 -16201693.52764
  19715139.427   -24333483.110 7 -18838667.57223
 93  4 26 19 16 29.9930000  0  6G18G11G19G27G 2G16
  20690128.7784     856171.97646    701268.93461
  20900746.7394  -17875867.04546 -13818596.83661
  19034214.646   -10521365.260 6  -8136279.88823
  18571628.1384  -21014188.15847 -16273683.91064
  19695566.708   -24436345.670 7 -18918820.17623
  22042222.5134         -0.28353
 93  4 26 19 16 59.9930000  0  6G18G11G19G27G 2G16
  20697894.1694     896997.52546    733080.92261
  20893244.7944  -17915293.14746 -13849318.47161
  19027943.067   -10554312.670 6  -8161953.21323
  18554093.9504  -21106341.10047 -16345491.38564
  19676039.310   -24538957.807 7 -18998777.65223
  22036418.9354     -30489.58543        -0.27571
 93  4 26 19 17 29.9930000  0  6G18G11G19G27G 2G16
  20705711.3104     938068.79946    765084.38961
  20885855.9194  -17954112.49046 -13879567.31061
  19021727.7634  -10586987.11046  -8187413.82963
  18536601.9114  -21198255.90847 -16417113.29464
  19656560.825   -24641312.396 7 -19078534.43423
  22030692.450      -60563.833 4    -23434.78421
 93  4 26 19 17 59.9930000  0  6G18G11G19G27G 2G16
  20713574.9354     979378.39346    797273.54561
  20878586.3724  -17992333.03346 -13909349.54761
  19015553.817   -10619418.012 6  -8212684.68623
  18519156.8884  -21289936.83647 -16488552.95864
  19637130.216   -24743422.113 7 -19158100.39223
  22025053.4664     -90218.19744    -46542.12361
 93  4 26 19 18 29.9930000  0  6G18G11G19G27G 2G16
  20721481.3104    1020925.01646    829647.41361
  20871427.1854  -18029946.39746 -13938658.65961
  19009428.942   -10651623.074 6  -8237779.56223
  18501755.9664  -21381371.14247 -16559800.45464
  19617748.528   -24845287.423 7 -19237475.91923
  22019493.5674    -119428.09044    -69303.17761
 93  4 26 19 18 59.9930000  0  6G18G11G19G27G 2G16
  20729422.669     1062677.175 6    862181.41321
  20864381.7394  -18066966.15446 -13967505.23261
  19003333.442   -10683634.870 6  -8262723.83523
  18484405.6144  -21472549.27347 -16630848.32664
  19598406.380   -24946927.493 7 -19316675.93123
  22014018.607     -148202.465 4    -91724.78121
 93  4 26 19 19 29.9930000  0  6G18G11G19G27G 2G16
  20737410.427     1104632.871 6    894874.01121
  20857451.1854  -18103391.50046 -13995888.61661
  18997282.528   -10715443.212 6  -8287509.57923
  18467109.3644  -21563452.72547 -16701682.16564
  19579106.942   -25048335.428 7 -19395695.06223
  22008627.8644    -176537.43145   -113804.02861
 93  4 26 19 19 59.9930000  0  6G18G11G19G27G 2G16
  20745432.3804    1146792.11046    927725.22461
  20850634.1854  -18139215.80246 -14023803.64961
  18991271.7004  -10747021.31746  -8312115.91263
  18449864.8574  -21654069.27747 -16772292.44864
  19559856.310   -25149497.803 7 -19474522.84423
  22003317.200     -204436.185 5   -135543.38621
 93  4 26 19 20 29.9930000  0  6G18G11G19G27G 2G16
  20753487.911     1189133.739 6    960718.56921
  20843932.3964  -18174445.39246 -14051255.28261
  18985309.2554  -10778349.44246  -8336527.45063
  18432671.7324  -21744414.51647 -16842691.32264
  19540654.2944  -25250401.36747 -19553148.96563
  21998086.849     -231935.400 4   -156971.40721
 93  4 26 19 20 59.9930000  0  6G18G11G19G27G 2G16
  20761586.067     1231668.401 6    993862.30521
  20837338.3884  -18209078.00546 -14078241.73761
  18979401.4824  -10809401.14446  -8360723.59363
  18415530.0214  -21834496.51547 -16912885.07064
  19521508.2714  -25351024.55247 -19631556.59563
  21992929.552     -259055.689 5   -178104.15921
 93  4 26 19 21 29.9930000  0  6G18G11G19G27G 2G16
  20769717.7714    1274406.32046   1027164.43261
  20830861.9894  -18243117.33246 -14104765.88761
  18973545.396   -10840179.862 6  -8384707.03523
  18398433.9274  -21924337.37547 -16982890.92564
  19502413.255   -25451359.120 7 -19709739.33823
  21987829.3494    -285812.92444   -198954.00861
 93  4 26 19 21 59.9930000  0  6G18G11G19G27G 2G16
  20777889.716     1317353.060 6   1060629.26121
  20824498.3574  -18276566.56446 -14130830.23861
  18967736.997   -10870697.720 6  -8408487.20423
  18381382.3574  -22013947.79347 -17052717.21364
  19483376.052   -25551409.502 7 -19787700.62423
  21982804.5524    -312221.47444   -219532.14861
 93  4 26 19 22 29.9930000  0  6G18G11G19G27G 2G16
  20786107.028     1360534.790 6   1094277.21321
  20818249.3174  -18309408.86246 -14156421.64561
  18961979.067   -10900942.908 6  -8432054.90923
  18364378.2164  -22103304.32447 -17122345.66764
  19464387.833   -25651174.966 7 -19865439.90723
  21977852.880     -338258.193 5   -239820.59421
 93  4 26 19 22 59.9930000  0  6G18G11G19G27G 2G16
  20794367.0604    1403940.26446   1128099.50861
  20812108.3494  -18341660.17946 -14181552.54261
  18956273.482   -10930940.064 6  -8455429.35023
  18347422.6614  -22192406.92847 -17191776.25864
  19445453.700   -25750688.284 7 -19942982.71123
  21972969.177     -363915.979 4   -259813.67921
 93  4 26 19 23 29.9930000  0  6G18G11G19G27G 2G16
  20802669.435     1447562.411 6   1162090.63921
  20806086.372   -18373320.826 6 -14206223.19521
  18950612.442   -10960686.350 6  -8478608.30123
  18330516.6074  -22281237.07947 -17260994.54664
  19426561.458   -25849970.891 7 -20020345.73923
  21968159.942     -389178.693 4   -279498.99221
 93  4 26 19 23 59.9930000  0  6G18G11G19G27G 2G16
  20811006.138     1491388.515 6   1196240.69321
  20800171.466   -18404386.296 6 -14230430.07621
  18945001.661   -10990167.779 6  -8501580.87323
  18313665.5444  -22369785.64247 -17329993.42564
  19407710.060   -25949038.399 7 -20097541.16023
  21963432.9894    -414029.70144   -298863.48961
 93  4 26 19 24 29.9920000  0  6G18G11G19G27G 2G16
  20819381.352     1535395.785 6   1230531.92821
  20794373.4224  -18434864.80846 -14254179.57261
  18939441.992   -11019395.652 6  -8524355.86623
  18296871.1804  -22458056.27447 -17398775.72164
  19388898.8994  -26047889.33147 -20174567.81063
  21958784.2814    -438461.65343   -317901.40661
 93  4 26 19 24 59.9920000  0  6G18G11G19G27G 2G16
  20827794.672     1579593.416 6   1264971.48121
  20788690.4304  -18464746.44846 -14277463.98561
  18933928.344   -11048369.277 6  -8546932.74824
  18280124.5394  -22546058.30347 -17467348.71264
  19370133.766   -26146497.173 7 -20251405.05323
  21954219.383     -462467.359 3   -336607.23321
 93  4 26 19 25 29.9920000  0  6G18G11G19G27G 2G16
  20836239.625     1623979.186 6   1299557.61921
  20783112.9534  -18494027.49546 -14300280.40361
  18928465.172   -11077079.192 6  -8569304.13824
  18263427.3994  -22633804.28547 -17535722.19364
  19351417.086   -26244846.149 7 -20328040.57923
  21949723.617     -486060.758 3   -354991.78521
 93  4 26 19 25 59.9920000  0  6G18G11G19G27G 2G16
  20844718.6644    1668545.10246   1334284.17161
  20777657.484   -18522710.767 6
  18923047.555   -11105541.952 6
  18246777.6804  -22721303.51047 -17603903.40464
  19332753.6884  -26342920.04347 -20404461.74063
  21945313.781     -509262.869 3   -373071.42421
 93  4 26 19 26 29.9920000  0  6G18G11G19G27G 2G16
  20853236.719     1713293.339 6   1369152.74221
  20772312.953   -18550802.384 6 -14344520.61921
  18917681.1094  -11133758.89846  -8613470.18264
  18230173.8994  -22808554.43547 -17671891.12764
  19314147.492   -26440705.217 7 -20480657.94823
  21940968.5704    -532091.02043   -390859.66761
 93  4 26 19 26 59.9920000  0  6G18G11G19G27G 2G16
  20861784.633     1758216.507 6   1404157.64321
  20767076.2114  -18578307.32146 -14365953.06361
  18912361.086   -11161721.169 6  -8635258.99724
  18213615.6414  -22895565.37647 -17739691.85664
  19295591.024   -26538221.876 7 -20556644.91623
  21936690.883     -554562.780 3   -408370.19421
 93  4 26 19 27 29.9920000  0  6G18G11G19G27G 2G16
  20870368.1254    1803316.78146   1439300.52761
  20761956.9064  -18605222.62146 -14386926.03661
  18907089.563   -11189418.022 6  -8656840.97924
  18197106.5244  -22982307.34947 -17807283.00164
  19277085.359   -26635478.913 7 -20632429.57823
  21932485.852     -576669.627 3   -425596.37021
 93  4 26 19 27 59.9920000  0  6G18G11G19G27G 2G16
  20878980.063     1848586.192 6   1474575.20921
  20756945.336   -18631557.265 6 -14407446.56621
  18901864.813   -11216862.718 6  -8678226.48324
  18180655.0784  -23068773.98947 -17874659.59864
  19258625.211   -26732485.235 7 -20708018.87723
  21928348.1494    -598406.86843   -442534.54161
 93  4 26 19 28 29.9920000  0  6G18G11G19G27G 2G16
  20887630.7584    1894033.90746   1509988.84261
  20752045.484   -18657311.420 6 -14427514.75221
  18896693.844   -11244038.245 6  -8699402.24624
  18164253.7034  -23154964.92947 -17941821.36164
  19240212.141   -26829243.028 7 -20783414.52123
  21924290.0084    -619764.42343   -459176.88761
 93  4 26 19 28 59.9920000  0  6G18G11G19G27G 2G16
  20896312.313     1939661.234 5   1545542.42621
  20747252.1564  -18682485.52446 -14447130.95161
  18891571.141   -11270948.246 6  -8720371.10524
  18147906.5784  -23240877.84847 -18008766.49064
  19221843.352   -26925760.827 7 -20858623.15623
  21920291.680     -640734.930 3   -475517.64121
 93  4 26 19 29 29.9920000  0  6G18G11G19G27G 2G16
  20905027.4534    1985464.39845   1581233.01261
  20742572.7744  -18707086.27846 -14466300.38061
  18886499.9924  -11297610.01046  -8741146.50664
  18131610.1024  -23326510.61947 -18075493.32263
  19203521.570   -27022036.280 7 -20933642.95123
  21916375.586     -661329.762 3   -491565.62521
 93  4 26 19 29 59.9920000  0  6G18G11G19G27G 2G16
  20913779.336     2031440.226 6   1617058.15221
  20738001.6884  -18731110.14646 -14485020.29661
  18881477.8674  -11324016.56046  -8761723.05964
  18115367.4224  -23411868.89247 -18142006.25363
  19185248.680   -27118061.764 7 -21008467.96423
  21912524.6564    -681564.97743   -507333.40861
 93  4 26 19 30 29.9920000  0  7G18G15G11G19G27G 2G16
  20922558.399     2077577.016 6   1653008.70221
  22945691.3594         -0.00353
  20733538.8914  -18754563.51846 -14503295.66261
  18876496.984   -11350174.246 6  -8782105.68823
  18099176.6254  -23496947.57847 -18208301.33164
  19167019.383   -27213855.375 7 -21083112.29423
  21908735.094     -701465.199 3   -522840.16221
 93  4 26 19 30 59.9920000  0  7G18G15G11G19G27G 2G16
  20931367.1724    2123868.70846   1689079.95061
  22921559.7894    -126809.95942
  20729181.8524  -18777442.48746 -14521123.44061
  18871565.4844  -11376096.33446  -8802304.73864
  18083041.4454  -23581736.30247 -18274370.46164
  19148833.6644  -27309422.17947 -21157579.91263
  21905011.836     -721040.385 3   -538093.63721
 93  4 26 19 31 29.9920000  0  7G18G15G11G19G27G 2G16
  20940204.031     2170314.886 5   1725271.58121
  22897446.1334    -253530.26042
  20724939.3204  -18799747.38646 -14538503.90161
  18866674.7344  -11401784.48446  -8822321.50063
  18066963.3594  -23666235.17047 -18340213.72663
  19130692.992   -27404750.472 7 -21231861.66423
  21901349.758     -740298.930 3   -553100.38121
 93  4 26 19 31 59.9920000  0  7G18G15G11G19G27G 2G16
  20949071.0084    2216916.26946   1761584.14561
  22873345.4844    -380161.51942
  20720804.414   -18821482.961 6 -14555440.73521
  18861835.3134  -11427233.10346  -8842151.60263
  18050938.0944  -23750448.16147 -18405834.22963
  19112597.609   -27499841.690 7 -21305958.68023
  21897743.609     -759230.993 3   -567852.67721
 93  4 26 19 32 29.9920000  0  7G18G15G11G19G27G 2G16
  20957972.688     2263684.431 6   1798026.66821
  22849267.3444    -506702.19242
  20716775.6884  -18842652.05046 -14571936.14561
  18857035.453   -11452438.553 6  -8861792.23824
  18034967.5314  -23834372.52747 -18471229.83163
  19094547.258   -27594701.144 7 -21379875.09723
  21894203.1644    -777826.35943   -582342.69561
 93  4 26 19 32 59.9920000  0  7G18G15G11G19G27G 2G16
  20966905.274     2310627.298 5   1834605.33021
  22825204.8204    -633144.17342        -0.43171
  20712854.6254  -18863251.22546 -14587987.46561
  18852290.5554  -11477384.12146  -8881230.35663
  18019050.0704  -23918014.42147 -18536405.31863
  19076544.695   -27689307.702 7 -21453594.46523
  21890731.7504    -796064.35843   -596554.19861
 93  4 26 19 33 29.9920000  0  7G18G15G11G19G27G 2G16
  20975871.0164    2357736.60145   1871313.66961
  22801169.6564    -759480.60644    -98444.21761
  20709044.4064  -18883277.76646 -14603592.56761
  18847595.2894  -11502050.88146  -8900451.22864
  18003185.5704  -24001377.67747 -18601363.68663
  19058593.711   -27783645.993 7 -21527104.78523
  21887332.7274    -813931.76543   -610476.95461
 93  4 26 19 33 59.9920000  0  7G18G15G11G19G27G 2G16
  20984858.188     2404985.211 5   1908130.55121
  22777144.961     -885716.456 5   -196809.62121
  20705341.0784  -18902741.11546 -14618758.83161
  18842956.1254  -11526433.33046  -8919450.55364
  17987372.8524  -24084471.90047 -18666112.42064
  19040689.781   -27877737.154 7 -21600422.52823
  21884002.781     -831444.456 3   -624123.29521
 93  4 26 19 34 29.9920000  0  7G18G15G11G19G27G 2G16
  20993875.211     2452362.766 5   1945047.90421
  22753144.3914   -1011841.22245   -295088.55561
  20701745.4774  -18921635.41546 -14633481.67661
  18838373.227   -11550519.643 6  -8938219.13024
  17971612.8594  -24167293.80847 -18730648.96464
  19022833.1564  -27971571.97747 -21673540.54663
  21880738.328     -848610.686 3   -637499.67921
 93  4 26 19 34 59.9920000  0  7G18G15G11G19G27G 2G16
  21002913.750     2499840.097 5   1982043.00221
  22729164.0314   -1137859.60545   -393284.50961
  20698254.0554  -18939969.72646 -14647768.17261
  18833842.164   -11574323.632 6  -8956767.72224
  17955900.0084  -24249868.93947 -18794993.20364
  19005022.953   -28065154.512 7 -21746461.96723
  21877533.6254    -865441.24443   -650614.48261
 93  4 26 19 35 29.9920000  0  7G18G15G11G19G27G 2G16
  21011966.6884    2547412.61145   2019112.28461
  22705200.8524   -1263771.18144   -491397.26761
  20694872.328   -18957748.312 6 -14661621.65021
  18829364.969   -11597857.595 6  -8975105.91223
  17940233.9694  -24332201.75947 -18859148.63764
  18987259.789   -28158497.178 7 -21819196.47023
  21874389.266     -881957.965 3   -663484.74021
 93  4 26 19 35 59.9920000  0  7G18G15G11G19G27G 2G16
  21021039.156     2595098.758 5   2056270.12021
  22681263.367    -1389569.717 4   -589421.86521
  20691596.875   -18974969.110 6 -14675040.49821
  18824936.617   -11621121.604 6  -8993233.73823
  17924614.3444  -24414277.85747 -18923104.02864
  18969542.602   -28251609.610 7 -21891751.57523
  21871304.719     -898162.589 3   -676111.82021
 93  4 26 19 36 29.9920000  0  7G18G15G11G19G27G 2G16
  21030139.4384    2642910.03745   2093525.44161
  22657344.797    -1515247.949 3   -687352.77421
  20688424.891   -18991629.885 6 -14688022.95921
  18820560.031   -11644129.075 6  -9011161.67423
  17909047.2504  -24496084.65547 -18986849.57564
  18951869.7424  -28344482.57347 -21964120.08763
  21868286.8674    -914046.38243   -688488.92561
 93  4 26 19 36 59.9920000  0  7G18G15G11G19G27G 2G16
  21039262.180     2690858.182 5   2130887.39521
  22633455.6724   -1640799.74842   -785185.03061
  20685360.8834  -19007728.66646 -14700567.48861
  18816227.742   -11666888.043 6  -9028895.96323
  17893532.9534  -24577604.17647 -19050371.27364
  18934241.688   -28437121.829 7 -22036306.47923
  21865324.672     -929605.618 3   -700613.09921
 93  4 26 19 37 29.9920000  0  7G18G15G11G19G27G 2G16
  21048415.961     2738956.428 5   2168366.31521
  22609590.539    -1766228.708 2   -882921.61721
  20682403.891   -19023274.432 6
  18811943.219   -11689403.262 6  -9046440.32623
  17878080.7194  -24658810.49347 -19113648.91164
  18916656.781   -28529535.260 7 -22108316.91723
  21862424.0554    -944852.66243
 93  4 26 19 37 59.9910000  0  6G18G11G19G27G 2G16
  21057595.706     2787194.984 5   2205954.56721
  20679552.316   -19038268.935 6
  18807708.472   -11711662.929 6  -9063785.55023
  17862692.2144  -24739680.85347 -19176664.76864
  18899112.612   -28621719.853 7 -22180149.03023
  21859582.4094    -959776.88243
 93  4 26 19 38 29.9910000  0  6G18G11G19G27G 2G16
  21066801.870     2835573.720 5   2243652.04321
  20676804.597   -19052713.759 6 -14735620.92721
  18803519.503   -11733668.574 6  -9080932.84323
  17847365.2224  -24820220.63647 -19239423.04064
  18881614.675   -28713681.113 7 -22251807.12923
  21856802.323     -974385.129 2   -735506.51421
 93  4 26 19 38 59.9910000  0  6G18G11G19G27G 2G16
  21076036.816     2884096.121 5   2281461.46821
  20674158.4874  -19066614.10546 -14746452.39261
  18799383.761   -11755413.066 6  -9097876.64323
  17832103.4804  -24900433.39947 -19301926.48764
  18864153.800   -28805425.790 7 -22323296.44223
  21854085.1594    -988686.20743   -746650.31561
 93  4 26 19 39 29.9910000  0  7G18G15G11G19G27G 2G16
  21085293.4414    2932746.47445   2319370.59461
  22514353.917          -0.10212
  20671613.7764  -19079972.57746 -14756861.63461
  18795296.901   -11776896.552 6  -9114617.05423
  17816895.1984  -24980334.83047 -19364187.34164
  18846738.5194  -28896956.14947 -22394618.77463
  21851417.6674   -1002683.37943   -757557.29961
 93  4 26 19 39 59.9910000  0  7G18G15G11G19G27G 2G16
  21094570.042     2981499.431 5   2357359.66021
  22490609.0194    -124783.09543
  20669175.7144  -19092788.68446 -14766848.25061
  18791258.073   -11798119.057 6  -9131154.10323
  17801750.0664  -25059938.31647 -19426216.03464
  18829361.956   -28988269.073 7 -22465771.66823
  21848817.003    -1016377.611 3   -768228.24721
 93  4 26 19 40 29.9910000  0  7G18G15G11G19G27G 2G16
  21103871.566     3030359.389 5   2395432.08221
  22466892.0894    -249425.71244        -0.26171
  20666839.659   -19105061.952 6 -14776411.89621
  18787266.542   -11819089.328 6  -9147494.61223
  17786654.0974  -25139258.41947 -19488023.89963
  18812026.878   -29079362.049 7 -22536753.18223
  21846261.3864   -1029773.55343   -778666.70461
 93  4 26 19 40 59.9910000  0  7G18G15G11G19G27G 2G16
  21113188.2454    3079333.34345   2433593.37461
  22443204.4484    -373915.87444    -97005.33161
  20664608.534   -19116785.032 6 -14785546.79221
  18783325.816   -11839798.167 6  -9163631.40823
  17771615.0034  -25218284.57247 -19549602.71763
  18794741.245   -29170207.868 7 -22607542.10523
  21843777.151    -1042858.016 3   -788862.56421
 93  4 26 19 41 29.9910000  0  7G18G15G11G19G27G 2G16
  21122525.8164    3128402.61445   2471828.92061
  22419539.6514    -498258.22944   -193895.19361
  20662482.214   -19127967.078 6 -14794260.11121
  18779432.730   -11860256.260 6  -9179572.81323
  17756635.3004  -25297017.25247 -19610952.85863
  18777497.355   -29260810.040 7 -22678141.16623
  21841338.4874   -1055649.11443   -798829.71161
 93  4 26 19 41 59.9910000  0  7G18G15G11G19G27G 2G16
  21131882.495     3177582.809 5   2510150.89421
  22395905.2304    -622450.94144   -290668.42961
  20660456.7064  -19138611.15646 -14802554.24961
  18775591.784   -11880457.131 6  -9195313.79224
  17741709.7694  -25375447.98647 -19672067.71663
  18760303.050   -29351167.354 7 -22748549.42623
  21838960.5264   -1068150.90343   -808571.50661
 93  4 26 19 42 29.9910000  0  7G18G15G11G19G27G 2G16
  21141267.722     3226891.512 5   2548572.99021
  22372302.6514    -746480.77345   -387314.78161
  20658535.651   -19148708.717 6 -14810422.51821
  18771794.433   -11900392.912 6  -9210848.19824
  17726845.0974  -25453562.69147 -19732936.31663
  18743158.0664  -29441274.06747 -22818762.43363
  21836637.5734   -1080353.23542   -818079.93861
 93  4 26 19 42 59.9910000  0  7G18G15G11G19G27G 2G16
  21150671.292     3276303.120 5   2587075.28921
  22348734.5114    -870351.34944   -483837.08861
  20656714.745   -19158268.546 6 -14817871.78821
  18768053.144   -11920063.218 6  -9226175.74223
  17712039.1444  -25531359.64747 -19793557.32363
  18726054.245   -29531147.595 7 -22888793.72023
  21834376.3314   -1092268.78443
 93  4 26 19 43 29.9910000  0  7G18G15G11G19G27G 2G16
  21160086.2064    3325794.10845   2625639.43261
  22325192.526     -994063.832 4   -580236.14321
  20654995.550   -19167296.591 6 -14824906.67921
  18764360.370   -11939467.386 6  -9241295.90923
  17697295.8704  -25608840.73447 -19853932.18563
  18708992.5344  -29620822.30047 -22958670.08463
  21832159.2064   -1103895.41443
 93  4 26 19 43 59.9910000  0  7G18G15G11G19G27G 2G16
  21169518.323     3375349.826 5   2664254.02121
  22301677.9334   -1117616.85243   -676510.90961
  20653380.089   -19175796.116 6 -14831529.73021
  18760716.448   -11958606.074 6  -9256209.21023
  17682608.7924  -25686009.80647 -19914063.92263
  18691966.987   -29710292.921 7 -23028387.42423
  21830009.526    -1115212.734 2        -0.48531
 93  4 26 19 44 29.9910000  0  7G18G15G11G19G27G 2G16
  21178959.8554    3424959.87045   2702910.92661
  22278196.433    -1241002.630 3   -772655.38021
  20651863.901   -19183764.514 6 -14837738.91921
  18757130.503   -11977469.231 6  -9270907.82723
  17667987.1364  -25762853.13247 -19973941.83564
  18674982.144   -29799547.688 7 -23097936.57023
  21827908.5114   -1126219.23242     -8577.12261
 93  4 26 19 44 59.9910000  0  7G18G15G11G19G27G 2G16
  21188413.237     3474627.037 5   2741612.32521
  22254751.1514   -1364220.07542   -868668.65961
  20650446.511   -19191205.596 6 -14843537.20921
  18753591.870   -11996051.994 6  -9285387.93023
  17653425.1914  -25839371.83447 -20033566.79464
  18658039.120   -29888572.487 7 -23167306.52323
  21825876.0344   -1136916.25742    -16912.57461
 93  4 26 19 45 29.9910000  0  7G18G15G11G19G27G 2G16
  21197878.9254    3524370.38745   2780373.07961
  22231336.355    -1487261.797 3   -964545.02621
  20649132.581   -19198117.002 6 -14848922.76621
  18750107.112   -12014353.339 6  -9299648.74823
  17638928.9094  -25915565.68347 -20092938.61864
  18641149.1984  -29977332.35147 -23236470.02663
  21823897.4954   -1147309.88142    -25011.59461
 93  4 26 19 45 59.9910000  0  6G18G15G11G19G27G 2
  21207360.7534    3574206.37945   2819206.02461
  22207957.191    -1610126.362 4  -1060283.39321
  20647916.956   -19204502.320 6 -14853898.38721
  18746678.323   -12032370.480 6  -9313688.12923
  17624492.5034  -25991435.51147 -20152057.95764
  18624312.878   -30065801.705 7 -23305407.15823
 93  4 26 19 46 29.9910000  0  7G18G15G11G26G19G27G 2
  21216865.3084    3624141.47345   2858116.19661
  22184612.1754   -1732814.33944  -1155884.12561
  20646802.980   -19210367.011 6 -14858468.33521
  22216186.8554         -0.09552
  18743307.6284  -12050095.31646  -9327499.71063
  17610113.6124  -26066993.99647 -20210934.68764
  18607530.8234  -30153993.80347 -23374128.24963
 93  4 26 19 46 59.9910000  0  7G18G15G11G26G19G27G 2
  21226387.3704    3674182.50345   2897108.91261
  22161296.370    -1855321.308 5  -1251343.84121
  20645786.3394  -19215711.64346 -14862633.03561
  22186993.3474    -153412.76642
  18739985.097   -12067545.554 6  -9341097.33123
  17595789.9874  -26142249.40047 -20269575.25764
  18590799.1444  -30241921.92547 -23442643.64663
 93  4 26 19 47 29.9910000  0  7G18G15G11G26G19G27G 2
  21235921.847     3724309.795 5   2936168.84321
  22138017.1754   -1977649.82345  -1346664.53661
  20644867.3474  -19220543.75446 -14866398.35861
  22157838.6514    -306656.42641
  18736716.175   -12084724.957 6  -9354483.92123
  17581527.1984  -26217208.15147 -20327984.67664
  18574111.737   -30329620.447 7 -23510980.13623
 93  4 26 19 47 59.9910000  0  6G18G15G11G19G27G 2
  21245477.480     3774515.713 5   2975290.03921
  22114774.6284   -2099799.11145  -1441845.59761
  20644042.737   -19224867.782 6 -14869767.77221
  18733498.612   -12101638.639 6  -9367663.45423
  17567321.8234  -26291865.28547 -20386159.06564
  18557456.9564  -30417128.55847 -23579168.24663
 93  4 26 19 48 29.9910000  0  6G18G15G11G19G27G 2
  21255046.8704    3824797.18945   3014470.08461
  22091565.816    -2221760.708 5  -1536880.46221
  20643317.5504  -19228680.06246 -14872738.44961
  18730329.4174  -12118294.23646  -9380641.88063
  17553170.6514  -26366218.44947 -20444096.59064
  18540840.737   -30504465.061 7 -23647222.65423
 93  4 26 19 48 59.9910000  0  6G18G15G11G19G27G 2
  21264634.144     3875160.986 5   3053714.31321
  22068393.151    -2343520.879 5  -1631758.27321
  20642689.886   -19231971.991 6 -14875303.63621
  18727206.730   -12134693.352 6  -9393420.44423
  17539086.9334  -26440241.67947 -20501777.02964
  18524252.8394  -30591621.03447 -23715136.37463
 93  4 26 19 49 29.9910000  0  6G18G15G11G19G27G 2
  21274232.9484    3925594.58745   3093012.90761
  22045260.3084   -2465082.96344  -1726481.75861
  20642159.9954  -19234751.93146 -14877469.87361
  18724137.206   -12150825.614 6  -9405991.08323
  17525063.3784  -26513932.56547 -20559198.49564
  18507703.7454  -30678595.38747 -23782908.57963
 93  4 26 19 49 59.9910000  0  6G18G15G11G19G27G 2
  21283842.2614    3976097.63745   3132365.59361
  22022164.4094   -2586449.83044  -1821053.17661
  20641728.112   -19237027.755 6 -14879243.28521
  18721116.972   -12166703.666 6  -9418363.63523
  17511102.8474  -26587291.67247 -20616361.43464
  18491190.8944  -30765372.50347 -23850527.08363
 93  4 26 19 50 29.9910000  0  6G18G15G11G19G27G 2
  21293466.284     4026672.262 5   3171774.02421
  21999109.714    -2707609.015 4  -1915462.72421
  20641392.339   -19238792.434 6 -14880618.42321
  18718145.4414  -12182319.73546  -9430532.04563
  17497209.9334  -26660310.17947 -20673258.97264
  18474719.526   -30851913.292 7 -23917961.44323
 93  4 26 19 50 59.9900000  0  6G18G15G11G19G27G 2
  21303099.1864    4077299.95445   3211223.85861
  21976095.2954   -2828559.90143  -2009709.96361
  20641155.6234  -19240054.59146 -14881601.98361
  18715222.6544  -12197675.15046  -9442497.35363
  17483380.6234  -26732985.38147 -20729888.99864
  18458301.6314  -30938197.11947 -23985195.57563
 93  4 26 19 51 29.9900000  0  6G18G15G11G19G27G 2
  21312741.029     4127973.099 5   3250709.08621
  21953112.076    -2949302.947 2
  20641009.912   -19240811.333 6 -14882191.69521
  18712353.8034  -12212763.73546  -9454254.75363
  17469612.7484  -26805325.35747 -20786257.81264
  18441932.7174  -31024213.79247 -24052221.52963
 93  4 26 19 51 59.9900000  0  5G18G11G19G27G 2
  21322394.2014    4178681.09145   3290221.45161
  20640960.9904  -19241063.96846
  18709533.3424  -12227595.17246  -9465811.76763
  17455910.3734  -26877338.43447 -20842371.90364
  18425616.0924  -31109961.67747 -24119038.05063
 93  4 26 19 52 29.9900000  0  6G18G15G11G19G27G 2
  21332047.6864    4229414.40845   3329753.56061
  21907286.0534         -0.59154
  20641007.3894  -19240821.50646
  18706758.1544  -12242167.93146  -9477167.21663
  17442263.7794  -26949040.37847 -20898243.54564
  18409348.568   -31195452.227 7 -24185654.03523
 93  4 26 19 52 59.9900000  0  6G18G15G11G19G27G 2
  21341709.365     4280180.283 5   3369311.01621
  21884426.811     -120091.171 3        -0.47231
  20641150.7094  -19240076.85746 -14881619.55261
  18704036.5374  -12256459.71546  -9488303.72963
  17428678.9514  -27020432.78247 -20953873.98464
  18393126.1624  -31280700.21247 -24252081.01663
 93  4 26 19 53 29.9900000  0  6G18G15G11G19G27G 2
  21351376.8814    4330985.92345   3408899.46761
  21861623.522     -239956.565 4    -93401.87821
  20641383.8894  -19238834.50046 -14880651.54461
  18701372.4594  -12270467.50246  -9499218.94763
  17415151.9754  -27091518.01147 -21009265.07664
  18376945.154   -31365726.354 7 -24318335.13323
 93  4 26 19 53 59.9900000  0  6G18G15G11G19G27G 2
  21361054.4044    4381843.68345   3448528.50761
  21838854.029     -359600.731 5   -186630.90321
  20641712.5614  -19237103.81546 -14879302.99761
  18698761.2324  -12284193.53746  -9509914.61963
  17401684.6784  -27162293.67447 -21064414.94264
  18360804.8264  -31450542.67447 -24384425.75563
 93  4 26 19 54 29.9900000  0  6G18G15G11G19G27G 2
  21370745.7644    4432769.22745   3488210.38561
  21816133.732     -479019.788 5   -279684.53121
  20642135.686   -19234886.091 6 -14877574.94521
  18696206.326   -12297622.802 6  -9520379.03923
  17388278.6544  -27232738.62147 -21119307.11064
  18344703.2564  -31535158.73047 -24450360.31463
 93  4 26 19 54 59.9900000  0  6G18G15G11G19G27G 2
  21380450.787     4483758.953 4   3527942.23621
  21793450.920     -598212.544 5   -372561.83821
  20642650.795   -19232185.145 6 -14875470.37521
  18693706.2954  -12310758.12646  -9530614.42763
  17374939.1234  -27302828.54947 -21173922.63864
  18328638.4514  -31619597.52847 -24516156.76663
 93  4 26 19 55 29.9900000  0  6G18G15G11G19G27G 2
  21390164.881     4534816.800 4   3567727.16321
  21770813.3974    -717173.60745   -465258.56061
  20643254.967   -19229000.813 6 -14872989.13221
  18691258.881   -12323612.813 6  -9540631.12123
  17361677.4674  -27372532.53647 -21228237.43664
  18312601.5614  -31703852.70847 -24581810.13263
 93  4 26 19 55 59.9900000  0  6G18G15G11G19G27G 2
  21399893.1624    4585930.13644   3607555.34861
  21748218.193     -835906.960 5   -557777.91421
  20643952.6154  -19225342.18946 -14870138.30561
  18688866.1394  -12336192.74946  -9550433.72363
  17348482.0684  -27441860.73947 -21282259.41463
  18296605.0844  -31787930.29847 -24647325.12463
 93  4 26 19 56 29.9900000  0  6G18G15G11G19G27G 2
  21409623.654     4637074.899 4   3647408.01121
  21725664.803     -954413.345 5   -650120.39221
  20644737.943   -19221215.680 6 -14866922.88721
  18686520.7564  -12348505.18646  -9560027.88763
  17335364.7254  -27510807.73347 -21335984.33964
  18280633.545   -31871846.959 7 -24712714.70423
 93  4 26 19 56 59.9900000  0  6G18G15G11G19G27G 2
  21419358.529     4688234.765 4   3687272.44821
  21703161.975    -1072686.178 5   -742280.84221
  20645612.0534  -19216619.71446 -14863341.67361
  18684230.186   -12360559.760 6  -9569421.10923
  17322318.3814  -27579375.32947 -21389413.62964
  18264700.1074  -31955579.33447 -24777960.70063
 93  4 26 19 57 29.9900000  0  7G18G15G11G26G19G27G 2
  21429101.8974    4739418.15644   3727155.18561
  21680701.8504   -1190713.42145
  20646580.076   -19211548.062 6 -14859389.78621
  21582959.576          -0.18913
  18681983.8424  -12372347.26046  -9578606.22763
  17309340.9984  -27647572.18347 -21442554.03663
  18248806.7564  -32039091.41147 -24843035.03463
 93  4 26 19 57 59.9900000  0  7G18G15G11G26G19G27G 2
  21438842.232     4790610.044 4   3767044.54221
  21658285.3814   -1308501.80644
  20647632.2174  -19206012.03546 -14855076.05361
  21554667.7484    -148657.58743        -0.48171
  18679792.6784  -12383866.48146  -9587582.30163
  17296428.2094  -27715420.92947 -21495423.18963
  18232958.4514  -32122380.17647 -24907935.35263
 93  4 26 19 58 29.9900000  0  7G18G15G11G26G19G27G 2
  21448584.5764    4841810.54244   3806940.59361
  21635921.732    -1426033.997 3        -0.30731
  20648775.459   -19199999.856 6 -14850391.27721
  21526427.9284    -297037.61542   -115621.17761
  18677653.1864  -12395105.15246  -9596339.76563
  17283586.9124  -27782905.38147 -21548008.47563
  18217155.9904  -32205418.25547 -24972640.33063
 93  4 26 19 58 59.9900000  0  7G18G15G11G26G19G27G 2
  21458326.232     4893015.056 5   3846839.82121
  21613603.529    -1543315.155 4    -91388.02321
  20650009.678   -19193521.922 6 -14845343.57921
  21498244.451     -445158.527 2   -231039.96721
  18675566.3654  -12406075.83446  -9604888.41363
  17270806.3344  -27850061.26047 -21600337.73663
  18201402.8574  -32288207.81948 -25037151.68163
 93  4 26 19 59 29.9900000  0  7G18G15G11G26G19G27G 2
  21468074.0614    4944236.36043   3886751.97961
  21591330.8654   -1660334.25144   -182571.52961
  20651332.2564  -19186572.82246 -14839928.74861
  21470107.8894    -593033.26743   -346266.96361
  18673530.9754  -12416765.00446  -9613217.69262
  17258087.7794  -27916887.59647 -21652410.20963
  18185697.2484  -32370749.86848 -25101470.13963
 93  4 26 19 59 59.9900000  0  7G18G15G11G26G19G27G 2
  21477820.053     4995451.512 3   3926659.57521
  21569116.5844   -1777094.10744   -273553.00861
  20652740.850   -19179160.679 6 -14834153.10021
  21442017.4124    -740671.93843   -461310.02761
  18671549.287   -12427187.289 6  -9621339.00522
  17245434.6314  -27983387.04447 -21704227.96763
  18170030.693   -32453067.535 8 -25165613.76623
 93  4 26 20  0 29.9900000  0  7G18G15G11G26G19G27G 2
  21487567.0294    5046659.02644   3966561.01261
  21546948.248    -1893594.781 5   -364332.58421
  20654238.990   -19171290.971 6 -14828020.90821
  21413962.303     -888079.885 4   -576173.25721
  18669613.7564  -12437352.37346  -9629259.91163
  17232843.3654  -28049560.91047 -21755792.02563
  18154403.7484  -32535183.68547 -25229600.37063
 93  4 26 20  0 59.9900000  0  7G18G15G11G26G19G27G 2
  21497315.561     5097875.154 5   4006469.25121
  21524822.6234   -2009829.28445   -454904.78061
  20655824.4434  -19162961.97546 -14821530.83661
  21385955.725    -1035259.329 4   -690858.42521
  18667730.2094  -12447254.27346  -9636975.74362
  17220311.9044  -28115401.53547 -21807096.42063
  18138815.9044  -32617105.79347 -25293435.76463
 93  4 26 20  1 29.9900000  0  7G18G15G11G26G19G27G 2
  21507060.8424    5149088.29444   4046375.14461
  21502761.7484   -2125800.87645   -545272.07361
  20657498.982   -19154182.404 6 -14814689.65521
  21357995.1784   -1182205.74944   -805362.03361
  18665897.436   -12456891.811 6  -9644485.55722
  17207850.4204  -28180892.03247 -21858127.98063
  18123262.9284  -32698836.57248 -25357122.07363
 93  4 26 20  1 59.9900000  0  7G18G15G11G26G19G27G 2
  21516804.842     5200297.608 2   4086278.03221
  21480742.522    -2241505.657 5   -635431.45721
  20659254.1004  -19144953.47846 -14807498.35461
  21330083.5374   -1328892.61645   -919663.41661
  18664115.9594  -12466255.21846  -9651781.78063
  17195454.7254  -28246029.09947 -21908884.14063
  18107745.9124  -32780379.65447 -25420662.12563
 93  4 26 20  2 29.9900000  0  6G15G11G26G19G27G 2
  21458773.982    -2356944.770 5   -725383.81821
  20661092.568   -19135281.612 6 -14799961.86721
  21302214.6624   -1475301.60144  -1033748.24961
  18662388.350   -12475330.545 6  -9658853.52222
  17183126.1624  -28310821.30347 -21959371.57564
  18092266.2404  -32861732.31848 -25484053.80063
 93  4 26 20  2 59.9900000  0  6G15G11G26G19G27G 2
  21436859.8504   -2472103.21245   -815117.50961
  20663018.7954  -19125157.66646 -14792073.13861
  21274413.4514   -1621413.96344  -1147601.95761
  18660719.3734  -12484103.02646  -9665689.27362
  17170864.2954  -28375255.96347 -22009580.40964
  18076825.6314  -32942868.09648 -25547276.47463
 93  4 26 20  3 29.9900000  0  6G15G11G26G19G27G 2
  21414995.0684   -2586987.62845   -904637.69861
  20665028.303   -19114593.401 6 -14783841.30321
  21246665.436    -1767231.473 4  -1261225.87521
  18659103.6784  -12492585.98746  -9672299.43763
  17158672.1074  -28439335.48447 -22059512.50464
  18061423.404   -33023799.443 7 -25610339.85523
 93  4 26 20  3 59.9890000  0  6G15G11G26G19G27G 2
  21393190.954    -2701576.861 5   -993927.82621
  20667124.8294  -19103577.42746 -14775257.49061
  21218977.728    -1912731.545 5  -1374602.48321
  18657551.1734  -12500765.32346  -9678673.01363
  17146547.7824  -28503042.08247 -22109154.00464
  18046067.1574  -33104504.05547 -25673226.55363
 93  4 26 20  4 29.9890000  0  6G15G11G26G19G27G 2
  21371440.0714   -2815881.86045  -1082996.51761
  20669307.5244  -19092117.46346 -14766327.70561
  21191345.2674   -2057941.00045  -1487752.63461
  18656047.4464  -12508667.52146  -9684830.63163
  17134492.9704  -28566379.07347 -22158507.50564
  18030751.6344  -33184986.47047 -25735940.11063
 93  4 26 20  4 59.9890000  0  6G15G11G26G19G27G 2
  21349744.0794   -2929901.83745  -1171843.10761
  20671568.1104  -19080222.50246 -14757058.96061
  21163763.2354   -2202877.39445  -1600689.98261
  18654589.5094  -12516322.20546  -9690795.38263
  17122513.5484  -28629335.06847 -22207564.12564
  18015479.6734  -33265250.93848 -25798483.84663
 93  4 26 20  5 29.9890000  0  6G15G11G26G19G27G 2
  21328098.798    -3043626.932 5  -1260459.93521
  20673916.8764  -19067887.96546 -14747447.68261
  21136237.9544   -2347536.42945  -1713411.23661
  18653180.774   -12523716.692 6  -9696557.39223
  17110608.8994  -28691907.00347 -22256321.48664
  18000245.1104  -33345293.98347 -25860855.04963
 93  4 26 20  5 59.9890000  0  6G15G11G26G19G27G 2
  21306512.056    -3157058.469 5  -1348848.01721
  20676345.689   -19055120.985 6 -14737499.44521
  21108759.5094   -2491927.23945  -1825923.48561
  18651823.446   -12530857.187 6  -9702121.46923
  17098771.3924  -28754107.45747 -22304789.37964
  17985056.1424  -33425125.22747 -25923061.20363
 93  4 26 20  6 29.9890000  0  6G15G11G26G19G27G 2
  21284984.4934   -3270201.13445  -1437010.98861
  20678854.9234  -19041931.51846 -14727221.99561
  21081330.931    -2636067.253 5  -1938240.31221
  18650512.6104  -12537755.58546  -9707496.90563
  17087004.7744  -28815947.85647 -22352976.70764
  17969899.3684  -33504766.75447 -25985119.52963
 93  4 26 20  6 59.9890000  0  6G15G11G26G19G27G 2
  21263508.673    -3383041.250 5  -1524938.20021
  20681448.5644  -19028311.16246 -14716608.79061
  21053952.4464   -2779943.97744  -2050351.95561
  18649252.298   -12544370.971 6  -9712651.80723
  17075306.5874  -28877417.68347 -22400875.29263
  17954781.1424  -33584216.22247 -26047028.20163
 93  4 26 20  7 29.9890000  0  6G15G11G26G19G27G 2
  21242098.7044   -3495583.87345  -1612633.62561
  20684122.001   -19014270.453 6 -14705668.02621
  21026626.5564   -2923551.43845  -2162253.78561
  18648051.876   -12550685.699 6  -9717572.45523
  17063677.446   -28938525.028 7 -22448491.40924
  17939696.3994  -33663484.12947 -26108795.39963
 93  4 26 20  7 59.9890000  0  6G15G11G26G19G27G 2
  21220736.657    -3607819.951 4  -1700090.13021
  20686872.493   -18999805.545 6 -14694396.73121
  20999351.4154   -3066876.07445  -2273935.25761
  18646906.4314  -12556699.79346  -9722258.83163
  17052121.4544  -28999253.78147 -22495812.52864
  17924648.8684  -33742565.87347 -26170417.53563
 93  4 26 20  8 29.9890000  0  6G15G11G26G19G27G 2
  21199441.235    -3719739.721 4  -1787300.22121
  20689704.1894  -18984912.34645 -14682791.69961
  20972133.5244   -3209901.20645  -2385383.32161
  18645823.7904  -12562397.32646  -9726698.53262
  17040640.5954  -29059589.73547 -22542827.56764
  17909640.1424  -33821444.74248 -26231881.58263
 93  4 26 20  8 59.9890000  0  6G15G11G26G19G27G 2
  21178203.446    -3831343.925 5  -1874264.42321
  20692619.8374  -18969596.91546 -14670857.66061
  20944972.0014   -3352611.65845  -2496586.20061
  18644793.8064  -12567779.72646  -9730892.67462
  17029235.0404  -29119527.78047 -22589532.55163
  17894667.7204  -33900118.45447 -26293185.77163
 93  4 26 20  9 29.9890000  0  6G15G11G26G19G27G 2
  21157023.329    -3942640.266 5  -1960988.72621
  20695615.1574  -18953872.45346 -14658604.88661
  20917877.2514   -3495019.61645  -2607553.38661
  18643826.5714  -12572883.78446  -9734869.93662
  17017902.9314  -29179082.06647 -22635938.49563
  17879731.4704  -33978600.57448 -26354340.66363
 93  4 26 20  9 59.9890000  0  6G15G11G26G19G27G 2
  21135905.595    -4053610.171 5  -2047458.59021
  20698687.103   -18937725.632 5 -14646023.01621
  20890839.579    -3637109.352 5  -2718272.58121
  18642905.0014  -12577720.58446  -9738638.93262
  17006643.8294  -29238241.91647 -22682037.09163
  17864839.1264  -34056873.03848 -26415332.19063
 93  4 26 20 10 29.9890000  0  6G15G11G26G19G27G 2
  21114851.446    -4164254.992 5  -2133675.23521
  20701837.829   -18921163.710 5 -14633117.67921
  20863859.704    -3778875.896 5  -2828739.94721
  18642033.7744  -12582299.04346  -9742206.63063
  16995458.8604  -29297022.88147 -22727840.45263
  17849983.3294  -34134929.99948 -26476155.79863
 93  4 26 20 10 59.9890000  0  6G15G11G26G19G27G 2
  21093854.446    -4274577.986 4  -2219641.09221
  20705066.314   -18904195.371 5 -14619895.67121
  20836941.7984   -3920323.57745  -2938958.85161
  18641208.3924  -12586627.54146  -9745579.54463
  16984343.782   -29355430.137 7 -22773352.61823
  17835171.7284  -34212772.05648 -26536811.93563
 93  4 26 20 11 29.9890000  0  6G15G11G26G19G27G 2
  21072922.853    -4384584.391 5  -2305360.25321
  20708369.4704  -18886831.19345 -14606365.19361
  20810088.7744   -4061461.09145  -3048936.06061
  18640431.1574  -12590727.60246  -9748774.46162
  16973298.1964  -29413481.01247 -22818587.08063
  17820396.7354  -34290404.78248 -26597304.96564
 93  4 26 20 11 59.9890000  0  6G15G11G26G19G27G 2
  21052053.681    -4494255.146 5  -2390817.86921
  20711754.314   -18869057.204 6 -14592515.39621
  20783297.0874   -4202255.61245  -3158645.98761
  18639697.978   -12594572.331 6  -9751770.42022
  16962322.8684  -29471154.70247 -22863527.62663
  17805669.3764  -34367803.03248 -26657615.28963
 93  4 26 20 12 29.9890000  0  6G15G11G26G19G27G 2
  21031248.532    -4603597.201 5  -2476019.32521
  20715208.110   -18850886.384 6 -14578356.38121
  20756566.1574   -4342721.99745  -3268100.24061
  18639018.9784  -12598140.83746  -9754551.12662
  16951418.4154  -29528454.53547 -22908176.85763
  17790981.8144  -34444987.91348 -26717759.35763
 93  4 26 20 12 59.9890000  0  6G15G11G26G19G27G 2
  21010502.532    -4712605.987 5  -2560961.10321
  20718745.493   -18832319.011 6 -14563888.35921
  20729894.103    -4482871.944 5  -3377307.92221
  18638395.8534  -12601423.66846  -9757109.22863
  16940588.5094  -29585371.12347 -22952527.45763
  17776330.0874  -34521976.85448 -26777750.73163
 93  4 26 20 13 29.9890000  0  6G15G11G26G19G27G 2
  20989822.1104   -4821276.94345  -2645639.66561
  20722353.274   -18813356.401 6 -14549112.37121
  20703281.290    -4622713.954 5  -3486275.67021
  18637825.3294  -12604422.08846  -9759445.73062
  16929831.3454  -29641895.37247 -22996572.34063
  17761713.4154  -34598789.63647 -26837604.85164
 93  4 26 20 13 59.9890000  0  6G15G11G26G19G27G 2
  20969209.970    -4929615.063 5  -2730058.82321
  20726037.2984  -18794008.75946 -14534036.35861
  20676728.2594   -4762265.67645  -3595017.18261
  18637312.3924  -12607116.86946  -9761545.61062
  16919151.2124  -29698018.07547 -23040304.32863
  17747129.9704  -34675434.29448 -26897327.95764
 93  4 26 20 14 29.9890000  0  6G15G11G26G19G27G 2
  20948654.548    -5037623.026 5  -2814220.74321
  20729790.6654  -18774284.28446 -14518666.69861
  20650222.5174   -4901539.33145  -3703542.03461
  18636853.4624  -12609518.41746  -9763417.01263
  16908547.8144  -29753742.88447 -23083726.26063
  17732574.7824  -34751915.96047 -26956924.05563
 93  4 26 20 14 59.9890000  0  6G15G11G26G19G27G 2
  20928162.1964   -5145290.38745  -2898117.24261
  20733613.071   -18754177.871 6 -14502999.41021
  20623779.3924   -5040517.82745  -3811836.89861
  18636449.2744  -12611641.66346  -9765071.55262
  16898020.9934  -29809056.38147 -23126827.70263
  17718057.2204  -34828214.07247 -27016377.12164
 93  4 26 20 15 29.9890000  0  6G15G11G26G19G27G 2
  20907742.360    -5252620.818 5  -2981751.21221
  20737510.7044  -18733699.11046 -14487042.00261
  20597390.9074   -5179185.81545  -3919889.81261
  18636098.1734  -12613489.53346  -9766511.51063
  16887573.2674  -29863965.84147 -23169614.29563
  17703572.4934  -34904323.16147 -27075682.89564
 93  4 26 20 15 59.9890000  0  6G15G11G26G19G27G 2
  20887385.548    -5359604.755 5  -3065115.17621
  20741482.978   -18712843.375 6 -14470790.82621
  20571065.2674   -5317514.89445  -4027678.66061
  18635800.5404  -12615048.36946  -9767726.25462
  16877197.1184  -29918492.08547 -23212102.29063
  17689131.1184  -34980215.35247 -27134819.65964
 93  4 26 20 16 29.9890000  0  6G15G11G26G19G27G 2
  20867091.1344   -5466238.89745  -3148206.61661
  20745520.6894  -18691612.76246 -14454247.57361
  20544814.446    -5455485.172 5  -4135187.88821
  18635561.6104  -12616330.14746  -9768725.10862
  16866891.3994  -29972655.39147 -23254307.46963
  17674731.0484  -35055892.54347 -27193788.89164
 93  4 26 20 16 59.9880000  0  6G15G11G26G19G27G 2
  20846865.7774   -5572508.53545  -3231014.02561
  20749633.4344  -18670002.08646 -14437408.14961
  20518630.6294   -5593080.61545  -4242405.04561
  18635373.7854  -12617318.47446  -9769495.30962
  16856650.973   -30026452.853 7 -23296227.58723
  17660371.4104  -35131349.61147 -27252586.60864
 93  4 26 20 17 29.9880000  0  6G15G11G26G19G27G 2
  20826712.8484   -5678423.78345  -3313545.28161
  20753815.6214  -18648018.48246 -14420278.14061
  20492512.1764   -5730316.69145  -4349342.17861
  18635241.192   -12618005.939 6  -9770031.06722
  16846479.9734  -30079905.54647 -23337879.04764
  17646052.2314  -35206600.16348 -27311223.39164
 93  4 26 20 17 59.9880000  0  6G15G11G26G19G27G 2
  20806629.8794   -5783972.81245  -3395791.17161
  20758068.606   -18625660.077 5 -14402856.08321
  20466465.8244   -5867188.11445  -4455995.17161
  18635166.0274  -12618399.54646
  16836376.1374  -30132998.74547 -23379250.38163
  17631773.6604  -35281645.28848 -27369700.10664
 93  4 26 20 18 29.9880000  0  6G15G11G26G19G27G 2
  20786612.785    -5889153.988 5  -3477750.42521
  20762394.160   -18602930.583 6 -14385144.88521
  20440490.0744   -6003700.57645  -4562368.45561
  18635144.6064  -12618513.97446
  16826350.3954  -30185697.05847 -23420314.01763
  17617527.0824  -35356503.95748 -27428031.52964
 93  4 26 20 18 59.9880000  0  6G15G11G26G19G27G 2
  20766668.0204   -5993969.51845  -3559424.76661
  20766791.192   -18579837.812 6 -14367150.56121
  20414576.8634   -6139870.11145  -4668474.51261
  18635173.8014  -12618359.23846
  16816398.5204  -30237981.26947 -23461054.97163
  17603314.4264  -35431188.14148 -27486226.99264
 93  4 26 20 19 29.9880000  0  6G15G11G26G19G27G 2
  20746788.199    -6098421.733 5  -3640816.02621
  20771252.067   -18556389.044 6 -14348878.86621
  20388731.8244   -6275694.98445  -4774312.01261
  18635248.9424  -12617957.97046
  16806529.6294  -30289849.07547 -23501471.46663
  17589133.3174  -35505705.23848 -27544292.25264
 93  4 26 20 19 59.9880000  0  6G15G11G26G19G27G 2
  20726980.7774   -6202503.53545  -3721918.66261
  20775782.1524  -18532582.68245 -14330328.52661
  20362951.7704   -6411168.90245  -4879876.03761
  18635372.7234  -12617317.92746  -9769495.35362
  16796742.098   -30341285.147 7 -23541551.54923
  17574984.9344  -35580051.66148 -27602224.52864
 93  4 26 20 20 29.9880000  0  6G15G11G26G19G27G 2
  20707247.1684   -6306217.71945  -3802734.82361
  20780380.207   -18508427.087 6 -14311506.07721
  20337235.7154   -6546303.55345  -4985175.71861
  18635539.6064  -12616437.54946  -9768809.40762
  16787033.3954  -30392296.38547 -23581300.58063
  17560872.1134  -35654218.47148 -27660016.84464
 93  4 26 20 20 59.9880000  0  6G15G11G26G19G27G 2
  20687580.668    -6409560.969 5  -3883261.97421
  20785043.9104  -18483924.19646 -14292412.98461
  20311584.7234   -6681104.30445  -5090215.19361
  18635758.1524  -12615302.85746  -9767925.30962
  16777403.6604  -30442904.65047 -23620735.60563
  17546797.3174  -35728187.91348 -27717655.37264
 93  4 26 20 21 29.9880000  0  6G15G11G26G19G27G 2
  20667985.449    -6512537.287 5  -3963503.18621
  20789768.9024  -18459083.36746 -14273056.57761
  20285995.629    -6815566.845 5  -5194991.14521
  18636019.8484  -12613911.73846  -9766841.39662
  16767846.4344  -30493129.28047 -23659871.69064
  17532758.1524  -35801958.32048 -27775138.80164
 93  4 26 20 21 59.9880000  0  6G15G11G26G19G27G 2
  20648463.0044   -6615138.98045  -4043452.52161
  20794562.012   -18433902.411 6 -14253435.14421
  20260476.7384   -6949685.34845  -5299499.04361
  18636340.7704  -12612239.13846  -9765538.14962
  16758365.8484  -30542955.15247 -23698697.06464
  17518757.5674  -35875526.84648 -27832464.92564
 93  4 26 20 22 29.9880000  0  6G15G11G26G19G27G 2
  20629008.285    -6717370.292 5  -4123113.19121
  20799414.2704  -18408390.78745 -14233556.03461
  20235015.8874   -7083462.69945  -5403741.07261
  18636709.707   -12610280.310 6  -9764011.87822
  16748957.4104  -30592393.49647 -23737220.46564
  17504793.6604  -35948916.73148 -27889651.84164
 93  4 26 20 22 59.9880000  0  6G15G11G26G19G27G 2
  20609625.988    -6819222.137 5  -4202478.24221
  20804336.0514  -18382544.74345 -14213416.36161
  20209628.9734   -7216878.37345  -5507701.28461
  18637138.5744  -12608035.33846  -9762262.63462
  16739623.441   -30641448.986 7 -23775445.54224
  17490859.2234  -36022143.82848 -27946711.91964
 93  4 26 20 23 29.9880000  0  6G15G11G26G19G27G 2
  20590317.496    -6920686.915 5  -4281541.63621
  20809316.785   -18356362.047 5 -14193014.36021
  20184314.262    -7349916.050 5  -5611366.95921
  18637620.270   -12605509.558 6  -9760294.57622
  16730363.754   -30690102.022 7 -23813357.02324
  17476953.8094  -36095216.58248 -28003651.71364
 93  4 26 20 23 59.9880000  0  6G15G11G26G19G27G 2
  20571082.012    -7021768.511 5  -4360306.44921
  20814362.379   -18329852.170 6 -14172357.40821
  20159070.567    -7482575.996 6  -5714738.30921
  18638152.4184  -12602712.57146  -9758115.18562
  16721179.8714  -30738357.29647 -23850958.54064
  17463076.1064  -36168149.02548 -28060482.19364
 93  4 26 20 24 29.9880000  0  6G15G11G26G19G27G 2
  20551917.035    -7122461.154 5  -4438768.20121
  20819468.762   -18303014.588 5 -14151445.07021
  20133897.223    -7614864.601 6  -5817820.28421
  18638731.199   -12599657.598 6  -9755734.77022
  16712074.340   -30786216.798 7 -23888251.67324
  17449225.9734  -36240927.05548 -28117192.34164
 93  4 26 20 24 59.9880000  0  6G15G11G26G19G27G 2
  20532834.2854   -7222764.76645  -4516926.77361
  20824635.848   -18275854.019 5 -14130281.07421
  20108794.3094   -7746782.60546  -5920613.49061
  18639362.9424  -12596353.41046  -9753160.14962
  16703042.2624  -30833676.97047 -23925233.63564
  17435410.4344  -36313528.83248 -28173765.15964
 93  4 26 20 25 29.9880000  0  6G15G11G26G19G27G 2
  20513824.5984   -7322668.70445  -4594773.91761
  20829863.9814  -18248365.69845 -14108861.68361
  20083759.1924   -7878338.11946  -6023124.21961
  18640040.106   -12592780.795 6  -9750376.38822
  16694092.5904  -30880710.44747 -23961883.10864
  17421632.6134  -36385930.94647 -28230182.37864
 93  4 26 20 25 59.9880000  0  6G15G11G26G19G27G 2
  20494887.488    -7422174.100 5  -4672310.49621
  20835159.481   -18220556.110 5 -14087191.96921
  20058792.4884   -8009538.39145  -6125358.14161
  18640771.067   -12588937.471 6  -9747381.67822
  16685223.9964  -30927322.81047 -23998204.44964
  17407894.6684  -36458123.06247 -28286435.97064
 93  4 26 20 26 29.9880000  0  6G15G11G26G19G27G 2
  20476027.926    -7521282.784 5  -4749537.97521
  20840509.1524  -18192431.94345 -14065277.11961
  20033891.395    -8140395.820 5  -6227324.93421
  18641555.988   -12584824.700 6  -9744177.01122
  16676431.981   -30973522.119 7 -24034203.93324
  17394198.1454  -36530096.98347 -28342519.54464
 93  4 26 20 26 59.9880000  0  6G15G11G26G19G27G 2
  20457242.8324   -7619990.92245  -4826453.28061
  20845924.3954  -18163994.69545 -14043118.31961
  20009058.473    -8270891.480 5  -6329009.81021
  18642392.473   -12580424.837 6  -9740748.62122
  16667718.2074  -31019310.35147 -24069883.09164
  17380544.9264  -36601850.34348 -28398431.25264
 93  4 26 20 27 29.9880000  0  6G15G11G26G19G27G 2
  20438535.7464   -7718293.74045  -4903052.78961
  20851392.043   -18135245.058 5 -14020716.08421
  19984298.4184   -8401012.93645  -6430403.10061
  18643287.567   -12575731.115 6  -9737091.25822
  16659084.418   -31064686.066 7 -24105240.81623
  17366929.2464  -36673396.56348 -28454181.55764
 93  4 26 20 27 59.9880000  0  6G15G11G26G19G27G 2
  20419907.5674   -7816192.71845  -4979337.60861
  20856922.0044  -18106189.48545 -13998075.46261
  19959610.074    -8530744.369 5  -6531492.48921
  18644233.457   -12570753.549 6  -9733212.73222
  16650524.309   -31109667.738 7 -24140291.49523
  17353352.9964  -36744741.63448 -28509775.10964
 93  4 26 20 28 29.9880000  0  6G15G11G26G19G27G 2
  20401354.6524   -7913682.24045  -5055303.37961
  20862513.3324  -18076827.61045 -13975196.18361
  19935000.004    -8660073.479 5  -6632268.36721
  18645237.949   -12565489.448 6  -9729110.92822
  16642040.1454  -31154247.67547 -24175029.12963
  17339811.3174  -36815899.70047 -28565222.95164
 93  4 26 20 28 59.9880000  0  6G15G11G26G19G27G 2
  20382881.949    -8010762.981 5  -5130950.60821
  20868157.910   -18047165.763 5 -13952083.13221
  19910465.5044   -8789003.40445  -6732733.17561
  18646290.590   -12559950.786 6  -9724795.18022
  16633636.6684  -31198411.72847 -24209442.69163
  17326302.3244  -36886896.18448 -28620544.88964
 93  4 26 20 29 29.9880000  0  6G15G11G26G19G27G 2
  20364488.598    -8107432.586 5  -5206277.46221
  20873860.848   -18017206.568 5 -13928738.40421
  19886001.621    -8917542.579 5  -6832893.51421
  18647394.793   -12554150.941 6  -9720275.91122
  16625312.0664  -31242156.84647 -24243529.81663
  17312819.6374  -36957746.46148 -28675752.89064
 93  4 26 20 29 59.9870000  0  6G15G11G26G19G27G 2
  20346169.8124   -8203677.91945  -5281273.74661
  20879612.8824  -17986946.39345 -13905159.13461
  19861619.280    -9045689.610 5  -6932748.30421
  18648548.827   -12548086.712 6  -9715550.62522
  16617070.1634  -31285468.47647 -24277279.14763
  17299366.7494  -37028439.88447 -28730838.67464
 93  4 26 20 30 29.9870000  0  6G15G11G26G19G27G 2
  20327934.429    -8299508.500 5  -5355946.85321
  20885430.093   -17956391.490 5 -13881350.22121
  19837304.538    -9173459.742 5  -7032309.37621
  18649751.405   -12541761.508 6  -9710622.00722
  16608911.9374  -31328342.80947 -24310687.73064
  17285939.6944  -37098996.36348 -28785817.75064
 93  4 26 20 30 59.9870000  0  6G15G11G26G19G27G 2
  20309775.538    -8394925.875 5  -5430297.94421
  20891297.390   -17925552.520 5 -13857319.97321
  19813063.6714   -9300850.98245  -7131575.23661
  18651002.765   -12535185.404 6  -9705497.86922
  16600834.1944  -31370790.46747 -24343763.84364
  17272542.6714  -37169410.26548 -28840685.72564
 93  4 26 20 31 29.9870000  0  6G15G11G26G19G27G 2
  20291702.4444   -8489918.30045  -5504317.93861
  20897219.6714  -17894422.85045 -13833063.17861
  19788895.585    -9427833.505 5  -7230522.57721
  18652304.859   -12528345.872 6  -9700168.45822
  16592836.2734  -31412816.95947 -24376511.77564
  17259173.4524  -37239658.07447 -28895424.28264
 93  4 26 20 31 59.9870000  0  6G15G11G26G19G27G 2
  20273705.2734   -8584472.16645  -5577996.22061
  20903201.1014  -17862994.46745 -13808573.64161
  19764815.8594   -9554383.05845  -7329132.57661
  18653660.507   -12521228.198 6  -9694622.31122
  16584920.085   -31454418.008 7 -24408928.19323
  17245841.5154  -37309716.01647 -28950014.88564
 93  4 26 20 32 29.9870000  0  6G15G11G26G19G27G 2
  20255794.7024   -8678598.54345  -5651341.36361
  20909233.335   -17831283.487 5 -13783863.89621
  19740817.9764   -9680501.94545  -7427406.99961
  18655063.8434  -12513857.61646  -9688879.11762
  16577081.101   -31495612.063 7 -24441027.47823
  17232544.0154  -37379597.66147 -29004468.11863
 93  4 26 20 32 59.9870000  0  6G15G11G26G19G27G 2
  20237965.265    -8772298.675 5  -5724354.36021
  20915323.9054  -17799296.13545 -13758938.76861
  19716898.5774   -9806192.83445  -7525347.88661
  18656509.609   -12506241.809 6  -9682944.81321
  16569316.6484  -31536416.12347 -24472822.86063
  17219278.9214  -37449300.93747 -29058782.36363
 93  4 26 20 33 29.9870000  0  6G15G11G26G19G27G 2
  20220217.4054   -8865569.05445  -5797032.53161
  20921462.3354  -17767034.13045 -13733799.64761
  19693059.9444   -9931468.11145  -7622964.97361
  18658009.702   -12498374.999 6  -9676814.93222
  16561625.4134  -31576828.36747 -24504312.93363
  17206049.3904  -37518827.99148 -29112959.28463
 93  4 26 20 33 59.9870000  0  6G15G11G26G19G27G 2
  20202548.538    -8958403.346 5  -5869370.84921
  20927655.655   -17734496.348 5 -13708445.63321
  19669302.976   -10056336.374 5  -7720264.84221
  18659553.015   -12490244.700 6  -9670479.72621
  16554013.4524  -31616835.04047 -24535486.97563
  17192852.2104  -37588175.13447 -29166996.01864
 93  4 26 20 34 29.9870000  0  6G15G11G26G19G27G 2
  20184967.726    -9050806.769 5  -5941373.44321
  20933898.288   -17701692.356 5 -13682884.18421
  19645613.0854  -10180814.27245  -7817260.58861
  18661153.624   -12481855.885 6  -9663943.08022
  16546476.7264  -31656437.06447 -24566345.70964
  17179690.6944  -37657349.74148 -29220898.30763
 93  4 26 20 34 59.9870000  0  6G15G11G26G19G27G 2
  20167468.390    -9142783.506 5  -6013043.53321
  20940192.3664  -17668632.09945 -13657123.03861
  19621996.0234  -10304918.09045  -7913964.79861
  18662798.218   -12473192.474 6  -9657192.46622
  16539016.7734  -31695640.07547 -24596893.52763
  17166559.4374  -37726350.22148 -29274664.91664
 93  4 26 20 35 29.9870000  0  6G15G11G26G19G27G 2
  20150046.1714   -9234311.95945  -6084364.32561
  20946532.6244  -17635298.41145 -13631148.84061
  19598453.468   -10428632.283 5  -8010365.43021
  18664504.6324  -12464230.79946  -9650209.45661
  16531639.8824  -31734406.73047 -24627101.31863
  17153467.2964  -37795152.29048 -29328276.91864
 93  4 26 20 35 59.9870000  0  6G15G11G26G19G27G 2
  20132716.444    -9325392.139 5  -6155335.82921
  20952927.569   -17601696.517 5 -13604965.66721
  19574986.1094  -10551950.22645  -8106457.30661
  18666262.366   -12454980.818 6  -9643001.77922
  16524346.1554  -31772736.18747 -24656968.43663
  17140410.8744  -37863756.67748 -29381734.88364
 93  4 26 20 36 29.9870000  0  7G15G11G26G19G27G 2G13
  20115471.4604   -9416026.10745  -6225959.63161
  20959371.9994  -17567833.97445 -13578579.35061
  19551596.265   -10674869.200 5  -8202238.28021
  18668081.593   -12445452.921 6  -9635577.53222
  16517134.4834  -31810636.95247 -24686501.51663
  17127390.8984  -37932178.35848 -29435050.47364
  20356966.6094         -0.13954
 93  4 26 20 36 59.9870000  0  7G15G11G26G19G27G 2G13
  20098306.944    -9506209.127 5  -6296232.04221
  20965866.7654  -17533710.92545 -13551990.07361
  19528285.0304  -10797367.37945  -8297691.37961
  18669946.585   -12435640.976 6  -9627931.96522
  16510007.3984  -31848093.10447 -24715688.13963
  17114404.7104  -38000422.80248 -29488227.95764
  20322453.4684    -181361.46144
 93  4 26 20 37 29.9870000  0  7G15G11G26G19G27G 2G13
  20081229.319    -9595953.560 5  -6366162.70821
  20972408.093   -17499344.539 5 -13525211.13121
  19505054.4684  -10919445.45146  -8392817.11861
  18671863.421   -12425568.585 6  -9620083.45122
  16502961.8044  -31885115.14747 -24744536.50563
  17101448.1714  -38068507.53748 -29541281.00363
  20287949.882     -362661.946 4
 93  4 26 20 37 59.9870000  0  7G15G11G26G19G27G 2G13
  20064235.218    -9685255.672 5  -6435748.67821
  20978992.421   -17464735.623 5 -13498243.25021
  19481910.382   -11041083.211 6  -8487599.75321
  18673826.288   -12415238.964 6  -9612034.49621
  16495997.163   -31921708.689 7 -24773050.97423
  17088521.5304  -38136437.31848 -29594213.29664
  20253462.2964    -543896.07244        -0.31771
 93  4 26 20 38 29.9870000  0  7G15G11G26G19G27G 2G13
  20047327.312    -9774105.656 5  -6504982.38021
  20985621.8904  -17429880.01644 -13471083.13861
  19458847.351   -11162264.991 5  -8582027.07321
  18675843.132   -12404645.933 6  -9603780.28221
  16489119.366   -31957858.572 7 -24801219.74523
  17075626.5694  -38204205.19848 -29647019.44064
  20218990.2024    -725053.46544   -141161.44961
 93  4 26 20 38 59.9870000  0  7G15G11G26G19G27G 2G13
  20030509.038    -9862487.962 5  -6573851.65121
  20992302.0934  -17394766.54944 -13443722.07061
  19435875.851   -11282984.204 6  -8676093.95721
  18677910.726   -12393779.564 6  -9595313.08021
  16482326.7414  -31993547.58547 -24829029.38963
  17062766.4134  -38271788.48748 -29699681.74164
  20184536.523     -906116.917 4   -282249.39421
 93  4 26 20 39 29.9870000  0  7G15G11G26G19G27G 2G13
  20013775.444    -9950412.719 5  -6642364.37021
  20999032.1794  -17359410.31544 -13416171.84261
  19412985.991   -11403263.031 6  -8769817.68921
  18680026.4914  -12382665.76446  -9586653.07562
  16475617.2024  -32028804.28247 -24856502.15663
  17049938.2184  -38339201.16548 -29752211.10264
  20150098.2344   -1087095.84544   -423271.48661
 93  4 26 20 39 59.9870000  0  7G15G11G26G19G27G 2G13
  19997135.663   -10037869.176 5  -6710512.19721
  21005808.366   -17323805.643 4 -13388428.05321
  19390181.5234  -11523098.96146  -8863196.32061
  18682188.554   -12371298.981 6  -9577795.94722
  16468989.327   -32063630.383 7 -24883639.40023
  17037142.7964  -38406448.37148 -29804611.52764
  20115677.1714   -1267978.82844   -564218.82861
 93  4 26 20 40 29.9870000  0  7G15G11G26G19G27G 2G13
  19980580.2884  -10124858.03745  -6778295.66161
  21012625.8594  -17287958.08544 -13360494.96761
  19367460.859   -11642507.262 6  -8956241.71821
  18684401.585   -12359671.296 6  -9568735.51221
  16462443.999   -32098031.121 7 -24910445.18923
  17024376.1794  -38473527.41148 -29856880.90664
  20081270.2734   -1448765.33444   -705091.02361
 93  4 26 20 40 59.9870000  0  7G15G11G26G19G27G 2G13
  19964118.569   -10211374.440 5  -6845710.95821
  21019499.7574  -17251867.40644 -13332372.44061
  19344818.9134  -11761489.81546  -9048955.36661
  18686666.3824  -12347775.26946  -9559465.98361
  16455978.913   -32132015.672 7 -24936926.68423
  17011643.1484  -38540439.48248 -29909020.17964
  20046884.5694   -1629448.92343   -845882.96661
 93  4 26 20 41 29.9870000  0  7G15G11G26G19G27G 2G13
  19947745.069   -10297416.838 5  -6912756.92721
  21026405.3274  -17215536.67644 -13304062.86961
  19322258.4994  -11880039.14146  -9141331.42861
  18688983.4524  -12335613.37046  -9549989.28361
  16449588.8124  -32165586.89447 -24963086.11263
  16998942.6324  -38607184.31248 -29961029.13464
  20012522.155    -1810026.537 3   -986592.41421
 93  4 26 20 41 59.9870000  0  7G15G11G26G19G27G 2G13
  19931457.9684  -10382998.02845  -6979443.49261
  21033370.5854  -17178983.91444 -13275580.27661
  19299780.273   -11998162.797 6  -9233375.80221
  18691346.702   -12323192.418 6  -9540310.71721
  16443277.218   -32198756.078 7 -24988932.25223
  16986274.2264  -38673760.16448 -30012906.42064
  19978174.9374   -1990510.14043  -1127228.57461
 93  4 26 20 42 29.9860000  0  7G15G11G26G19G27G 2G13
  19915261.8544  -10468117.10446  -7045769.99961
  21040368.229   -17142216.848 5 -13246930.70521
  19277384.299   -12115852.385 6  -9325081.96121
  18693756.893   -12310521.584 6  -9530437.44821
  16437044.690   -32231512.479 7 -25014456.75123
  16973637.4944  -38740161.40548 -30064647.64464
  19943848.8774   -2170894.01544  -1267787.09961
 93  4 26 20 42 59.9860000  0  7G15G11G26G19G27G 2G13
  19899151.4164  -10552772.51445  -7111735.18361
  21047398.229   -17105230.623 4 -13218110.35321
  19255072.236   -12233102.326 6  -9416445.50721
  18696214.455   -12297605.188 6  -9520372.83821
  16430892.002   -32263850.750 7 -25039655.43223
  16961033.6584  -38806395.62148 -30116258.71664
  19909541.7444   -2351181.88044  -1408270.78561
 93  4 26 20 43 29.9860000  0  7G15G11G26G19G27G 2G13
  19883130.682   -10636960.477 5  -7177336.10321
  21054480.330   -17068030.149 4 -13189123.06221
  19232846.705   -12349903.837 6  -9507459.65321
  18698715.971   -12284446.468 5  -9510119.40321
  16424816.486   -32295766.535 7 -25064524.90023
  16948462.4634  -38872460.30148 -30167737.69164
  19875256.486    -2531365.370 4  -1548673.16221
 93  4 26 20 43 59.9860000  0  7G15G11G26G19G27G 2G13
  19867201.9244  -10720675.25145  -7242568.35461
  21061599.854   -17030614.685 4 -13159968.21521
  19210705.8224  -12466256.38246  -9598123.95561
  18701272.7364  -12271029.92946  -9499665.07961
  16418827.4474  -32327246.22047 -25089054.54663
  16935921.3614  -38938357.39248 -30219086.06964
  19840990.979    -2711437.646 5  -1688988.88121
 93  4 26 20 44 29.9860000  0  7G15G11G26G19G27G 2G13
  19851359.7054  -10803916.97645  -7307431.95561
  21068757.416   -16992988.780 3 -13130649.39521
  19188649.4244  -12582170.28746  -9688446.43961
  18703876.0804  -12257354.61246  -9489009.10861
  16412920.861   -32358278.323 7 -25113235.43323
  16923411.1194  -39004107.69148 -30270320.06564
  19806740.6974   -2891397.51044  -1829217.08161
 93  4 26 20 44 59.9860000  0  7G15G11G26G19G27G 2G13
  19835611.0414  -10886683.63845  -7371925.41861
  21075958.979   -16955155.276 3 -13101168.84821
  19166673.190   -12697645.511 6  -9778427.10321
  18706530.221   -12243407.258 5  -9478141.13321
  16407102.354   -32388865.081 7 -25137069.30723
  16910926.8774  -39069706.08448 -30321435.69564
  19772523.1664   -3071241.37645  -1969354.83861
 93  4 26 20 45 29.9860000  0  7G15G11G26G19G27G 2G13
  19819954.4324  -10968964.65845  -7436040.45861
  21083202.6974  -16917107.73143 -13071521.45961
  19144789.252   -12812665.893 6  -9868053.34021
  18709236.0964  -12229178.68146  -9467054.05361
  16401369.5184  -32418988.83047 -25160542.38163
  16898476.4864  -39135135.82748 -30372419.91464
  19738323.494    -3250957.321 4  -2109392.93121
 93  4 26 20 45 59.9860000  0  7G15G11G26G19G27G 2G13
  19804385.424   -11050765.923 5  -7499781.64121
  21090479.0804  -16878857.11844 -13041715.84561
  19122984.127   -12927239.297 6  -9957331.28421
  18711999.0334  -12214680.02645  -9455756.52361
  16395723.526   -32448658.216 7 -25183661.40823
  16886055.7914  -39200407.62048 -30423281.04763
  19704148.026    -3430550.172 4  -2249335.10921
 93  4 26 20 46 29.9860000  0  7G15G11G26G19G27G 2G13
  19788908.236   -11132085.795 5  -7563147.71221
  21097799.6274  -16840406.62244 -13011754.51961
  19101268.6974  -13041354.48746 -10046252.17661
  18714801.744   -12199931.816 6  -9444264.55221
  16390161.5414  -32477886.37547 -25206436.61664
  16873665.5184  -39265518.30848 -30474016.64363
  19669991.5654   -3610016.84844  -2389178.98161
 93  4 26 20 46 59.9860000  0  7G15G11G26G19G27G 2G13
  19773529.4244  -11212921.98745  -7626136.90661
  21105153.4864  -16801758.09444 -12981638.83561
  19079641.541   -13154999.624 6 -10134806.81821
  18717658.2834  -12184936.74346  -9432580.19761
  16384681.1664  -32506682.61247 -25228875.26063
  16861308.1194  -39330457.56948 -30524618.66163
  19635867.0334   -3789353.18745  -2528921.29961
 93  4 26 20 47 29.9860000  0  7G15G11G26G19G27G 2G13
  19758241.5884  -11293266.18045  -7688742.73161
  21112546.651   -16762908.087 4 -12951366.16321
  19058108.1354  -13268172.62046 -10222993.53561
  18720551.283   -12169700.958 6  -9420708.25721
  16379282.2994  -32535047.47247 -25250977.77063
  16848982.5184  -39395231.57548 -30575091.90664
  19601767.877    -3968549.572 5  -2668554.55421
 93  4 26 20 47 59.9860000  0  7G15G11G26G19G27G 2G13
  19743046.838   -11373116.295 5  -7750963.57421
  21119976.557   -16723858.849 4 -12920938.25321
  19036658.9084  -13380876.61546 -10310814.78861
  18723500.6584  -12154220.11845  -9408645.39061
  16373967.580   -32562985.490 7 -25272747.68323
  16836688.0574  -39459837.70248 -30625434.34964
  19567696.5334   -4147602.64145  -2808076.17261
 93  4 26 20 48 29.9860000  0  7G15G11G26G19G27G 2G13
  19727943.7914  -11452467.52445  -7812795.65161
  21127444.6664  -16684610.31143 -12890355.05261
  19015303.166   -13493106.721 6 -10398266.79121
  18726495.213   -12138488.664 5  -9396387.25121
  16368732.6824  -32590494.15947 -25294183.02263
  16824427.0804  -39524272.29948 -30675643.12164
  19533653.299    -4326506.082 5  -2947481.15821
 93  4 26 20 48 59.9860000  0  7G15G11G26G19G27G 2G13
  19712941.268   -11531322.603 5  -7874241.14321
  21134946.401   -16645169.298 3 -12859621.85821
  18994034.6434  -13604866.91646 -10485352.64561
  18729536.9164  -12122501.44745  -9383929.80861
  16363578.119   -32617578.648 7 -25315287.85023
  16812196.3934  -39588539.59548 -30725721.52364
  19499635.096    -4505260.900 5  -3086770.31521
 93  4 26 20 49 29.9860000  0  7G15G11G26G19G27G 2G13
  19698030.9714  -11609680.21145  -7935298.94661
  21142489.3544  -16605539.25743 -12828741.36561
  18972857.479   -13716161.478 6 -10572075.64521
  18732625.3544  -12106263.79145  -9371277.22261
  16358504.963   -32644238.853 7 -25336062.06224
  16799999.3384  -39652634.91848 -30775665.92464
  19465648.5104   -4683864.49345  -3225941.67561
 93  4 26 20 49 59.9860000  0  7G15G11G26G19G27G 2G13
  19683212.510   -11687542.043 5  -7995970.47421
  21150059.338   -16565726.316 3 -12797718.34221
  18951765.041   -13826984.077 6 -10658430.90021
  18735759.4634  -12089780.39145  -9358433.14061
  16353512.322   -32670476.914 7 -25356507.33624
  16787836.6584  -39716552.48048 -30825471.81264
  19431687.6434   -4862316.86845  -3364995.15561
 93  4 26 20 50 29.9860000  0  7G15G11G26G19G27G 2G13
  19668489.9474  -11764901.12545  -8056250.22461
  21157677.5724  -16525727.62244 -12766550.60461
  18930767.8074  -13937330.00146 -10744414.71861
  18738947.1824  -12073041.66745  -9345390.10961
  16348601.002   -32696287.367 7 -25376619.39823
  16775706.2684  -39780295.48448 -30875141.67764
  19397760.768    -5040609.081 5  -3503923.83921
 93  4 26 20 50 59.9860000  0  7G15G11G26G19G27G 2G13
  19653863.8774  -11841757.28845  -8116138.09261
  21165327.619   -16485547.408 3 -12735241.36021
  18909860.8464  -14047203.28646 -10830030.24061
  18742180.440   -12056041.309 5  -9332143.20221
  16343771.736   -32721659.660 7 -25396390.05124
  16763609.8154  -39843863.53548 -30924675.22064
  19363864.6744   -5218739.60645  -3642726.53961
 93  4 26 20 51 29.9860000  0  7G15G11G26G19G27G 2G13
  19639339.221   -11918114.181 5  -8175636.94421
  21173005.9084  -16445194.33944 -12703797.49461
  18889042.3384  -14156612.59746 -10915284.22561
  18745467.5884  -12038787.26945  -9318698.63861
  16339029.190   -32746585.407 7 -25415812.73723
  16751545.4634  -39907264.51348 -30974078.57064
  19329996.1904   -5396710.80745  -3781405.08861
 93  4 26 20 51 59.9860000  0  7G15G11G26G19G27G 2G13
  19624902.229   -11993972.441 5  -8234747.26021
  21180718.557   -16404672.750 3 -12672222.26421
  18868310.643   -14265548.005 6 -11000168.92221
  18748802.604   -12021270.313 5  -9305049.20021
  16334371.947   -32771060.560 7 -25434884.31424
  16739510.4794  -39970509.76248 -31023360.58064
  19296160.377    -5574521.169 5  -3919958.33421
 93  4 26 20 52 29.9860000  0  7G15G11G26G19G27G 2G13
  19610556.026   -12069329.483 5  -8293466.98721
  21188464.010   -16363984.183 4 -12640516.95821
  18847669.9714  -14374014.08746 -11084687.92861
  18752182.924   -12003484.689 5  -9291190.42221
  16329802.1354  -32795074.25747 -25453596.31464
  16727504.5654  -40033599.64948 -31072521.52164
  19262353.8694   -5752166.38645  -4058382.84061
 93  4 26 20 52 59.9860000  0  7G15G11G26G19G27G 2G13
  19596317.8384  -12144187.64945  -8351797.98961
  21196232.838   -16323135.532 3 -12608686.90121
  18827118.244   -14482010.859 6 -11168841.23921
  18755618.2214  -11985450.75245  -9277138.13761
  16325318.682   -32818634.786 7 -25471955.20824
  16715529.3934  -40096530.73848 -31121558.73364
  19228583.2914   -5929647.22345  -4196679.26761
 93  4 26 20 53 29.9860000  0  7G15G11G26G19G27G 2G13
  19582165.7214  -12218532.29845  -8409728.83061
  21204031.6114  -16282116.73642 -12576724.26361
  18806663.127   -14589517.833 6 -11252612.86721
  18759097.354   -11967161.858 5  -9262887.18921
  16320921.455   -32841742.960 7 -25489961.62024
  16703586.7054  -40159287.05948 -31170459.75864
  19194840.5024   -6106947.79645  -4334835.23061
 93  4 26 20 53 59.9860000  0  7G15G11G26G19G27G 2G13
  19568123.0964  -12292361.32545  -8467257.92661
  21211869.3694  -16240929.82842 -12544630.62761
  18786296.096   -14696538.970 5 -11336005.92621
  18762630.0724  -11948613.27945  -9248433.88361
  16316608.947   -32864407.336 7 -25507622.20023
  16691676.6904  -40221877.97948 -31219231.89764
  19161137.846    -6284064.227 5  -4472847.71821
 93  4 26 20 54 29.9860000  0  7G15G11G26G19G27G 2G13
  19554169.2764  -12365681.05145  -8524390.15361
  21219738.0024  -16199584.71242 -12512413.69861
  18766023.1744  -14803087.72646 -11419030.91461
  18766202.119   -11929832.621 5  -9233799.74721
  16312376.908   -32886647.595 7 -25524952.30623
  16679796.7134  -40284303.48747 -31267875.14364
  19127466.369    -6461000.953 5  -4610720.15421
 93  4 26 20 54 59.9860000  0  7G15G11G26G19G27G 2G13
  19540305.791   -12438490.082 5  -8581124.42921
  21227644.580   -16158084.513 3 -12480075.96721
  18745837.033   -14909148.074 6 -11501675.31121
  18769822.869   -11910822.252 5  -9218986.61421
  16308223.838   -32908468.534 7 -25541955.67623
  16667948.8614  -40346567.81948 -31316392.79364
  19093833.6664   -6637754.75145  -4748450.08661
 93  4 26 20 55 29.9850000  0  6G15G26G19G27G 2G13
  19526556.3574  -12510782.52945  -8637456.13761
  18725748.161   -15014709.792 5 -11583931.15821
  18773482.4894  -11891571.30045  -9203986.02261
  16304153.802   -32929859.469 7 -25558623.95523
  16656131.1774  -40408668.78948 -31364783.16064
  19060233.208    -6814314.271 5  -4886028.63821
 93  4 26 20 55 59.9850000  0  6G15G26G19G27G 2G13
  19512895.0134  -12582565.37845  -8693390.76761
  18705754.388   -15119785.383 6 -11665808.21821
  18777186.9194  -11872091.92845  -9188807.41361
  16300165.341   -32950821.062 7 -25574957.70223
  16644341.4354  -40470620.91348 -31413057.53764
  19026668.7554   -6990691.86245  -5023465.42261
 93  4 26 20 56 29.9850000  0  6G15G26G19G27G 2G13
  19499334.0754  -12653832.39145  -8748923.45361
  18685855.505   -15224355.627 6 -11747291.49121
  18780941.325   -11852379.192 5  -9173446.99421
  16296258.341   -32971350.189 7 -25590954.46924
  16632584.4424  -40532400.81148 -31461197.71164
  18993142.8494   -7166876.14045  -5160751.56161
 93  4 26 20 56 59.9850000  0  6G15G26G19G27G 2G13
  19485870.3804  -12724579.86945  -8804051.32361
  18666051.880   -15328422.704 5 -11828382.70621
  18784741.9824  -11832411.26045  -9157887.70961
  16292438.185   -32991428.220 7 -25606599.72924
  16620862.5524  -40594008.17348 -31509203.43964
  18959652.2714   -7342861.42445  -5297882.63261
 93  4 26 20 57 29.9850000  0  6G15G26G19G27G 2G13
  19472506.8104  -12794806.84145  -8858773.56961
  18646342.880   -15432002.303 6 -11909094.04221
  18788591.5214  -11812183.91945  -9142126.28161
  16288702.396   -33011056.786 7 -25621894.75724
  16609172.6384  -40655435.43948 -31557068.83264
  18926202.1224   -7518644.36945  -5434856.05561
 93  4 26 20 57 59.9850000  0  6G15G26G19G27G 2G13
  19459245.2554  -12864514.07745  -8913090.85561
  18626721.193   -15535101.693 6 -11989431.22021
  18792488.568   -11791694.383 5  -9126160.57521
  16285053.255   -33030234.652 7 -25636838.59324
  16597516.3414  -40716688.29148 -31604798.31664
  18892787.864    -7694224.723 5  -5571671.61821
 93  4 26 20 58 29.9850000  0  6G15G26G19G27G 2G13
  19446075.0284  -12933698.83945  -8967001.00861
  18607197.653   -15637711.235 6 -12069386.67421
  18796441.982   -11770940.563 5  -9109988.91321
  16281490.942   -33048957.986 7 -25651428.24124
  16585897.4194  -40777757.11848 -31652384.41564
  18859417.200    -7869597.599 5  -5708325.51421
 93  4 26 20 58 59.9850000  0  6G15G26G19G27G 2G13
  19433011.708   -13002357.332 5  -9020501.09421
  18587764.489   -15739828.003 6 -12148958.17021
  18800436.4114  -11749933.46045  -9093619.87361
  16278016.6224  -33067215.87947 -25665655.22064
  16574306.4034  -40838661.28748 -31699842.20564
  18826086.239    -8044756.948 5  -5844813.03821
 93  4 26 20 59 29.9850000  0  6G15G26G19G27G 2G13
  19420046.028   -13070491.720 5  -9073592.78521
  18568428.3884  -15841445.45046 -12228140.56361
  18804482.9114  -11728682.56445  -9077060.89861
  16274628.935   -33085021.125 7 -25679529.48123
  16562746.9114  -40899406.30148 -31747175.98564
  18792795.599    -8219703.020 5  -5981134.37721
 93  4 26 20 59 59.9850000  0  6G15G26G19G27G 2G13
  19407180.052   -13138100.602 5  -9126274.98521
  18549186.5684  -15942564.08746 -12306934.28161
  18808564.6464  -11707196.38945  -9060318.58661
  16271325.513   -33102374.404 7 -25693051.55223
  16551216.9114  -40959997.53848 -31794389.93564
  18759545.552    -8394432.633 5  -6117287.08921
 93  4 26 21  0 29.9850000  0  6G15G26G19G27G 2G13
  19394413.513   -13205191.823 5  -9178553.81821
  18530036.7864  -16043195.58546 -12385348.41761
  18812698.583   -11685491.991 5  -9043406.23221
  16268105.185   -33119294.645 7 -25706236.20423
  16539714.7084  -41020436.89848 -31841485.53664
  18726337.622    -8568951.275 5  -6253275.43221
 93  4 26 21  0 59.9850000  0  6G15G26G19G27G 2G13
  19381749.7324  -13271754.31745  -9230420.64061
  18510980.661   -16143340.117 6 -12463383.09821
  18816872.513   -11663554.275 5  -9026312.07421
  16264970.021   -33135769.617 7 -25719073.88023
  16528243.7004  -41080717.25048 -31888457.24064
  18693167.3414   -8743245.82845  -6389089.12661
 93  4 26 21  1 29.9850000  0  6G15G26G19G27G 2G13
  19369184.3724  -13337782.79445  -9281871.36761
  18492014.1614  -16242998.90246 -12541039.28361
  18821095.583   -11641376.377 5  -9009030.75821
  16261919.458   -33151802.123 7 -25731566.77723
  16516806.3334  -41140828.02048 -31935296.80664
  18660045.083    -8917308.869 5  -6524722.39721
 93  4 26 21  1 59.9850000  0  6G15G26G19G27G 2G13
  19356714.1464  -13403277.54945  -9332906.21461
  18473145.2474  -16342164.00446 -12618310.79061
  18825358.0364  -11618976.35345  -8991576.33061
  16258953.177   -33167390.881 7 -25743713.89824
  16505398.4664  -41200770.68548 -31982005.37964
  18626964.732    -9091138.918 6  -6660174.16821
 93  4 26 21  2 29.9850000  0  6G15G26G19G27G 2G13
  19344357.028   -13468239.254 5  -9383525.66621
  18454370.2164  -16440817.26546 -12695183.44261
  18829661.7944  -11596354.34645  -8973948.96561
  16256071.138   -33182533.334 7 -25755513.25923
  16494022.9504  -41260551.95748 -32028588.18464
  18593931.6464   -9264734.71646  -6795443.37261
 93  4 26 21  2 59.9850000  0  6G15G26G19G27G 2G13
  19332102.7164  -13532664.99145  -9433727.50161
  18435696.2864  -16538948.72846 -12771649.51361
  18834006.6854  -11573510.50645  -8956148.75061
  16253274.661   -33197232.200 7 -25766966.96123
  16482677.1224  -41320183.54248 -32075054.35464
  18560943.903    -9438091.398 6  -6930526.29621
 93  4 26 21  3 29.9850000  0  6G15G26G19G27G 2G13
  19319940.8334  -13596557.62745  -9483513.90961
  18417124.005   -16636555.608 6 -12847706.77521
  18838396.4664  -11550444.04745  -8938175.07061
  16250558.521   -33211507.087 7 -25778090.29324
  16471357.7864  -41379663.97148 -32121402.73364
  18528001.325    -9611209.716 6  -7065423.48121
 93  4 26 21  3 59.9850000  0  6G15G26G19G27G 2G13
  19307878.1074  -13659915.30545  -9532883.51261
  18398648.3644  -16733633.69346 -12923352.04161
  18842832.8254  -11527140.95345  -8920016.95561
  16247922.872   -33225355.414 7 -25788881.24124
  16460071.6304  -41438974.98748 -32167619.10264
  18495103.4114   -9784085.38546  -7200131.59661
 93  4 26 21  4 29.9850000  0  6G15G26G19G27G 2G13
  19295929.825   -13722728.836 5  -9581829.07221
  18380280.396   -16830176.405 6 -12998580.10821
  18847313.9274  -11503571.03945  -8901650.93761
  16245371.599   -33238772.422 7 -25799336.09424
  16448818.2394  -41498104.23248 -32213693.83464
  18462251.278    -9956706.995 6  -7334641.75421
 93  4 26 21  4 59.9850000  0  6G15G26G19G27G 2G13
  19284078.8724  -13785003.13345  -9630354.48361
  18362010.6934  -16926191.61546 -13073397.14961
  18851855.2944  -11479736.84745  -8883079.06161
  16242896.724   -33251767.734 7 -25809462.34624
  16437602.3334  -41557052.46348 -32259627.51564
  18429450.3104  -10129077.90445  -7468956.57361
 93  4 26 21  5 29.9850000  0  6G15G26G19G27G 2G13
  19272333.4434  -13846734.30245  -9678456.64561
  18343839.7394  -17021668.18946 -13147794.45461
  18856438.9504  -11455631.81044  -8864296.08861
  16240509.732   -33264317.264 7 -25819241.24524
  16426419.4894  -41615810.26848 -32305412.82064
  18396698.7554  -10301191.74845  -7603071.05061
 93  4 26 21  5 59.9850000  0  6G15G26G19G27G 2G13
  19260687.3574  -13907914.75045  -9726129.69061
  18325775.2634  -17116595.73646 -13221763.96461
  18861074.005   -11431265.439 5  -8845309.49921
  16238212.161   -33276388.515 7 -25828647.44224
  16415274.1924  -41674383.61348 -32351054.38564
  18363996.4664  -10473037.58945  -7736976.69861
 93  4 26 21  6 29.9850000  0  6G15G26G19G27G 2G13
  19249151.536   -13968559.577 5  -9773385.37121
  18307810.685   -17211003.164 6 -13295328.16821
  18865760.2164  -11406671.16445  -8826145.28261
  16236002.778   -33287997.049 7 -25837693.08924
  16404153.9824  -41732818.38348 -32396587.97064
  18331343.497   -10644629.067 5  -7870684.15521
 93  4 26 21  6 59.9850000  0  6G15G26G19G27G 2G13
  19237707.5284  -14028673.67245  -9820227.50061
  18289939.2164  -17304912.76946 -13368504.47461
  18870481.732   -11381869.225 5  -8806819.26221
  16233881.450   -33299148.761 7 -25846382.77124
  16393057.8574  -41791127.83748 -32442023.90864
  18298740.0444  -10815969.19845  -8004195.77761
 93  4 26 21  7 29.9850000  0  6G15G26G19G27G 2G13
  19226372.9274  -14088262.67145  -9866660.45261
  18272161.1774  -17398348.09546 -13441311.19761
  18875235.278   -11356876.407 4  -8787344.52421
  16231842.825   -33309858.043 7 -25854727.69624
  16381984.2864  -41849318.56048 -32487367.33264
  18266183.716   -10987061.411 5  -8137514.21721
 93  4 26 21  7 59.9840000  0  6G15G26G19G27G 2G13
  19215133.266   -14147305.324 5  -9912667.68521
  18254469.6334  -17491298.04446 -13513739.73461
  18880021.727   -11331680.392 4  -8767711.45321
  16229887.938   -33320133.675 7 -25862734.71724
  16370936.1024  -41907369.25048 -32532601.63564
  18233676.625   -11157878.251 5  -8270618.06721
 93  4 26 21  8 29.9840000  0  6G15G26G19G27G 2G13
  19204000.1724  -14205804.06245  -9958251.09361
  18236876.289   -17583766.531 6 -13585793.07721
  18884867.6104  -11306265.45245  -8747907.78261
  16228009.047   -33329997.868 7 -25870421.14424
  16359919.3054  -41965271.86648 -32577720.55464
  18201223.0244  -11328427.32045  -8403513.27761
 93  4 26 21  8 59.9840000  0  6G15G26G19G27G 2G13
  19192970.8914  -14263752.42545
  18219375.6334  -17675728.32046 -13657451.60061
  18889742.602   -11280625.454 5  -8727928.73721
  16226211.6174  -33339445.85947 -25877783.26364
  16348935.0944  -42022992.97048
  18168819.8284  -11498696.01445  -8536190.02161
 93  4 26 21  9 29.9840000  0  6G15G26G19G27G 2G13
  19182049.977   -14321155.537 5 -10048135.32621
  18201973.977   -17767176.930 6 -13728710.24421
  18894668.867   -11254754.256 4  -8707769.52921
  16224495.242   -33348476.251 7 -25884819.96824
  16337984.8754  -42080531.03948 -32667532.90264
  18136469.4454  -11668687.22545  -8668650.55661
 93  4 26 21  9 59.9840000  0  6G15G26G19G27G 2G13
  19171234.8524  -14378011.60746 -10092438.70561
  18184673.1804  -17858087.51546 -13799549.63861
  18899639.531   -11228646.153 4  -8687425.75921
  16222857.672   -33357077.888 7 -25891522.57924
  16327072.7274  -42137878.20048 -32712219.00064
  18104176.9854  -11838396.38145  -8800891.28161
 93  4 26 21 10 29.9840000  0  6G15G26G19G27G 2G13
  19160510.8604  -14434319.01745 -10136314.60061
  18167477.6884  -17948456.97946 -13869967.39661
  18904648.4694  -11202295.34044  -8666892.84661
  16221306.766   -33365230.300 7 -25897875.14824
  16316199.2194  -42195028.85148 -32756751.97464
  18071936.039   -12007819.875 6  -8932909.41321
 93  4 26 21 10 59.9840000  0  6G15G26G19G27G 2G13
  19149905.0864  -14490091.73246 -10179773.83961
  18150378.211   -18038306.123 6 -13939979.69521
  18909709.641   -11175720.100 4  -8646185.07821
  16219839.109   -33372938.785 7 -25903881.79924
  16305354.9384  -42252009.69548 -32801152.63364
  18039750.961   -12176968.605 6  -9064713.45521
 93  4 26 21 11 29.9840000  0  6G15G26G19G27G 2G13
  19139390.2194  -14545324.76046 -10222812.53161
  18133382.9854  -18127626.96546 -14009580.33061
  18914805.352   -11148917.020 5  -8625299.71221
  16218456.930   -33380200.789 7 -25909540.54824
  16294541.2974  -42308836.21648 -32845433.04064
  18007615.828   -12345835.168 6  -9196297.62821
 93  4 26 21 11 59.9840000  0  6G15G26G19G27G 2G13
  19128982.453   -14600013.575 6 -10265427.15721
  18116485.992   -18216414.810 6 -14078765.65821
  18919951.867   -11121899.675 5  -8604247.46921
  16217160.1954  -33387020.00047 -25914854.28864
  16283754.2034  -42365518.70948 -32889601.21164
  17975533.469   -12514413.078 6  -9327656.88021
 93  4 26 21 12 29.9840000  0  6G15G26G19G27G 2G13
  19118679.7974  -14654159.94046 -10307619.11661
  18099687.2504  -18304694.91346 -14147555.33961
  18925137.1954  -11094660.55045  -8583022.37261
  16215947.469   -33393392.366 7 -25919819.79424
  16272992.9064  -42422074.54948 -32933670.69964
  17943510.3674  -12682701.88745  -9458790.84361
 93  4 26 21 12 59.9840000  0  6G15G26G19G27G 2G13
  19108483.422   -14707765.167 6 -10349389.38321
  18082985.1494  -18392459.43646 -14215943.26861
  18930352.485   -11067207.696 4  -8561630.70421
  16214819.524   -33399326.311 7 -25924443.69524
  16262254.2504  -42478505.53648 -32977642.89164
  17911542.7894  -12850700.41646  -9589698.63161
 93  4 26 21 13 29.9840000  0  6G15G26G19G27G 2G13
  19098384.3914  -14760828.52546 -10390737.48161
  18066384.1724  -18479703.01846 -14283925.27161
  18935623.9224  -11039542.15745  -8540073.33361
  16213769.852   -33404833.061 7 -25928734.72224
  16251542.0864  -42534795.88248 -33021505.48764
  17879629.438   -13018405.830 6  -9720378.00721
 93  4 26 21 13 59.9840000  0  6G15G26G19G27G 2G13
  19088387.305   -14813346.917 6 -10431660.83221
  18049877.1804  -18566435.28546 -14351508.84861
  18940929.156   -11011656.863 4  -8518344.73621
  16212804.555   -33409910.608 7 -25932691.29424
  16240864.2194  -42590919.32848 -33065238.03764
  17847771.2034  -13185811.41246  -9850823.75161
 93  4 26 21 14 29.9840000  0  6G15G26G19G27G 2G13
  19078502.0314  -14865318.00946 -10472157.76861
  18033472.266   -18652652.011 6 -14418690.70021
  18946280.172   -10983537.389 5  -8496433.67421
  16211921.844   -33414546.514 7 -25936303.73224
  16230219.0314  -42646849.74748 -33108820.18464
  17815975.1884  -13352912.40446  -9981032.15861
 93  4 26 21 14 59.9840000  0  6G15G26G19G27G 2G13
  19068717.7584  -14916742.91646 -10512229.09361
  18017168.1884  -18738330.15546 -14485452.88461
  18951669.727   -10955205.009 5  -8474356.68421
  16211121.266   -33418758.908 7 -25939586.15824
  16219612.6494  -42702580.77148 -33152246.95864
  17784232.5394  -13519707.94346 -10111002.54361
 93  4 26 21 15 29.9840000  0  6G15G26G19G27G 2G13
  19059034.4854  -14967618.24146 -10551872.20661
  18000964.2504  -18823468.46146 -14551794.40961
  18957105.2894  -10926659.02245  -8452113.28561
  16210402.766   -33422532.008 7 -25942526.26924
  16209044.1174  -42758119.55248 -33195523.92664
  17752554.766   -13686191.902 6 -10240730.13821
 93  4 26 21 15 59.9840000  0  6G15G26G19G27G 2G13
  19049459.594   -15017935.058 6 -10591080.08321
  17984871.6564  -18908048.71446 -14617701.09061
  18962578.5084  -10897902.00345  -8429705.43961
  16209774.1564  -33425831.99547 -25945097.73363
  16198510.4774  -42813477.64948 -33238660.09964
  17720933.539   -13852352.779 6 -10370205.97021
 93  4 26 21 16 29.9840000  0  6G15G26G19G27G 2G13
  19039984.6024  -15067703.31246 -10629860.50961
  17968879.2504  -18992072.33146 -14683174.03561
  18968085.360   -10868954.441 5  -8407149.06321
  16209234.3204  -33428672.28847 -25947311.00063
  16188005.2034  -42868689.46948 -33281682.29164
  17689373.742   -14018198.249 6 -10499436.05921
 93  4 26 21 16 59.9840000  0  6G15G26G19G27G 2G13
  19030615.500   -15116926.719 5 -10668216.39621
  17952998.5944  -19075542.18946 -14748215.45761
  18973621.6804  -10839840.85144  -8384463.38861
  16208777.6254  -33431076.61147 -25949184.54863
  16177519.6954  -42923781.80048 -33324611.37764
  17657872.141   -14183729.499 6 -10628421.30921
 93  4 26 21 17 29.9840000  0  6G15G26G19G27G 2G13
  19021354.6884  -15165603.77546 -10706146.53561
  17937215.2114  -19158485.56746 -14812846.66861
  18979197.7584  -10810555.59645  -8361643.91461
  16208403.094   -33433042.027 7 -25950716.07523
  16167059.5554  -42978752.88048 -33367445.97964
  17626436.227   -14348941.808 6 -10757158.02221
 93  4 26 21 17 59.9840000  0  6G15G26G19G27G 2G13
  19012200.2814  -15213745.82746 -10743659.81161
  17921525.656   -19240927.163 6 -14877086.84021
  18984801.9854  -10781104.79945  -8338695.43661
  16208105.5314  -33434605.45047 -25951934.37963
  16156623.6954  -43033597.20748 -33410181.80564
  17595055.164   -14513843.990 6 -10885653.10721
 93  4 26 21 18 29.9840000  0  6G15G26G19G27G 2G13
  19003137.6254  -15261342.98146 -10780748.49261
  17905936.3674  -19322864.93646 -14940934.44661
  18990443.5474  -10751469.13045  -8315602.91761
  16207880.492   -33435778.627 7 -25952848.57923
  16146217.2034  -43088281.93248 -33452793.27464
  17563737.727   -14678423.551 6 -11013896.76221
 93  4 26 21 18 59.9840000  0  6G15G26G19G27G 2G13
  18994181.149   -15308392.576 5 -10817410.47121
  17890436.7354  -19404306.50446 -15004395.39061
  18996124.086   -10721636.827 5  -8292357.20221
  16207733.844   -33436557.049 7 -25953455.17423
  16135842.8524  -43142798.20948 -33495273.48464
  17532477.516   -14842674.775 6 -11141884.55621
 93  4 26 21 19 29.9840000  0  6G15G26G19G27G 2G13
  18985339.6804  -15354890.47946 -10853642.60361
  17875032.7274  -19485252.17846 -15067469.95961
  19001843.766   -10691579.067 5  -8268935.78621
  16207663.555   -33436930.806 7
  16125505.7114  -43197126.88048 -33537607.50864
  17501285.8204  -15006591.13146 -11269611.46161
 93  4 26 21 19 59.9840000  0  6G15G26G19G27G 2G13
  18976596.0314  -15400838.32545 -10889446.12061
  17859730.2584  -19565682.23846 -15130142.71661
  19007607.7354  -10661289.72745  -8245333.91161
  16207670.891   -33436890.125 7
  16115201.5244  -43251271.60448 -33579798.19864
  17470158.3444  -15170172.16546 -11397077.05361
 93  4 26 21 20 29.9830000  0  6G15G26G19G27G 2G13
  18967955.2064  -15446232.03046 -10924817.80561
  17844524.1754  -19645577.86346 -15192399.02861
  19013412.3474  -10630765.42845  -8221548.97261
  16207759.7764  -33436418.80447
  16104929.6594  -43305243.42748 -33621854.16064
  17439095.542   -15333406.720 6 -11524272.67321
 93  4 26 21 20 59.9830000  0  6G15G26G19G27G 2G13
  18959421.8314  -15491075.96245 -10959761.12361
  17829419.3234  -19724947.07746 -15254245.15861
  19019265.3624  -10600009.66544  -8197583.67061
  16207934.612   -33435515.054 7 -25952643.40423
  16094690.7374  -43359055.12048 -33663785.34864
  17408096.066   -15496304.204 6 -11651205.64121
 93  4 26 21 21 29.9830000  0  6G15G26G19G27G 2G13
  18950991.230   -15535367.825 5 -10994274.23921
  17814421.745   -19803772.182 6 -15315667.30821
  19025158.0504  -10569037.32644  -8173449.60361
  16208189.0344  -33434169.74347 -25951595.16163
  16084483.2614  -43412696.33848 -33705583.69964
  17377165.534   -15658855.662 6 -11777868.97221
 93  4 26 21 21 59.9830000  0  6G15G26G19G27G 2G13
  18942667.331   -15579110.986 5 -11028359.80521
  17799525.8314  -19882051.48246 -15376664.14561
  19031091.9874  -10537877.58844  -8149169.51461
  16208528.542   -33432382.368 7 -25950202.45623
  16074306.1444  -43466178.32548 -33747257.98164
  17346301.1364  -15821061.53846 -11904263.00861
 93  4 26 21 22 29.9830000  0  6G15G26G19G27G 2G13
  18934452.7534  -15622301.77445 -11062014.94861
  17784731.8474  -19959784.67946 -15437235.47461
  19037054.456   -10506539.386 4  -8124750.38021
  16208950.8394  -33430163.91347 -25948473.84263
  16064159.1674  -43519495.71148 -33788803.98964
  17315499.2304  -15982915.84846 -12030383.11061
 93  4 26 21 22 59.9830000  0  6G15G26G19G27G 2G13
  18926337.9874  -15664943.55645 -11095242.29961
  17770044.386   -20036976.587 6 -15497384.97421
  19043046.7304  -10475040.47544  -8100206.01261
  16209454.081   -33427513.660 7 -25946408.75923
  16054044.5504  -43572653.28548 -33830225.48264
  17284767.3314  -16144419.12146 -12156229.68761
 93  4 26 21 23 29.9830000  0  6G15G26G19G27G 2G13
  18918325.8784  -15707032.80245 -11128039.11661
  17755458.9564  -20113619.87646 -15557107.03361
  19049076.9254  -10443374.22144  -8075531.21861
  16210042.542   -33424427.365 7 -25944003.91723
  16043957.7764  -43625656.70548 -33871526.85464
  17254101.3084  -16305564.37446 -12281797.28561
 93  4 26 21 23 59.9830000  0  6G15G26G19G27G 2G13
  18910419.0504  -15748574.01845 -11160408.88561
  17740975.761   -20189725.922 6 -15616410.42921
  19055130.2614  -10411531.86843  -8050719.24861
  16210708.6834  -33420928.86647 -25941277.87263
  16033900.7304  -43678515.91048 -33912715.84764
  17223503.448   -16466353.494 6 -12407087.35621
 93  4 26 21 24 29.9830000  0  6G15G26G19G27G 2G13
  18902622.917   -15789570.893 5 -11192354.48321
  17726597.8944  -20265299.82446 -15675299.17861
  19061224.175   -10379502.018 3  -8025761.18021
  16211452.0664  -33417024.76547 -25938235.77363
  16023868.2534  -43731226.96248 -33953789.39164
  17192973.8944  -16626787.31846 -12532100.61061
 93  4 26 21 24 59.9830000  0  6G15G26G19G27G 2G13
  18894920.2454  -15830029.21445 -11223880.45361
  17712315.0344  -20340347.11946 -15733777.60261
  19067358.292   -10347288.120 4  -8000659.70521
  16212270.597   -33412715.501 7 -25934877.94523
  16013864.0424  -43783795.74548 -33994752.08364
  17162509.3084  -16786869.22446 -12656839.64061
 93  4 26 21 25 29.9830000  0  6G15G26G19G27G 2G13
  18887328.886   -15869942.217 5 -11254981.44921
  17698135.4804  -20414856.78246 -15791837.06761
  19073530.8004  -10314865.68844  -7975395.69161
  16213166.8084  -33408008.59347 -25931210.27663
  16003892.9564  -43836205.71448 -34035591.02564
  17132116.0664  -16946588.79246 -12781296.31061
 93  4 26 21 25 59.9830000  0  6G15G26G19G27G 2G13
  18879832.644   -15909303.073 5 -11285652.23221
  17684060.7304  -20488827.14846 -15849476.33061
  19079737.6594  -10282230.16843  -7949965.65561
  16214141.222   -33402892.620 7 -25927223.85723
  15993951.7304  -43888436.54748 -34076290.37364
  17101795.956   -17105936.697 6 -12905463.36121
 93  4 26 21 26 29.9830000  0  6G15G26G19G27G 2G13
  18872454.7614  -15948110.68645 -11315891.93961
  17670089.4414  -20562254.29446 -15906692.28861
  19085979.698   -10249392.775 2  -7924378.32321
  16215197.073   -33397344.364 7 -25922900.59723
  15984047.6984  -43940490.67648 -34116852.04364
  17071543.894   -17264909.194 6 -13029337.89721
 93  4 26 21 26 59.9830000  0  6G15G26G19G27G 2G13
  18865168.862   -15986375.101 5 -11345708.34621
  17656213.8554  -20635153.53146 -15963496.88761
  19092272.5584  -10216361.63243  -7898640.06661
  16216333.425   -33391373.123 7 -25918247.72623
  15974170.8394  -43992390.83148 -34157293.71864
  17041362.9564  -17423512.91346 -13152925.08661
 93  4 26 21 27 29.9830000  0  6G15G26G19G27G 2G13
  18857995.4724  -16024091.27345 -11375097.55461
  17642442.495   -20707526.658 6 -16019891.55121
  19098592.003   -10183131.060 3  -7872746.38221
  16217551.4484  -33384969.79347 -25913258.18263
  15964324.3314  -44044138.94148 -34197616.93064
  17011251.261   -17581740.721 6 -13276219.34521
 93  4 26 21 27 59.9830000  0  6G15G26G19G27G 2G13
  18850920.2534  -16061252.75645 -11404054.54161
  17628770.4564  -20779377.64646 -16075879.33161
  19104954.1444  -10149713.95743  -7846707.34361
  16218853.3864  -33378116.60047 -25907918.09163
  15954504.9014  -44095729.02548 -34237816.99364
  16981216.761   -17739582.949 6 -13399213.16121
 93  4 26 21 28 29.9830000  0  6G15G26G19G27G 2G13
  18843949.909   -16097868.043 5 -11432585.93521
  17615195.253   -20850715.605 6 -16131467.34421
  19111344.159   -10116118.561 3  -7820529.35621
  16220240.1754  -33370836.04147 -25902244.99163
  15944716.3164  -44147176.71948 -34277906.10864
  16951253.175   -17897045.124 6 -13521910.82321
 93  4 26 21 28 59.9830000  0  6G15G26G19G27G 2G13
  18837090.2534  -16133936.56045 -11460691.26161
  17601714.9414  -20921545.83246 -16186659.75061
  19117777.589   -10082342.778 3  -7794210.84021
  16221705.3394  -33363147.39547 -25896253.89963
  15934952.3164  -44198483.16948 -34317885.16664
  16921361.909   -18054123.161 6 -13644309.14821
 93  4 26 21 29 29.9830000  0  6G15G26G19G27G 2G13
  18830332.2224  -16169467.59445 -11488377.78061
  17588336.6054  -20991859.78546 -16241449.86061
  19124233.9254  -10048415.66143  -7767774.38861
  16223240.159   -33355072.389 7 -25889961.74323
  15925217.3704  -44249642.76048 -34357749.78864
  16891540.7064  -18210823.50746 -13766413.18361
 93  4 26 21 29 59.9830000  0  6G15G26G19G27G 2G13
  18823667.941   -16204465.469 5 -11515648.84321
  17575054.4644  -21061658.33546 -16295838.33661
  19130716.3704  -10014340.56343  -7741222.65461
  16224847.4254  -33346624.67147 -25883379.15763
  15915512.8554  -44300643.32148 -34397490.48664
  16861794.128   -18367147.658 6 -13888224.07021
 93  4 26 21 30 29.9830000  0  6G15G26G19G27G 2G13
  18817112.4014  -16238930.04745 -11542504.35661
  17561873.2224  -21130926.50546 -16349813.54161
  19137229.269    -9980111.896 3  -7714551.22921
  16226526.0664  -33337811.36247 -25876511.71163
  15905837.0974  -44351491.53448 -34437112.47564
  16832118.456   -18523092.815 6 -14009739.66821
 93  4 26 21 30 59.9830000  0  6G15G26G19G27G 2G13
  18810658.1364  -16272844.77845 -11568931.42161
  17548800.144   -21199636.953 6 -16403354.14821
  19143767.722    -9945726.353 3  -7687757.61421
  16228279.4804  -33328602.76547 -25869336.23562
  15896190.5584  -44402168.37748 -34476600.92864
  16802516.956   -18678638.906 6 -14130944.27221
 93  4 26 21 31 29.9830000  0  6G15G26G19G27G 2G13
  18804303.5584  -16306210.69145 -11594930.83661
  17535826.0814  -21267788.77046 -16456459.47961
  19150348.698    -9911178.418 3  -7660837.42221
  16230109.0264  -33318987.40647 -25861843.80562
  15886585.4954  -44452659.22548 -34515944.45364
  16772994.526   -18833784.058 6 -14251836.47521
 93  4 26 21 31 59.9830000  0  6G15G26G19G27G 2G13
  18798059.2614  -16339033.86045 -11620507.33461
  17522960.0194  -21335416.15246 -16509156.15361
  19156958.1204   -9876467.53443  -7633790.29261
  16232016.5814  -33308954.35647 -25854025.90462
  15877009.9954  -44502975.42048 -34555151.88064
  16743547.8004  -18988531.51046 -14372418.78661
 93  4 26 21 32 29.9830000  0  6G15G26G19G27G 2G13
  18791920.1514  -16371310.94645 -11645658.34761
  17510190.8624  -21402507.32246 -16561434.98461
  19163593.0664   -9841598.39543  -7606619.85461
  16234008.8394  -33298491.51247 -25845873.11262
  15867467.7694  -44553124.22048 -34594228.86964
  16714176.066   -19142875.195 6 -14492686.46121
 93  4 26 21 32 59.9830000  0  6G15G26G19G27G 2G13
  18785879.847   -16403050.447 5 -11670390.46921
  17497521.2224  -21469085.36446 -16613313.99861
  19170254.1834   -9806580.47244  -7579333.48561
  16236078.2924  -33287604.23347 -25837389.56662
  15857956.3704  -44603099.64348 -34633170.75864
  16684880.8944  -19296820.09546 -14612643.40861
 93  4 26 21 33 29.9820000  0  6G15G26G19G27G 2G13
  18779942.3184  -16434251.37145 -11694702.88061
  17484952.6624  -21535148.53346 -16664791.80561
  19176949.5144   -9771393.75043  -7551915.57661
  16238229.8584  -33276305.26447 -25828585.24062
  15848481.6624  -44652895.05648 -34671972.37864
  16655665.2794  -19450357.84246 -14732283.09161
 93  4 26 21 33 59.9820000  0  6G15G26G19G27G 2G13
  18774104.9754  -16464927.39046 -11718606.28661
  17472475.9284  -21600698.08746 -16715869.38161
  19183680.545    -9736049.043 3  -7524374.52621
  16240454.5924  -33264614.80847 -25819475.85662
  15839035.9284  -44702533.85348 -34710651.96264
  16626519.0764  -19603507.72946 -14851620.56061
 93  4 26 21 34 29.9820000  0  6G15G26G19G27G 2G13
  18768369.8584  -16495064.61046 -11742089.82561
  17460110.0064  -21665696.48846 -16766517.49261
  19190436.8184   -9700530.27243  -7496697.91161
  16242752.8814  -33252531.39147 -25810060.27562
  15829622.1624  -44752000.63648 -34749197.51264
  16597454.6934  -19756248.33546 -14970639.10461
 93  4 26 21 34 59.9820000  0  6G15G26G19G27G 2G13
  18762738.1544  -16524663.37646 -11765153.82061
  17447842.389   -21730156.263 6 -16816745.91421
  19197234.4434   -9664820.58943  -7468872.45461
  16245123.8734  -33240065.97547 -25800347.01962
  15820241.3584  -44801299.68848 -34787612.36564
  16568465.1784  -19908576.67146 -15089336.39861
 93  4 26 21 35 29.9820000  0  6G15G26G19G27G 2G13
  18757204.0534  -16553733.30546 -11787805.71461
  17435679.7094  -21794081.26846 -16866557.61361
  19204060.9434   -9628926.31343  -7440903.27261
  16247567.4364  -33227232.32747 -25790346.84062
  15810885.9364  -44850457.54748 -34825917.19564
  16539559.576   -20060500.217 6 -15207718.27121
 93  4 26 21 35 59.9820000  0  6G15G26G19G27G 2G13
  18751776.186   -16582265.895 6 -11810038.93021
  17423614.428   -21857475.045 6 -16915955.36521
  19210932.3184   -9592859.36642  -7412799.49461
  16250080.7794  -33214025.84547 -25780056.14462
  15801559.7874  -44899474.78748 -34864112.45264
  16510727.2014  -20212006.91946 -15325775.32961
 93  4 26 21 36 29.9820000  0  5G15G26G27G 2G13
  18746449.3184  -16610260.86146 -11831853.16961
  17411649.381   -21920350.508 6 -16964949.25521
  16252664.3974  -33200448.74947 -25769476.64362
  15792256.7564  -44948354.98948 -34902200.92564
  16481976.9984  -20363093.35446 -15443504.90661
 93  4 26 21 36 59.9820000  0  5G15G26G27G 2G13
  18741220.5224  -16637718.71245 -11853248.92061
  17399781.8584  -21982713.90646 -17013544.12261
  16255318.3034  -33186497.99847 -25758606.00362
  15782980.7874  -44997095.33248 -34940180.42164
  16453307.1394  -20513756.76847 -15560904.85861
 93  4 26 21 37 29.9820000  0  5G15G26G27G 2G13
  18736101.506   -16664643.331 5 -11874229.17221
  17388015.7644  -22044553.80446 -17061731.05561
  16258045.0684  -33172174.36347 -25747444.79562
  15773734.9904  -45045690.05248 -34978046.44364
  16424714.904   -20663998.370 6 -15677976.12621
 93  4 26 21 37 59.9820000  0  5G15G26G27G 2G13
  18731076.686   -16691039.309 5 -11894797.47121
  17376349.3974  -22105871.20446 -17109510.87061
  16260844.193   -33157466.257 7 -25735984.00023
  15764516.4044  -45094132.48348 -35015793.79564
  16396207.717   -20813819.222 7 -15794719.54421
 93  4 26 21 38 29.9820000  0  5G15G26G27G 2G13
  18726153.373   -16716904.811 5 -11914952.41921
  17364778.4834  -22166657.99446 -17156877.20761
  16263723.5764  -33142342.65047 -25724199.44562
  15755329.4364  -45142410.14448 -35053412.76364
  16367777.7794  -20963214.07047 -15911131.00261
 93  4 26 21 38 59.9820000  0  5G15G26G27G 2G13
  18721335.3114  -16742236.00345 -11934691.01361
  17353317.3584  -22226902.48146 -17203820.99161
  16266680.1544  -33126793.24047 -25712083.08762
  15746174.5374  -45190515.82148 -35090897.71364
  16339429.2174  -21112176.31847 -16027205.37461
 93  4 26 21 39 29.9820000  0  5G15G26G27G 2G13
  18716616.6004  -16767033.07145 -11954013.40561
  17341955.0144  -22286610.62346 -17250346.82461
  16269722.1394  -33110812.70947 -25699630.79162
  15737054.9834  -45238447.63548 -35128247.17864
  16311167.084   -21260702.338 7 -16142939.82721
 93  4 26 21 39 59.9820000  0  5G15G26G27G 2G13
  18712000.5064  -16791292.84445 -11972917.15161
  17330689.1864  -22345799.68346 -17296468.18261
  16272846.4594  -33094402.42247 -25686843.61962
  15727966.7334  -45286198.44348 -35165455.61164
  16282988.154   -21408786.317 7 -16258329.84521
 93  4 26 21 40 29.9820000  0  5G15G26G27G 2G13
  18707482.6394  -16815018.78145 -11991404.92661
  17319524.1784  -22404478.99346 -17342192.34361
  16276047.2404  -33077581.88847 -25673736.79162
  15718914.4984  -45333774.65348 -35202527.98764
  16254890.865   -21556428.854 7 -16373375.87621
 93  4 26 21 40 59.9820000  0  5G15G26G27G 2G13
  18703070.1934  -16838218.64745 -12009482.75161
  17308450.1624  -22462657.72946 -17387526.44861
  16279317.2644  -33060388.15047 -25660339.14062
  15709893.8654  -45381179.18148 -35239466.58764
  16226879.733   -21703634.032 7 -16488081.10821
 93  4 26 21 41 29.9820000  0  5G15G26G27G 2G13
  18698757.334   -16860891.618 5 -12027149.99421
  17297473.9364  -22520352.60446 -17432483.50261
  16282661.9674  -33042824.16647 -25646653.00162
  15700905.2174  -45428406.61848 -35276267.20064
  16198949.647   -21850397.823 6 -16602442.39121
 93  4 26 21 41 59.9820000  0  5G15G26G27G 2G13
  18694542.693   -16883043.320 5 -12044411.07521
  17286586.2954  -22577555.75546 -17477057.41761
  16286069.2334  -33024906.59847 -25632691.33662
  15691951.7794  -45475465.65248 -35312936.57964
  16171104.373   -21996723.091 6 -16716461.98421
 93  4 26 21 42 29.9820000  0  5G15G26G27G 2G13
  18690422.7254  -16904673.07045 -12061265.45261
  17275802.9044  -22634244.61546 -17521230.55061
  16289549.0614  -33006629.76447 -25618449.71462
  15683026.8654  -45522364.37348 -35349481.03664
  16143346.404   -22142605.370 6 -16830136.39021
 93  4 26 21 42 59.9820000  0  5G15G26G27G 2G13
  18686407.850   -16925777.736 5 -12077710.65221
  17265111.5614  -22690411.37846 -17564996.88061
  16293095.576   -32987993.199 7 -25603927.79822
  15674135.4514  -45569087.37048 -35385888.57164
  16115670.4904  -22288038.23646 -16943460.60561
 93  4 26 21 43 29.9820000  0  5G15G26G27G 2G13
  18682490.045   -16946347.225 5 -12093738.82621
  17254527.3654  -22746034.58346 -17608339.64661
  16296712.9594  -32968979.13947 -25589111.71662
  15665278.0224  -45615632.25948 -35422157.31364
  16088084.881   -22433009.163 7 -17056424.86121
 93  4 26 21 43 59.9820000  0  5G15G26G27G 2G13
  18678682.8504  -16966385.97545 -12109353.44361
  17244051.0454  -22801103.95446 -17651250.88561
  16300401.2094  -32949592.71846 -25574005.48962
  15656454.7404  -45662003.17548 -35458290.50264
  16060584.358   -22577519.145 7 -17169029.95221
 93  4 26 21 44 29.9820000  0  5G15G26G27G 2G13
  18674964.397   -16985904.915 5 -12124563.02021
  17233671.6864  -22855640.22946 -17693746.68661
  16304161.1084  -32929840.78947 -25558614.44462
  15647662.1234  -45708205.42148 -35494292.25464
  16033171.404   -22721576.236 6 -17281282.13821
 93  4 26 21 44 59.9820000  0  5G15G26G27G 2G13
  18671352.4984  -17004899.90045 -12139364.30961
  17223388.834   -22909654.415 6 -17735835.68721
  16307989.748   -32909730.121 7 -25542943.86922
  15638904.5614  -45754234.52248 -35530159.08764
  16005846.006   -22865171.785 7 -17393174.69421
 93  4 26 21 45 29.9820000  0  5G15G26G27G 2G13
  18667838.6394  -17023371.23545 -12153757.57661
  17213209.834   -22963156.245 6 -17777525.45621
  16311886.0064  -32889252.34547 -25526987.23562
  15630174.6394  -45800109.64948 -35565905.94164
  15978606.983   -23008304.018 6 -17504706.21821
 93  4 26 21 45 59.9810000  0  5G15G26G27G 2G13
  18664418.212   -17041312.675 5 -12167737.94821
  17203127.4234  -23016142.52346 -17818813.47561
  16315854.2984  -32868399.99547 -25510738.72062
  15621471.8144  -45845827.92048 -35601530.57064
  15951461.384   -23150958.793 6 -17615865.69121
 93  4 26 21 46 29.9810000  0  5G15G26G27G 2G13
  18661106.962   -17058739.248 5 -12181317.12721
  17193136.282   -23068629.446 6 -17859712.40221
  16319889.001   -32847190.657 7 -25494212.03622
  15612800.2204  -45891410.75148 -35637049.65664
  15924402.759   -23293156.211 7 -17726668.77821
 93  4 26 21 46 59.9810000  0  5G15G26G27G 2G13
  18657890.337   -17075644.724 5 -12194490.23821
  17183248.9004  -23120612.63346 -17900218.80161
  16323993.6504  -32825624.08647 -25477406.99062
  15604151.2594  -45936852.64348 -35672458.92364
  15897431.993   -23434882.808 7 -17837105.00621
 93  4 26 21 47 29.9810000  0  5G15G26G27G 2G13
  18654767.821   -17092039.499 5 -12207265.41821
  17173451.5874  -23172090.64946 -17940331.55861
  16328164.3534  -32803702.76447 -25460325.51362
  15595531.8374  -45982149.49848 -35707755.17464
  15870551.275   -23576145.352 7 -17947179.61021
 93  4 26 21 47 59.9810000  0  5G15G26G27G 2G13
  18651745.4784  -17107912.17145 -12219633.72961
  17163754.829   -23223045.362 6 -17980036.55021
  16332403.6184  -32781422.63547 -25442964.45762
  15586947.8374  -46027265.08148 -35742910.17364
  15843761.2594  -23716929.83347 -18056881.72061
 93  4 26 21 48 29.9810000  0  5G15G26G27G 2G13
  18648824.798   -17123275.939 5 -12231605.49621
  17154154.7354  -23273501.93946 -18019353.39161
  16336712.439   -32758790.271 6 -25425328.93422
  15578397.6424  -46072187.52148 -35777914.68264
  15817058.532   -23857245.561 7 -18166218.55621
 93  4 26 21 48 59.9810000  0  5G15G26G27G 2G13
  18645994.8144  -17138120.12345 -12243172.40261
  17144648.6894  -23323451.01146 -18058274.74661
  16341090.6034  -32735781.82246 -25407400.35262
  15569893.8064  -46116890.08348 -35812747.85664
  15790449.165   -23997078.949 7 -18275179.55721
 93  4 26 21 49 29.9810000  0  5G15G26G27G 2G13
  18643271.6654  -17152451.38645 -12254339.62961
  17135243.860   -23372884.922 6 -18096794.69721
  16345540.6424  -32712389.39546 -25389172.55662
  15561427.4314  -46161372.05948 -35847409.14263
  15763932.743   -24136433.056 7 -18383767.08121
 93  4 26 21 49 59.9810000  0  5G15G26G27G 2G13
  18640641.1504  -17166273.80345 -12265110.35261
  17125935.392   -23421801.940 6 -18134911.87321
  16350066.235   -32688608.767 6 -25370642.29122
  15553000.9464  -46205644.10748 -35881906.85163
  15737504.4314  -24275309.14847 -18491982.12961
 93  4 26 21 50 29.9810000  0  5G15G26G27G 2G13
  18638109.2204  -17179586.01945 -12275483.55061
  17116727.048   -23470181.375 6 -18172610.16721
  16354664.0954  -32664440.12846 -25351809.66962
  15544616.2824  -46249723.16748 -35916254.17363
  15711169.0714  -24413702.30647 -18599820.88661
 93  4 26 21 50 59.9810000  0  5G15G26G27G 2G13
  18635673.2904  -17192391.13145 -12285461.55461
  17107628.9004  -23518012.68746 -18209881.34561
  16359335.025   -32639895.507 6 -25332684.07122
  15536258.2904  -46293635.29648 -35950471.43563
  15684925.4624  -24551612.34647 -18707283.17161
 93  4 26 21 51 29.9810000  0  5G15G26G27G 2G13
  18633334.532   -17204691.985 5 -12295046.64621
  17098622.392   -23565302.937 6 -18246730.89721
  16364079.009   -32614977.428 6 -25313267.48022
  15527930.8764  -46337400.58948 -35984574.26864
  15658773.8374  -24689038.94347 -18814368.75561
 93  4 26 21 51 59.9810000  0  5G15G26G27G 2G13
  18631086.892   -17216486.187 5 -12304236.96321
  17089725.556   -23612058.254 6 -18283163.64721
  16368888.4394  -32589698.20146 -25293569.45862
  15519630.5174  -46381025.98948 -36018568.08964
  15632716.0174  -24825976.60247 -18921073.34961
 93  4 26 21 52 29.9810000  0  5G15G26G27G 2G13
  18628936.837   -17227772.531 5 -12313031.53621
  17080926.196   -23658303.035 6 -18319198.56221
  16373764.2284  -32564071.45746 -25273600.65162
  15511354.0324  -46424515.29948 -36052455.87464
  15606750.2044  -24962420.95847 -19027393.55061
 93  4 26 21 52 59.9810000  0  5G15G26G27G 2G13
  18626886.8374  -17238547.85745 -12321427.89961
  17072221.485   -23704076.142 6 -18354865.96721
  16378710.0484  -32538087.54946 -25253353.53162
  15503104.7824  -46467855.47948 -36086227.45664
  15580883.103   -25098365.666 7 -19133324.42621
 93  4 26 21 53 29.9810000  0  5G15G26G27G 2G13
  18624935.650   -17248820.692 5 -12329432.74821
  17063596.1574  -23749386.37146 -18390172.63861
  16383721.548   -32511758.835 6 -25232837.74022
  15494888.4544  -46511044.03948 -36119880.89064
  15555106.376   -25233816.136 7 -19238870.14821
 93  4 26 21 53 59.9810000  0  5G15G26G27G 2G13
  18623079.829   -17258582.493 5 -12337039.37421
  17055062.8454  -23794214.68046 -18425103.83661
  16388794.915   -32485093.914 6 -25212059.96822
  15486702.9074  -46554063.01448 -36153402.17964
  15529426.1184  -25368760.05447 -19344021.17561
 93  4 26 21 54 29.9810000  0  5G15G26G27G 2G13
  18621314.3924  -17267847.79645 -12344259.10461
  17046620.1814  -23838575.18446 -18459670.49861
  16393929.3924  -32458105.12346 -25191029.82562
  15478548.2674  -46596917.91048 -36186795.61664
  15503842.642   -25503208.429 7 -19448786.07821
 93  4 26 21 54 59.9810000  0  5G15G26G27G 2G13
  18619645.806   -17276612.295 5 -12351088.60721
  17038280.1814  -23882436.38446 -18493848.06861
  16399128.962   -32430777.761 6 -25169735.86421
  15470425.0714  -46639588.29648 -36220045.28164
  15478354.5014  -25637153.72747 -19553158.96161
 93  4 26 21 55 29.9810000  0  5G15G26G27G 2G13
  18618070.6814  -17284875.69745 -12357527.66361
  17030034.5404  -23925756.16046 -18527603.76661
  16404395.173   -32403117.564 6 -25148182.55822
  15462342.7514  -46682065.60348 -36253144.49264
  15452962.1894  -25770592.71347 -19657137.31461
 93  4 26 21 55 59.9810000  0  5G15G26G27G 2G13
  18616592.0254  -17292643.57744 -12363580.54661
  17021889.079   -23968561.043 6 -18560958.26021
  16409721.712   -32375119.971 6 -25126366.34921
  15454297.4234  -46724342.06848 -36286087.21264
  15427663.595   -25903527.722 7 -19760722.95221
 93  4 26 21 56 29.9810000  0  5G15G26G27G 2G13
  18615211.9854  -17299911.99644 -12369244.28361
  17013839.7754  -24010864.77946
  16415117.751   -32346773.640 6 -25104278.38022
  15446294.0254  -46766406.94348
  15402463.9464  -26035951.75547 -19863910.44061
 93  4 26 21 56 59.9810000  0  5G15G26G27G 2G13
  18613926.6184  -17306678.02145 -12374516.51461
  17005885.4394  -24052668.66746
  16420575.665   -32318078.222 6 -25081918.41222
  15438329.0174  -46808256.39148
  15377363.6344  -26167858.54347 -19966694.87561
 93  4 26 21 57 29.9810000  0  5G15G26G27G 2G13
  18612733.564   -17312953.153 5 -12379406.25721
  16998019.157   -24094007.739 6 -18658709.01221
  16426099.985   -32289051.496 6 -25059300.28322
  15430401.6964  -46849913.67848 -36383935.25363
  15352359.7204  -26299256.00047 -20069082.43561
 93  4 26 21 57 59.9810000  0  5G15G26G27G 2G13
  18611631.8214  -17318730.47744 -12383908.11461
  16990234.3924  -24134901.82446 -18690574.54761
  16431688.5644  -32259683.44746 -25036416.17761
  15422511.9544  -46891384.66148 -36416250.30963
  15327454.0094  -26430133.92347 -20171065.15761
 93  4 26 21 58 29.9800000  0  5G15G26G27G 2G13
  18610627.926   -17324011.814 4 -12388023.46821
  16982546.832   -24175325.362 6 -18722073.41921
  16437340.606   -32229989.459 6 -25013278.09322
  15414649.7464  -46932684.23148 -36448431.80564
  15302647.6374  -26560486.79047 -20272638.74761
 93  4 26 21 58 59.9800000  0  5G15G26G27G 2G13
  18609711.067   -17328802.019 4 -12391756.09321
  16974941.777   -24215265.288 6 -18753195.47121
  16443055.473   -32199961.057 6 -24989879.43122
  15406825.5514  -46973814.11948 -36480481.08064
  15277941.645   -26690324.400 7 -20373810.84021
 93  4 26 21 59 29.9800000  0  5G15G26G27G 2G13
  18608894.027   -17333108.033 4 -12395111.43821
  16967433.5044  -24254714.38746 -18783935.02961
  16448832.9964  -32169590.64046 -24966214.25661
  15399031.3484  -47014775.85548 -36512399.33263
  15253330.2154  -26819646.71247 -20474581.41361
 93  4 26 21 59 59.9800000  0  5G15G26G27G 2G13
  18608164.496   -17336932.887 5 -12398091.86421
  16960026.418   -24293659.569 6 -18814281.95021
  16454677.988   -32138885.340 6 -24942288.13922
  15391269.4104  -47055562.94448 -36544181.49063
  15228820.192   -26948453.393 7 -20574950.18021
 93  4 26 22  0 29.9800000  0  5G15G26G27G 2G13
  18607530.4424  -17340272.17044 -12400693.92661
  16952710.965   -24332080.763 6 -18844220.57621
  16460583.6134  -32107842.76246 -24918099.20862
  15383544.8634  -47096157.42348 -36575813.56863
  15204409.3014  -27076737.06747 -20674911.41661
 93  4 26 22  0 59.9800000  0  5G15G26G27G 2G13
  18606987.4344  -17343123.67744 -12402915.91861
  16945503.035   -24369990.040 6 -18873760.29321
  16466558.379   -32076451.783 6 -24893638.78522
  15375857.5354  -47136546.87948 -36607285.87663
  15180098.1924  -27204491.93547 -20774460.60862
 93  4 26 22  1 29.9800000  0  5G15G26G27G 2G13
  18606536.7464  -17345499.48544 -12404767.21061
  16938378.840   -24407406.444 6 -18902915.94321
  16472591.176   -32044739.927 6 -24868928.34721
  15368208.1994  -47176747.04448 -36638610.69163
  15155886.4734  -27331726.76247 -20873604.54962
 93  4 26 22  1 59.9800000  0  5G15G26G27G 2G13
  18606180.8634  -17347383.79344 -12406235.54161
  16931356.4814  -24444324.65646 -18931683.40261
  16478687.481   -32012703.284 6 -24843964.80621
  15360597.8564  -47216742.63848 -36669776.10463
  15131776.3874  -27458422.72647 -20972328.61062
 93  4 26 22  2 29.9800000  0  5G15G26G27G 2G13
  18605913.0744  -17348787.37945 -12407329.30661
  16924426.6214  -24480755.55846 -18960071.13361
  16484849.324   -31980338.917 6 -24818745.92021
  15353022.8174  -47256542.10448 -36700788.68763
  15107768.2234  -27584587.31147 -21070638.62161
 93  4 26 22  2 59.9800000  0  5G15G26G27G 2G13
  18605732.215   -17349709.413 4 -12408047.80321
  16917581.801   -24516699.691 6 -18988079.57421
  16491070.0824  -31947639.15446 -24793265.66061
  15345487.3634  -47296149.91148 -36731651.92263
  15083861.5904  -27710215.67347 -21168530.77462
 93  4 26 22  3 29.9800000  0  5G15G26G27G 2G13
  18605649.9964  -17350155.76044
  16910838.5354  -24552157.34146 -19015708.92961
  16497354.246   -31914611.101 6 -24767529.60421
  15337983.1604  -47335576.93248 -36762374.29764
  15060058.5744  -27835311.56847 -21266008.03362
 93  4 26 22  3 59.9800000  0  5G15G26G27G 2G13
  18605652.8714  -17350135.11544
  16904172.254   -24587140.389 6 -19042968.46821
  16503702.6214  -31881262.71646 -24741543.93661
  15330515.7384  -47374832.95148 -36792963.41664
  15036350.2154  -27959880.45047 -21363074.62462
 93  4 26 22  4 29.9800000  0  5G15G26G27G 2G13
  18605742.856   -17349654.056 4
  16897609.7704  -24621653.83946 -19069862.09561
  16510108.293   -31847598.466 6 -24715312.15222
  15323076.2854  -47413918.17548 -36823419.45464
  15012747.1994  -28083924.88147 -21459732.56362
 93  4 26 22  4 59.9800000  0  5G15G26G27G 2G13
  18605926.2854  -17348703.86245 -12407264.39861
  16891133.0824  -24655697.03946 -19096389.28861
  16516572.934   -31813623.479 6 -24688838.23721
  15315671.8244  -47452820.36948 -36853732.85764
  14989244.6064  -28207433.33747 -21555972.85862
 93  4 26 22  5 29.9800000  0  5G15G26G27G 2G13
  18606191.9964  -17347292.39445 -12406164.57761
  16884745.457   -24689281.627 6 -19122559.12821
  16523095.5434  -31779350.20246 -24662131.85561
  15308304.9424  -47491538.65348 -36883902.96064
  14965842.7464  -28330411.10747 -21651799.62662
 93  4 26 22  5 59.9800000  0  5G15G26G27G 2G13
  18606558.8954  -17345418.94745 -12404704.76961
  16878431.402   -24722417.020 6 -19148378.94221
  16529673.285   -31744778.997 6 -24635193.34921
  15300975.7934  -47530059.79348 -36913919.43764
  14942541.3634  -28452853.60847 -21747209.30462
 93  4 26 22  6 29.9800000  0  5G15G26G27G 2G13
  18607001.7234  -17343075.59845 -12402878.81961
  16872218.3244  -24755094.23446 -19173841.74461
  16536310.457   -31709895.561 6 -24608011.55821
  15293685.3094  -47568367.87548 -36943769.89764
  14919346.8014  -28574750.46047 -21842193.81062
 93  4 26 22  6 59.9800000  0  5G15G26G27G 2G13
  18607533.996   -17340279.259 5 -12400699.88921
  16866087.5434  -24787324.39846 -19198956.17361
  16543010.559   -31674717.279 6 -24580600.01621
  15286432.0274  -47606482.27848 -36973469.44064
  14896253.1064  -28696115.05047 -21936763.55462
 93  4 26 22  7 29.9800000  0  5G15G26G27G 2G13
  18608149.6924  -17337033.09345 -12398170.41161
  16860039.067   -24819107.891 6 -19223722.55721
  16549759.074   -31639237.811 6 -24552953.76121
  15279214.8244  -47644408.27648 -37003022.18464
  14873256.8954  -28816947.18047 -22030918.40462
 93  4 26 22  7 59.9800000  0  5G15G26G27G 2G13
  18608851.285   -17333336.351 5
  16854074.277   -24850445.070 6 -19248141.16721
  16556568.3564  -31603457.46046 -24525073.07861
  15272034.2384  -47682148.18448 -37032429.91064
  14850366.8014  -28937243.18447 -22124655.47762
 93  4 26 22  8 29.9800000  0  5G15G26G27G 2G13
  18609645.754   -17329188.170 5
  16848196.270   -24881314.437 6 -19272195.26321
  16563432.770   -31567372.595 6 -24496955.08521
  15264888.0984  -47719708.58548 -37061697.75764
  14827577.9104  -29056999.22547 -22217971.81062
 93  4 26 22  8 59.9800000  0  5G15G26G27G 2G13
  18610518.309   -17324584.533 5
  16842412.918   -24911709.077 6 -19295879.44321
  16570359.098   -31530980.974 6 -24468598.07921
  15257773.0434  -47757086.33748 -37090823.29064
  14804891.2234  -29176207.73547 -22310861.50762
 93  4 26 22  9 29.9800000  0  5G15G26G27G 2G13
  18611478.457   -17319533.530 4
  16836720.902   -24941636.559 6 -19319199.58021
  16577340.465   -31494292.296 6 -24440009.59421
  15250696.5904  -47794276.03848 -37119802.28564
  14782311.4654  -29294873.66247 -22403328.39262
 93  4 26 22  9 59.9800000  0  5G15G26G27G 2G13
  18612526.801   -17314037.522 4
  16831111.324   -24971096.354 6 -19342155.30021
  16584375.7774  -31457315.32046 -24411196.46361
  15243657.2544  -47831268.75548 -37148627.78964
  14759834.6604  -29412996.18147 -22495371.85762
 93  4 26 22 10 29.9800000  0  5G15G26G27G 2G13
  18613654.8484  -17308094.22844        -0.41871
  16825597.7154  -25000087.30046 -19364745.70061
  16591468.863   -31420047.441 6 -24382156.66421
  15236657.7074  -47868051.29748 -37177289.52364
  14737459.4734  -29530570.30547 -22586987.99362
 93  4 26 22 10 59.9800000  0  5G15G26G27G 2G13
  18614868.910   -17301708.418 3      4975.51021
  16820166.2384  -25028635.13146 -19386990.79461
  16598613.106   -31382497.375 6 -24352896.96821
  15229696.8794  -47904623.55448 -37205787.39964
  14715189.3174  -29647597.59347 -22678178.03562
 93  4 26 22 11 29.9790000  0  5G15G26G27G 2G13
  18616171.9524  -17294881.89743     10294.85961
  16814815.984   -25056743.910 6 -19408893.76721
  16605814.2654  -31344664.83946 -24323417.15861
  15222780.2024  -47940980.18748 -37234117.25364
  14693026.226   -29764072.236 7 -22768937.43222
 93  4 26 22 11 59.9790000  0  5G15G26G27G 2G13
  18617557.515   -17287621.343 3     15952.40921
  16809547.9994  -25084424.74346 -19430463.27061
  16613066.780   -31306548.634 6 -24293716.31521
  15215897.8824  -47977147.32248 -37262299.44563
  14670963.5304  -29880006.36947 -22859275.65962
 93  4 26 22 12 29.9790000  0  4G26G27G 2G13
  16804363.3594  -25111660.16846 -19451685.71061
  16620378.2734  -31268132.62846 -24263781.88361
  15209050.6484  -48013126.12448 -37290334.88663
  14649008.7964  -29995381.53747 -22949178.33062
 93  4 26 22 12 59.9790000  0  5G15G26G27G 2G13
  18620571.015          -0.03013
  16799267.148   -25138444.797 6 -19472556.89021
  16627744.9134  -31229419.01246 -24233615.53861
  15202239.3434  -48048925.91048 -37318230.83063
  14627159.6164  -30110199.49347 -23038646.80962
 93  4 26 22 13 29.9790000  0  5G15G26G27G 2G13
  18622199.882        8573.398 2        -0.47131
  16794255.648   -25164778.660 6 -19493076.83121
  16635163.1164  -31190422.83046 -24203229.01861
  15195459.2964  -48084553.72248 -37345992.77963
  14605413.6794  -30224471.50347 -23127689.88262
 93  4 26 22 13 59.9790000  0  5G15G26G27G 2G13
  18623913.0694      17575.96742      7014.49061
  16789331.4524  -25190655.50746 -19513240.65161
  16642637.827   -31151151.684 6 -24172628.23421
  15188710.3124  -48120010.83348 -37373621.70363
  14583774.7184  -30338191.25547 -23216302.62062
 93  4 26 22 14 29.9790000  0  5G15G26G27G 2G13
  18625715.8434      27008.29143     14364.31561
  16784497.4684  -25216078.73846 -19533050.98561
  16650162.7654  -31111615.66846 -24141821.06661
  15182000.7184  -48155283.37648 -37401106.82063
  14562240.9684  -30451354.93247 -23304482.05562
 93  4 26 22 14 59.9790000  0  5G15G26G27G 2G13
  18627584.304       36868.493 3     22047.56021
  16779739.569   -25241068.186 6 -19552523.32721
  16657731.960   -31071831.848 6 -24110820.81221
  15175325.9914  -48190358.24048 -37428437.89163
  14540810.968   -30563961.673 7 -23392227.51322
 93  4 26 22 15 29.9790000  0  5G15G26G27G 2G13
  18629543.9134      47154.46043     30062.49061
  16775064.8194  -25265640.47746 -19571670.61461
  16665350.374   -31031799.416 6 -24079626.80721
  15168688.0694  -48225233.93548 -37455613.76763
  14519489.077   -30676011.502 7 -23479539.01822
 93  4 26 22 15 59.9790000  0  5G15G26G27G 2G13
  18631579.8594      57857.53843
  16770465.3744  -25289818.19646 -19590510.44461
  16673016.609   -30991519.983 6 -24048240.35321
  15162087.1794  -48259917.45748 -37482639.90063
  14498272.687   -30787509.295 7 -23566420.36122
 93  4 26 22 16 29.9790000  0  5G15G26G27G 2G13
  18633694.5934      68977.50743
  16765938.116   -25313607.947 6 -19609047.95721
  16680727.1404  -30950975.95846 -24016647.72561
  15155526.3514  -48294392.05248 -37509503.22763
  14477160.523   -30898452.202 7 -23652869.31822
 93  4 26 22 16 59.9790000  0  5G15G26G27G 2G13
  18635890.2654      80508.14243
  16761484.8434  -25337010.70246 -19627283.91561
  16688499.1164  -30910158.09546 -23984841.72361
  15149008.9134  -48328650.95248 -37536198.49163
  14456151.3434  -31008843.72647 -23738888.63662
 93  4 26 22 17 29.9790000  0  5G15G26G27G 2G13
  18638162.5464      92444.50943
  16757104.265   -25360011.143 6 -19645206.38521
  16696318.9844  -30869057.78946 -23952815.62661
  15142531.5464  -48362688.19848 -37562721.03263
  14435251.499   -31118686.270 8 -23824480.18522
 93  4 26 22 17 59.9790000  0  5G15G26G27G 2G13
  18640504.8434     104794.13342
  16752810.171   -25382583.102 6 -19662794.96921
  16704193.7734  -30827676.38946 -23920570.49861
  15136097.7734  -48396490.05048 -37589060.14163
  14414453.1554  -31227969.13947 -23909635.60762
 93  4 26 22 18 29.9790000  0  5G15G26G27G 2G13
  18642938.265      117550.698 2        -0.49131
  16748601.0464  -25404714.54445 -19680040.28961
  16712119.7414  -30786025.09946 -23888115.08961
  15129710.0154  -48430059.84848 -37615218.44163
  14393763.726   -31336695.697 7 -23994357.55122
 93  4 26 22 18 59.9790000  0  4G26G27G 2G13
  16744473.5774  -25426392.75646 -19696932.46661
  16720099.030   -30744108.252 6 -23855452.74421
  15123366.1404  -48463404.66348 -37641201.42463
  14373182.609   -31444858.359 7 -24078640.09922
 93  4 26 22 19 29.9790000  0  4G26G27G 2G13
  16740435.1874  -25447630.16446 -19713481.13061
  16728122.562   -30701947.807 6 -23822600.57221
  15117059.632   -48496554.048 8 -37667032.12623
  14352705.515   -31552468.345 7 -24162491.97222
 93  4 26 22 19 59.9790000  0  4G26G27G 2G13
  16736476.5074  -25468424.13446 -19729684.27761
  16736190.6634  -30659535.60446 -23789552.25161
  15110785.2494  -48529514.90248 -37692715.92163
  14332334.468   -31659511.728 7 -24245902.36522
 93  4 26 22 20 29.9790000  0  4G26G27G 2G13
  16732599.984   -25488798.288 6 -19745560.29121
  16744313.132   -30616867.387 6 -23756304.40021
  15104550.2964  -48562288.14948 -37718253.52863
  14312071.8044  -31765989.74847 -24328872.19562
 93  4 26 22 20 59.9790000  0  4G26G27G 2G13
  16728798.2184  -25508763.19245 -19761117.42461
  16752476.3194  -30573947.44446 -23722860.42561
  15098346.4604  -48594875.97248 -37743646.64563
  14291917.702   -31871902.516 8 -24411401.57422
 93  4 26 22 21 29.9790000  0  4G26G27G 2G13
  16725079.202   -25528311.182 5 -19776349.68221
  16760694.4764  -30530776.07246 -23689220.52561
  15092185.6794  -48627262.24948 -37768882.71563
  14271873.4524  -31977241.34448 -24493483.73262
 93  4 26 22 21 59.9790000  0  4G26G27G 2G13
  16721438.476   -25547453.966 5 -19791266.17121
  16768953.944   -30487350.579 6 -23655382.61321
  15086059.687   -48659445.909 8 -37793960.91023
  14251934.9524  -32082010.95548 -24575122.34262
 93  4 26 22 22 29.9790000  0  4G26G27G 2G13
  16717874.694   -25566184.861 5 -19805861.71621
  16777271.601   -30443660.678 6 -23621338.69221
  15079978.905   -48691408.537 8 -37818866.87823
  14232108.890   -32186200.610 7 -24656309.04122
 93  4 26 22 22 59.9790000  0  4G26G27G 2G13
  16714382.5074  -25584518.07045 -19820147.40261
  16785630.694   -30399727.605 6 -23587105.27021
  15073935.0544  -48723176.93548 -37843621.49263
  14212388.577   -32289827.532 7 -24737057.24222
 93  4 26 22 23 29.9790000  0  4G26G27G 2G13
  16710969.765   -25602458.916 6 -19834127.31421
  16794042.0234  -30355539.81846 -23552673.35661
  15067926.8354  -48754743.58848 -37868218.89763
  14192779.194   -32392881.338 7 -24817358.86822
 93  4 26 22 23 59.9780000  0  4G26G27G 2G13
  16707624.518   -25620027.714 5 -19847817.34221
  16802495.580   -30311107.142 6 -23518050.63421
  15061957.346   -48786113.646 8 -37892663.12523
  14173276.8154  -32495365.33447 -24897216.47862
 93  4 26 22 24 29.9780000  0  4G26G27G 2G13
  16704352.9084  -25637225.55046 -19861218.28861
  16810997.072   -30266446.067 6 -23483249.93321
  15056029.3614  -48817271.87148 -37916942.28163
  14153883.127   -32597279.075 7 -24976629.74322
 93  4 26 22 24 59.9780000  0  4G26G27G 2G13
  16701151.010   -25654056.831 6 -19874333.62921
  16819531.393   -30221574.866 5 -23448285.50521
  15050138.6434  -48848224.85848 -37941061.49663
  14134595.635   -32698628.456 7 -25055603.23822
 93  4 26 22 25 29.9780000  0  4G26G27G 2G13
  16698023.3934  -25670505.67546 -19887150.97261
  16828112.3774  -30176488.18545 -23413153.18561
  15044290.9324  -48878947.41948 -37965001.17763
  14115420.393   -32799402.849 7 -25134128.69222
 93  4 26 22 25 59.9780000  0  4G26G27G 2G13
  16694963.9714  -25686571.85246 -19899670.14461
  16836729.893   -30131197.994 6 -23377862.27121
  15038485.3934  -48909455.27448 -37988773.54663
  14096349.619   -32899616.408 7 -25212217.13822
 93  4 26 22 26 29.9780000  0  4G26G27G 2G13
  16691973.611   -25702286.439 6 -19911915.30521
  16845385.6974  -30085733.82446 -23342435.77361
  15032709.7444  -48939803.23848 -38012421.32263
  14077377.268   -32999314.600 7 -25289903.99022
 93  4 26 22 26 59.9780000  0  4G26G27G 2G13
  16689053.4404  -25717633.94246 -19923874.47161
  16854074.3224  -30040069.15245 -23306853.04961
  15026965.3464  -48969994.33648 -38035946.86263
  14058505.408   -33098489.456 7 -25367183.06522
 93  4 26 22 27 29.9780000  0  4G26G27G 2G13
  16686203.463   -25732604.209 6 -19935539.70321
  16862802.096   -29994187.660 5 -23271101.39121
  15021254.9794  -49000008.58948 -38059334.59763
  14039735.244   -33197121.439 7 -25444039.11022
 93  4 26 22 27 59.9780000  0  4G26G27G 2G13
  16683429.2364  -25747194.24446 -19946908.60461
  16871582.526   -29948069.348 6 -23235165.19721
  15015575.6194  -49029837.27947 -38082577.74163
  14021074.346   -33295192.443 8 -25520458.03022
 93  4 26 22 28 29.9780000  0  4G26G27G 2G13
  16680730.0724  -25761383.62146 -19957965.32561
  16880406.4244  -29901692.67645 -23199027.66961
  15009946.4634  -49059423.11747 -38105631.65563
  14002526.174   -33392662.417 8 -25596408.62022
 93  4 26 22 28 59.9780000  0  4G26G27G 2G13
  16678111.385   -25775144.843 6 -19968688.40821
  16889286.6584  -29855033.53545 -23162670.01161
  15004374.3544  -49088704.96247 -38128448.68163
  13984102.330   -33489483.764 7 -25671853.78722
 93  4 26 22 29 29.9780000  0  4G26G27G 2G13
  16675571.291   -25788494.231 6 -19979090.56121
  16898206.736   -29808110.097 5 -23126106.46621
  14998861.0414  -49117690.38548 -38151034.74663
  13965797.6904  -33585669.01847 -25746803.28662
 93  4 26 22 29 59.9780000  0  4G26G27G 2G13
  16673103.7914  -25801450.30146 -19989186.26461
  16907190.5024  -29760936.04745 -23089347.63961
  14993396.8774  -49146395.94647 -38173402.73363
  13947612.502   -33681234.793 8 -25821270.08122
 93  4 26 22 30 29.9780000  0  5G24G26G27G 2G13
  18027979.791          -0.05013        -0.09631
  16670716.7054  -25814011.73046 -19998974.45461
  16916212.526   -29713527.911 5 -23052406.40221
  14987985.1824  -49174828.89447 -38195558.28563
  13929543.588   -33776187.807 7 -25895259.40122
 93  4 26 22 30 59.9780000  0  5G24G26G27G 2G13
  17995799.3074    -169114.63445   -131777.23261
  16668403.8774  -25826163.58446 -20008443.47961
  16925279.2364  -29665875.99245 -23015275.17661
  14982624.338   -49203009.376 8 -38217517.12023
  13911589.502   -33870535.835 7 -25968777.30122
 93  4 26 22 31 29.9780000  0  5G24G26G27G 2G13
  17963618.197     -338227.219 4   -263552.84321
  16666163.463   -25837914.620 6 -20017600.21121
  16934394.4864  -29617986.62745 -22977958.92561
  14977307.416   -49230952.913 8 -38239291.32923
  13893747.369   -33964287.658 7 -26041830.63022
 93  4 26 22 31 59.9780000  0  5G24G26G27G 2G13
  17931437.7994    -507337.56845   -395326.60661
  16664004.3464  -25849277.78846 -20026454.66161
  16943549.315   -29569880.901 5 -22940474.13921
  14972032.846   -49258668.376 8 -38260887.82523
  13876021.057   -34057446.732 7 -26114422.07622
 93  4 26 22 32 29.9780000  0  5G24G26G27G 2G13
  17899264.0414    -676423.65444   -527081.61761
  16661917.7604  -25860247.25945 -20035002.36761
  16952742.604   -29521567.716 5 -22902827.66921
  14966803.3614  -49286152.77548 -38282304.24963
  13858405.611   -34150016.855 8 -26186554.60322
 93  4 26 22 32 59.9780000  0  5G24G26G27G 2G13
  17867095.885     -845465.164 5   -658801.78321
  16659900.002   -25870828.479 5 -20043247.56521
  16961981.627   -29473036.095 5 -22865010.97121
  14961616.0494  -49313403.98447 -38303538.97163
  13840901.979   -34241997.840 8 -26258228.05722
 93  4 26 22 33 29.9780000  0  5G24G26G27G 2G13
  17834937.916    -1014455.290 5   -790481.98421
  16657959.0414  -25881041.58645 -20051205.88961
  16971253.666   -29424302.300 5 -22827036.76221
  14956475.3854  -49340428.73548 -38324597.23363
  13823510.682   -34333390.885 8 -26329443.38722
 93  4 26 22 33 59.9780000  0  5G24G26G27G 2G13
  17802789.065    -1183408.453 5   -922133.35021
  16656085.369   -25890889.572 5 -20058879.70121
  16980564.736   -29375371.453 5 -22788909.00221
  14951373.447   -49367230.971 8 -38345482.11923
  13806230.494   -34424204.535 8 -26400207.23222
 93  4 26 22 34 29.9780000  0  5G24G26G27G 2G13
  17770643.815    -1352319.986 5  -1053752.28121
  16654283.682   -25900374.210 6 -20066270.39521
  16989915.7524  -29326227.31045 -22750615.04561
  14946318.401   -49393795.956 8 -38366182.12623
  13789057.729   -34514439.259 8 -26470519.96722
 93  4 26 22 34 59.9780000  0  5G24G26G27G 2G13
  17738502.5104   -1521217.58045  -1185360.31261
  16652543.947   -25909518.376 5 -20073395.76521
  16999305.104   -29276878.055 5 -22712161.26921
  14941307.104   -49420135.941 8 -38386706.81523
  13771997.049   -34604097.416 8 -26540383.42322
 93  4 26 22 35 29.9780000  0  5G24G26G27G 2G13
  17706364.151    -1690100.817 4  -1316957.20221
  16650864.502   -25918322.134 5 -20080255.93021
  17008734.330   -29227331.453 5 -22673553.71021
  14936340.3934  -49446235.95248 -38407044.50663
  13755046.236   -34693172.469 8 -26609792.53022
 93  4 26 22 35 59.9780000  0  5G24G26G27G 2G13
  17674230.518    -1858966.279 5  -1448540.22921
  16649252.3464  -25926790.23945 -20086854.52061
  17018200.815   -29177582.610 5 -22634788.56721
  14931420.197   -49472090.611 8 -38427191.01423
  13738207.3464  -34781667.86348 -26678749.95062
 93  4 26 22 36 29.9780000  0  5G24G26G27G 2G13
  17642099.736    -2027805.245 4  -1580102.59721
  16647704.7134  -25934927.32445 -20093195.17661
  17027707.244   -29127629.822 5 -22595864.49421
  14926545.3224  -49497710.75748 -38447154.77963
  13721475.791   -34869581.139 8 -26747253.75322
 93  4 26 22 36 59.9770000  0  5G24G26G27G 2G13
  17609972.4744   -2196631.89245  -1711655.38361
  16646218.4434  -25942731.99345 -20099276.81561
  17037248.482   -29077475.929 5 -22556783.74621
  14921710.4664  -49523117.74848 -38466952.46463
  13704858.177   -34956914.319 8 -26815305.55322
 93  4 26 22 37 29.9770000  0  5G24G26G27G 2G13
  17577845.5994   -2365452.10045  -1843203.12661
  16644796.263   -25950208.773 5 -20105102.94621
  17046836.450   -29027112.307 5 -22517539.53321
  14916917.396   -49548310.907 8 -38486583.52123
  13688345.982   -35043679.537 8 -26882914.79222
 93  4 26 22 37 59.9770000  0  5G24G26G27G 2G13
  17545724.599    -2534248.103 5  -1974732.05721
  16643437.8494  -25957351.83945 -20110669.06061
  17056459.2864  -28976534.16145 -22478128.19161
  14912162.427   -49573288.728 7 -38506046.78823
  13671945.372   -35129867.130 8 -26950073.90822
 93  4 26 22 38 29.9770000  0  5G24G26G27G 2G13
  17513610.4974   -2703027.40945  -2106247.94161
  16642143.177   -25964154.764 5 -20115970.10221
  17066125.169   -28925752.620 5 -22438558.36221
  14907452.528   -49598038.219 7 -38525332.12923
  13655655.169   -35215473.676 8 -27016780.28022
 93  4 26 22 38 59.9770000  0  5G24G26G27G 2G13
  17481494.1464   -2871781.86845  -2237744.47861
  16640917.810   -25970616.518 5 -20121005.31421
  17075823.818   -28874784.175 5 -22398842.88521
  14902792.872   -49622529.053 8 -38544415.92723
  13639475.755   -35300503.443 8 -27083037.20222
 93  4 26 22 39 29.9770000  0  5G24G26G27G 2G13
  17449389.325    -3040491.535 5  -2369206.12421
  16639745.0914  -25976747.31945 -20125782.66061
  17085552.755   -28823647.542 5 -22358996.35821
  14898185.575   -49646741.956 8 -38563283.14723
  13623405.505   -35384955.147 8 -27148843.69522
 93  4 26 22 39 59.9770000  0  6G24G12G26G27G 2G13
  17417293.911    -3209160.077 5  -2500635.76521
  17722435.2864         -0.69854
  16638643.7554  -25982546.63745 -20130301.66161
  17095312.2554  -28772364.13945 -22319035.46161
  14893627.732   -49670691.611 7 -38581945.24023
  13607443.005   -35468836.333 8 -27214205.62922
 93  4 26 22 40 29.9770000  0  6G24G12G26G27G 2G13
  17385204.5294   -3377781.15845  -2632028.38961
  17692413.4894    -157762.20243
  16637605.4584  -25988013.62945 -20134561.73061
  17105096.7394  -28720929.04245 -22278956.38161
  14889117.271   -49694383.890 7 -38600406.78723
  13591588.411   -35552144.488 8 -27279121.05022
 93  4 26 22 40 59.9770000  0  6G24G12G26G27G 2G13
  17353129.614    -3546339.480 5  -2763372.14521
  17662397.5754         -0.49753
  16636622.6694  -25993168.57345 -20138578.64661
  17114919.2554  -28669331.07445 -22238750.37961
  14884656.544   -49717840.545 7 -38618684.72723
  13575845.497   -35634876.980 8 -27343587.89622
 93  4 26 22 41 29.9770000  0  5G24G26G27G 2G13
  17321063.130    -3714849.367 5  -2894678.14321
  16635700.653   -25998034.231 5 -20142370.17121
  17124768.482   -28617577.706 5 -22198423.28921
  14880224.903   -49741117.700 7 -38636822.78922
  13560209.021   -35717046.284 8 -27407615.89922
 93  4 26 22 41 59.9770000  0  6G24G12G26G27G 2G13
  17289006.935    -3883302.424 5  -3025939.87621
  17602384.232          -0.29912
  16634828.6384  -26002602.48645 -20145929.93661
  17134645.2324  -28565666.79145 -22157973.39661
  14875827.2394  -49764223.65947 -38654827.45663
  13544680.958   -35798649.772 8 -27471203.00522
 93  4 26 22 42 29.9770000  0  6G24G12G26G27G 2G13
  17256964.6304   -4051682.93445  -3157145.09461
  17572394.9894    -157616.02243
  16634014.7394  -26006871.45945 -20149256.46961
  17144560.732   -28513578.677 5 -22117385.46921
  14871468.318   -49787128.921 7 -38672675.72923
  13529261.794   -35879672.806 8 -27534337.80622
 93  4 26 22 42 59.9770000  0  6G24G12G26G27G 2G13
  17224937.107    -4219994.809 5  -3288296.84021
  17542410.6074    -315187.88444
  16633258.653   -26010840.883 5 -20152349.62221
  17154503.505   -28461322.935 5 -22076666.92421
  14867152.2004  -49809822.40247 -38690358.97363
  13513953.153   -35960123.000 8 -27597026.23622
 93  4 26 22 43 29.9770000  0  6G24G12G26G27G 2G13
  17192919.794    -4388245.941 5  -3419401.25621
  17512433.4044    -472716.54744
  16632558.5134  -26014492.05545 -20155194.76761
  17164478.0994  -28408910.97945 -22035826.66061
  14862878.216   -49832283.697 7 -38707861.30523
  13498752.739   -36040003.947 8 -27659271.10422
 93  4 26 22 43 59.9770000  0  6G24G12G26G27G 2G13
  17160916.919    -4556437.251 5  -3550459.08221
  17482466.4584    -630198.75344
  16631931.3334  -26017824.55145 -20157791.58561
  17174482.2004  -28356341.95545 -21994863.99761
  14858656.060   -49854474.584 7 -38725152.92722
  13483660.583   -36119314.627 8 -27721071.59122
 93  4 26 22 44 29.9770000  0  6G24G12G26G27G 2G13
  17128919.7244   -4724560.72145  -3681464.03161
  17452506.7474    -787622.62843
  16631358.6614  -26020832.81145 -20160135.75861
  17184514.966   -28303607.189 5 -21953772.23221
  14854486.3964  -49876378.29547 -38742220.76463
  13468678.841   -36198046.781 8 -27782421.29122
 93  4 26 22 44 59.9770000  0  6G24G12G26G27G 2G13
  17096936.903    -4892618.262 5  -3812417.63021
  17422563.7004    -944982.81343
  16630849.9354  -26023515.54845 -20162226.26661
  17194579.216   -28250721.235 5 -21912562.58621
  14850371.8104  -49898001.51947 -38759070.03963
  13453805.849   -36276197.769 8 -27843318.14122
 93  4 26 22 45 29.9770000  0  6G24G12G26G27G 2G13
  17064968.943    -5060611.233 5  -3943320.91121
  17392623.3494   -1102279.56742
  16630397.6934  -26025881.86345 -20164070.23761
  17204670.7794  -28197687.68944 -21871237.94861
  14846308.638   -49919348.844 7 -38775704.34022
  13439043.888   -36353769.994 8 -27903763.99622
 93  4 26 22 45 59.9770000  0  6G24G12G26G27G 2G13
  17033017.130    -5228528.204 5  -4074164.98021
  17362710.810    -1259514.895 2        -0.32531
  16630004.5754  -26027939.56945 -20165673.70961
  17214789.8884  -28144508.38744 -21829799.77961
  14842298.3574  -49940427.57547 -38792129.35663
  13424391.7864  -36430768.12548 -27963762.51562
 93  4 26 22 46 29.9770000  0  6G24G12G26G27G 2G13
  17001074.716    -5396371.364 5  -4204951.52221
  17332806.849    -1416687.260 2
  16629671.161   -26029692.349 5 -20167039.60621
  17224936.185   -28091184.352 5 -21788248.87521
  14838333.396   -49961261.013 7 -38808363.22223
  13409848.927   -36507193.724 8 -28023314.89922
 93  4 26 22 46 59.9770000  0  6G24G12G26G27G 2G13
  16969155.911    -5564127.798 5  -4335670.51121
  17302902.630    -1573785.569 3
  16629399.724   -26031135.882 5 -20168164.52021
  17235118.318   -28037688.653 3 -21746564.04521
  14834416.528   -49981848.532 7 -38824405.48022
  13395415.802   -36583037.934 8 -28082414.25722
 93  4 26 22 47 29.9770000  0  6G24G12G26G27G 2G13
  16937251.396    -5731790.312 5  -4466316.29921
  17273030.333    -1730814.735 3
  16629182.138   -26032276.140 5 -20169053.11521
  17245332.7164  -27984006.09945 -21704733.78761
  14830544.958   -50002197.246 7 -38840261.65122
  13381092.1464  -36658309.12048 -28141067.10962
 93  4 26 22 47 59.9770000  0  6G24G12G26G27G 2G13
  16905361.286    -5899372.583 5  -4596899.60121
  17243155.1144   -1887784.46343        -0.11471
  16629018.810   -26033136.890 5 -20169723.95321
  17255580.4664  -27930156.82544 -21662773.52661
  14826712.911   -50022328.468 7 -38855948.34723
  13366877.1694  -36733019.95248 -28199283.30862
 93  4 26 22 48 29.9770000  0  6G24G12G26G27G 2G13
  16873481.724    -6066869.263 5  -4727416.20521
  17213289.177    -2044685.701 2   -122260.75021
  16628904.5684  -26033734.12245 -20170189.43161
  17265861.255   -27876140.485 2 -21620683.14021
  14822922.958   -50042246.837 7 -38871469.17422
  13352766.310   -36807164.320 8 -28257058.11822
 93  4 26 22 48 59.9770000  0  5G24G12G26G 2G13
  16841628.013    -6234267.990 5  -4857856.49221
  17183449.0834   -2201522.74042   -244471.32661
  16628839.7084  -26034083.67545
  14819173.732   -50061944.620 7 -38886818.12522
  13338764.1384  -36880749.23048 -28314396.98962
 93  4 26 22 49 29.9770000  0  5G24G12G26G 2G13
  16809801.091    -6401541.605 5  -4988199.27721
  17153623.6144   -2358274.93542
  16628818.9034  -26034173.28945
  14815473.622   -50081395.296 7 -38901974.52723
  13324871.427   -36953757.073 8 -28371286.18222
 93  4 26 22 49 59.9760000  0  4G24G26G 2G13
  16777992.6954   -6568686.28845  -5118441.61661
  16628849.1494  -26034020.20245
  14811818.586   -50100604.384 7 -38916942.68523
  13311087.6564  -37026192.02848 -28427728.98462
 93  4 26 22 50 29.9760000  0  4G24G26G 2G13
  16746206.563    -6735716.503 5  -5248594.75021
  16628921.3284  -26033641.80745
  14808207.703   -50119573.644 7 -38931723.94923
  13297409.195   -37098069.728 8 -28483737.55322
 93  4 26 22 50 59.9760000  0  4G24G26G 2G13
  16714447.6884   -6902612.74046  -5378643.51061
  16629043.1494  -26033003.04845 -20169620.25161
  14804651.235   -50138268.424 7 -38946291.34523
  13283839.867   -37169376.824 8 -28539301.49722
 93  4 26 22 51 29.9760000  0  4G24G26G 2G13
  16682714.1724   -7069387.13946  -5508597.33961
  16629210.195   -26032102.055 5 -20168918.28521
  14801142.0314  -50156707.16247 -38960659.21763
  13270377.883   -37240121.684 8 -28594427.33422
 93  4 26 22 51 59.9760000  0  5G24G12G26G 2G13
  16650994.719    -7236049.665 5  -5638463.99121
  17004707.4064         -0.63652
  16629437.555   -26030941.282 5 -20168013.89321
  14797683.625   -50174882.057 7 -38974821.51122
  13257021.860   -37310306.622 8 -28649116.86922
 93  4 26 22 52 29.9760000  0  5G24G12G26G 2G13
  16619302.563    -7402600.396 5  -5768243.52821
  16974973.7894    -156261.31942        -0.00371
  16629709.625   -26029511.424 5 -20166899.79621
  14794274.180   -50192794.141 7 -38988778.99622
  13243770.758   -37379936.100 8 -28703373.58422
 93  4 26 22 52 59.9760000  0  5G24G12G26G 2G13
  16587630.953    -7569029.041 5  -5897927.93321
  16945250.7584    -312428.41841   -121688.52561
  16630036.422   -26027783.462 5 -20165553.41321
  14790917.117   -50210437.024 7 -39002526.72822
  13230629.9064  -37449001.65348 -28757190.86862
 93  4 26 22 53 29.9760000  0  4G24G26G 2G13
  16555979.5394   -7735352.66345  -6027530.51961
  16630417.5784  -26025787.42845 -20163998.19061
  14787607.539   -50227824.792 7 -39016075.67522
  13217591.352   -37517513.512 8 -28810576.69922
 93  4 26 22 53 59.9760000  0  4G24G26G 2G13
  16524352.641    -7901564.454 5  -6157045.96721
  16630846.477   -26023527.534 5 -20162237.33921
  14784352.766   -50244936.736 7 -39029409.68122
  13204660.7664  -37585463.42648 -28863524.67362
 93  4 26 22 54 29.9760000  0  4G24G26G 2G13
  16492744.047    -8067668.002 5  -6286477.08421
  16631326.2274  -26021018.11645 -20160282.07561
  14781144.555   -50261797.440 7 -39042547.93022
  13191835.7354  -37652862.00348 -28916043.02262
 93  4 26 22 54 59.9760000  0  4G24G26G 2G13
  16461159.649    -8233652.516 5  -6415815.44521
  16631847.7974  -26018271.72245 -20158142.13761
  14777983.992   -50278395.459 7 -39055481.47922
  13179116.594   -37719700.425 8 -28968124.88922
 93  4 26 22 55 29.9760000  0  4G24G26G 2G13
  16429597.3604   -8399509.87346  -6545054.71861
  16632411.1254  -26015316.08645 -20155839.17561
  14774874.930   -50294742.831 7 -39068219.72722
  13166503.9144  -37785981.80448 -29019772.68962
 93  4 26 22 55 59.9760000  0  5G24G12G26G 2G13
  16398060.6494   -8565231.89546  -6674188.53661
  16767331.281          -0.49912
  16633015.610   -26012144.851 5 -20153368.21721
  14771809.5394  -50310855.12247 -39080774.78862
  13153995.399   -37851709.572 8 -29070989.11322
 93  4 26 22 56 29.9760000  0  5G24G12G26G 2G13
  16366553.047    -8730807.193 6  -6803208.03921
  16737744.156     -155475.500 2
  16633658.5164  -26008751.33645 -20150724.04661
  14768787.188   -50326739.853 7 -39093152.53322
  13141593.3994  -37916885.25148 -29121775.34062
 93  4 26 22 56 59.9760000  0  4G24G26G 2G13
  16335071.867    -8896227.078 5  -6932106.42721
  16634352.266   -26005125.093 5 -20147898.54321
  14765808.2504  -50342385.36247 -39105343.84962
  13129297.5004  -37981505.85448 -29172129.03762
 93  4 26 22 57 29.9760000  0  5G24G12G26G 2G13
  16303626.0864   -9061494.72646  -7060886.20461
  16678632.6724         -0.43552
  16635085.6644  -26001249.07245 -20144878.39661
  14762875.4064  -50357790.40447 -39117347.79962
  13117105.719   -38045571.440 8 -29222050.25322
 93  4 26 22 57 59.9760000  0  5G24G12G26G 2G13
  16272204.641    -9226614.184 6  -7189550.49321
  16649121.7744    -155134.66543        -0.09671
  16635871.399   -25997120.193 5 -20141661.20421
  14759993.766   -50372948.649 7 -39129159.45122
  13105019.0084  -38109087.25048 -29271543.06762
 93  4 26 22 58 29.9760000  0  5G24G12G26G 2G13
  16240808.7274   -9391587.84145  -7318101.19061
  16619615.9224    -310156.57343   -120796.32461
  16636703.7424  -25992752.21845 -20138257.71661
  14757157.438   -50387855.113 7 -39140774.91022
  13093035.641   -38172058.057 8 -29320611.21622
 93  4 26 22 58 59.9760000  0  5G24G12G26G 2G13
  16209445.0784   -9556411.67545  -7446535.12861
  16590137.5784    -465056.55943   -241497.56561
  16637580.5004  -25988145.19845 -20134667.94761
  14754368.820   -50402505.922 7 -39152191.15423
  13081156.3134  -38234478.18448 -29369250.25062
 93  4 26 22 59 29.9760000  0  5G24G12G26G 2G13
  16178107.695    -9721090.016 6  -7574855.71121
  16560683.367     -619825.501 3   -362096.62421
  16638498.8914  -25983309.47745 -20130899.97461
  14751630.180   -50416897.341 7 -39163405.27922
  13069385.266   -38296342.016 8 -29417455.82022
 93  4 26 22 59 59.9760000  0  5G24G12G26G 2G13
  16146792.539    -9885634.216 6  -7703071.77521
  16531259.680     -774475.629 3   -482603.14021
  16639457.500   -25978272.839 5 -20126975.42621
  14748938.891   -50431041.742 7 -39174426.91822
  13057714.8834  -38357665.50348 -29465240.34262
 93  4 26 23  0 29.9760000  0  5G24G12G26G 2G13
  16115506.367   -10050049.594 6  -7831187.45021
  16501858.9774    -929007.49243   -603017.47861
  16640456.649   -25973035.720 5 -20122894.69421
  14746294.820   -50444936.003 7 -39185253.64422
  13046147.4854  -38418453.04348 -29512607.23262
 93  4 26 23  0 59.9760000  0  5G24G12G26G 2G13
  16084247.985   -10214323.487 6  -7959192.88821
  16472472.211    -1083412.910 4   -723333.28421
  16641492.1884  -25967591.28745 -20118652.40361
  14743699.156   -50458570.604 7 -39195878.04222
  13034682.8834  -38478699.42248 -29559552.44562
 93  4 26 23  1 29.9760000  0  5G24G12G26G 2G13
  16053013.6564  -10378458.22245  -8087089.87661
  16443107.4304   -1237699.58343   -843556.59061
  16642570.211   -25961951.133 5 -20114257.60021
  14741157.836   -50471932.776 7 -39206290.14922
  13023320.5554  -38538416.18048 -29606084.96662
 93  4 26 23  1 59.9760000  0  5G24G12G26G 2G13
  16021814.8364  -10542414.08646  -8214847.47961
  16413769.875    -1391858.204 3   -963680.10221
  16643679.836   -25956097.999 5 -20109696.85421
  14738669.164   -50485007.505 7 -39216478.27822
  13012057.227   -38597598.443 8 -29652201.00022
 93  4 26 23  2 29.9760000  0  5G24G12G26G 2G13
  15990648.3364  -10706171.65946  -8342450.60161
  16384459.5944   -1545882.04344  -1083698.59861
  16644834.3444  -25950028.88245 -20104967.82861
  14736235.000   -50497794.253 7 -39226442.00222
  13000898.7504  -38656242.79448 -29697897.87662
 93  4 26 23  2 59.9750000  0  5G24G12G26G 2G13
  15959523.7304  -10869724.71546  -8469894.37061
  16355180.925    -1699767.744 5  -1203609.47021
  16646026.284   -25943763.357 4 -20100085.72521
  14733856.519   -50510304.251 7 -39236190.08222
  12989840.7614  -38714352.89348 -29743178.46062
 93  4 26 23  3 29.9750000  0  5G24G12G26G 2G13
  15928444.2694  -11033071.73146  -8597177.56761
  16325930.8394   -1853507.86945  -1323406.85961
  16647260.0504  -25937287.76744 -20095039.93961
  14731529.706   -50522531.839 7 -39245718.10522
  12978885.675   -38771919.161 8 -29788035.26922
 93  4 26 23  3 59.9750000  0  5G24G12G26G 2G13
  15897400.6984  -11196211.61146  -8724299.37661
  16296697.558    -2007095.415 5  -1443085.36921
  16648530.886   -25930609.411 4 -20089836.14921
  14729251.566   -50534504.876 7 -39255047.77322
  12968035.1834  -38828941.53648 -29832468.27062
 93  4 26 23  4 29.9750000  0  5G24G12G26G 2G13
  15866384.745   -11359181.971 6  -8851289.10221
  16267496.8624   -2160538.57244  -1562651.39061
  16649833.9874  -25923758.02643 -20084497.51861
  14727016.847   -50546247.090 7 -39264197.57822
  12957283.909   -38885431.761 8 -29876486.60622
 93  4 26 23  4 59.9750000  0  5G24G12G26G 2G13
  15835405.0894  -11521985.38446  -8978148.72161
  16238327.3624   -2313831.53145  -1682100.36561
  16651174.5814  -25916728.31843 -20079019.93361
  14724828.542   -50557756.302 7 -39273165.83122
  12946637.2144  -38941388.23248 -29920089.03762
 93  4 26 23  5 29.9750000  0  5G24G12G26G 2G13
  15804456.2774  -11684614.22146  -9104872.31361
  16209189.355    -2466974.712 5  -1801432.62221
  16652548.4724  -25909520.70943 -20073403.74761
  14722680.542   -50569031.245 7 -39281951.53322
  12936088.964   -38996815.206 8 -29963278.87522
 93  4 26 23  5 59.9750000  0  5G24G12G26G 2G13
  15773543.4644  -11847062.52746  -9231455.23261
  16180076.1674   -2619965.62845  -1920646.25561
  16653948.136   -25902149.216 3 -20067659.90721
  14720581.581   -50580054.447 7 -39290541.06022
  12925641.9724  -39051714.08048 -30006057.20862
 93  4 26 23  6 29.9750000  0  5G24G12G26G 2G13
  15742668.003   -12009320.618 6  -9357889.95821
  16150993.9414   -2772801.86245  -2039739.32661
  16655382.2454  -25894612.69343 -20061787.41561
  14718537.245   -50590802.854 7 -39298916.48122
  12915296.6124  -39106086.38348 -30048425.22062
 93  4 26 23  6 59.9750000  0  5G24G12G26G 2G13
  15711831.1124  -12171375.91946  -9484166.64261
  16121935.972    -2925485.026 5  -2158713.15921
  16656847.3624  -25886912.75844 -20055787.63361
  14716544.347   -50601265.937 7 -39307069.56922
  12905047.6914  -39159937.79148 -30090387.35062
 93  4 26 23  7 29.9750000  0  5G24G12G26G 2G13
  15681032.6984  -12333223.56646  -9610281.52861
  16092911.456    -3078013.885 5  -2277566.73321
  16658341.7614  -25879060.32344 -20049669.02461
  14714610.902   -50611433.751 7 -39314992.58422
  12894897.6054  -39213271.34748 -30131945.94762
 93  4 26 23  7 59.9750000  0  5G24G12G26G 2G13
  15650272.9484  -12494864.71346  -9736235.54061
  16063913.2064   -3230385.90445  -2396298.10761
  16659865.605   -25871055.456 3 -20043431.61021
  14712730.987   -50621315.255 7 -39322692.49822
  12884847.9414  -39266088.54948 -30173102.19762
 93  4 26 23  8 29.9750000  0  5G24G12G26G 2G13
  15619550.5344  -12656297.58946  -9862027.24961
  16034950.714    -3382594.776 5  -2514902.35621
  16661420.3394  -25862874.61943 -20037057.06261
  14710900.995   -50630928.900 7 -39330183.69122
  12874896.2064  -39318387.26148 -30213854.42062
 93  4 26 23  8 59.9750000  0  5G24G12G26G 2G13
  15588873.6594  -12817522.32246  -9987656.74761
  16006016.3234   -3534637.20545  -2633376.89461
  16663010.4564  -25854514.82343 -20030543.10461
  14709122.941   -50640284.886 7 -39337474.11022
  12865042.4094  -39370168.50548 -30254203.43162
 93  4 26 23  9 29.9750000  0  5G24G12G26G 2G13
  15558233.722   -12978545.989 6 -10113129.57221
  15977115.417    -3686514.760 5  -2751722.95121
  16664643.6364  -25845966.59344 -20023882.28761
  14707387.456   -50649398.101 7 -39344575.34822
  12855286.5734  -39421437.59648 -30294153.36262
 93  4 26 23  9 59.9750000  0  5G24G12G26G 2G13
  15527624.737   -13139373.407 6 -10238449.49521
  15948246.3624   -3838223.65145  -2869937.58961
  16666299.9644  -25837235.24243 -20017078.81661
  14705697.1364  -50658278.43447 -39351495.14162
  12845626.8554  -39472195.54148 -30333705.00162
 93  4 26 23 10 29.9750000  0  5G24G12G26G 2G13
  15497059.0344  -13300003.77746 -10363615.88761
  15919407.7774   -3989762.67245  -2988019.88761
  16667988.777   -25828339.827 3 -20010147.47021
  14704053.5894  -50666917.10647 -39358226.60662
  12836064.933   -39522444.755 8 -30372860.21722
 93  4 26 23 10 59.9750000  0  5G24G12G26G 2G13
  15466536.456   -13460413.041 6 -10488609.95021
  15890605.870    -4141122.244 5  -3105962.32221
  16669711.519   -25819298.572 2 -20003102.53621
  14702459.323   -50675287.595 7 -39364749.11422
  12826601.9094  -39572179.73748 -30411614.73862
 93  4 26 23 11 29.9750000  0  5G24G12G26G 2G13
  15436054.7144  -13620586.22046 -10613420.06561
  15861838.6444   -4292294.22045  -3223758.59461
  16671458.1674  -25810120.58742 -19995951.00461
  14700921.214   -50683381.796 7 -39371056.32522
  12817234.9644  -39621396.61548 -30449965.54662
 93  4 26 23 11 59.9750000  0  5G24G12G26G 2G13
  15405622.5734  -13780502.84946 -10738030.29161
  15833112.722    -4443266.501 5  -3341399.25721
  16673230.980   -25800809.452 2
  14699435.355   -50691182.163 7 -39377134.56822
  12807968.7924  -39670087.96648 -30487906.84462
 93  4 26 23 12 29.9750000  0  5G24G12G26G 2G13
  15375238.636   -13940166.869 6 -10862443.69121
  15804419.4874   -4594050.74745  -3458893.39861
  16675030.456   -25791358.781 2
  14698006.894   -50698691.611 7 -39382986.11622
  12798799.4024  -39718269.52548 -30525450.90062
 93  4 26 23 12 59.9750000  0  5G24G12G26G 2G13
  15344903.167   -14099584.540 6 -10986665.09121
  15775757.941    -4744646.617 5  -3576240.75721
  16676859.5114  -25781750.31441
  14696632.433   -50705915.666 7 -39388615.29322
  12789728.5894  -39765945.24448 -30562600.79562
 93  4 26 23 13 29.9750000  0  4G24G12G 2G13
  15314611.183   -14258766.061 6 -11110702.47621
  15747140.941    -4895044.765 5  -3693434.02321
  14695311.058   -50712856.426 7 -39394023.70922
  12780754.0734  -39813109.97548 -30599352.52362
 93  4 26 23 13 59.9750000  0  4G24G12G 2G13
  15284360.7534  -14417729.45846 -11234569.92461
  15718554.339    -5045252.423 5  -3810478.88221
  14694041.253   -50719528.903 7 -39399223.06922
  12771872.7224  -39859775.73448 -30635715.44062
 93  4 26 23 14 29.9750000  0  4G24G12G 2G13
  15254153.7614  -14576482.26046 -11358273.27661
  15690008.7374   -5195271.43045  -3927376.73361
  14692823.3084  -50725940.46147 -39404219.12162
  12763087.8234  -39905948.09148 -30671693.89062
 93  4 26 23 14 59.9750000  0  4G24G12G 2G13
  15223985.292   -14735016.136 6 -11481806.05321
  15661494.7614   -5345096.09945  -4044123.15861
  14691649.777   -50732100.333 7 -39409019.06422
  12754393.6594  -39951626.17048 -30707287.18562
 93  4 26 23 15 29.9750000  0  4G24G12G 2G13
  15193861.0274  -14893318.20146 -11605158.17561
  15633023.4174   -5494723.83145  -4160716.14161
  14690525.902   -50738008.961 7 -39413623.23422
  12745796.1444  -39996812.10848 -30742496.99962
 93  4 26 23 15 59.9740000  0  4G24G12G 2G13
  15163782.092   -15051372.298 6 -11728317.08021
  15604588.076    -5644153.365 5  -4277154.64921
  14689447.0224  -50743671.47547 -39418035.60762
  12737288.5374  -40041512.24148 -30777328.25862
 93  4 26 23 16 29.9740000  0  4G24G12G 2G13
  15133753.3114  -15209175.65346 -11851280.59261
  15576190.3584   -5793387.34045  -4393440.77861
  14688419.467   -50749075.578 7 -39422246.64122
  12728876.2404  -40085726.66948 -30811781.04562
 93  4 26 23 16 59.9740000  0  4G24G12G 2G13
  15103772.0844  -15366728.28246 -11974048.75361
  15547828.0374   -5942426.43745  -4509575.06461
  14687443.733   -50754221.444 7 -39426256.45122
  12720552.709   -40129463.904 8 -30845861.99522
 93  4 26 23 17 29.9740000  0  4G24G12G 2G13
  15073839.0844  -15524028.08646 -12096619.91061
  15519507.1234   -6091257.89046  -4625547.55561
  14686513.506   -50759090.239 7 -39430050.36522
  12712322.7484  -40172715.53748 -30879564.55762
 93  4 26 23 17 59.9740000  0  4G24G12G 2G13
  15043953.162   -15681079.286 6 -12218997.35721
  15491227.9444   -6239878.96846  -4741356.12261
  14685638.373   -50763686.670 7 -39433632.04122
  12704182.9674  -40215483.85848 -30912890.51462
 93  4 26 23 18 29.9740000  0  4G24G12G 2G13
  15014114.7484  -15837886.97946 -12341185.05261
  15462981.6394   -6388283.96146  -4856996.30761
  14684817.654   -50768005.314 7 -39436997.27722
  12696138.1004  -40257767.31748 -30945838.65762
 93  4 26 23 18 59.9740000  0  4G24G12G 2G13
  14984318.1154  -15994455.88546 -12463186.67061
  15434786.3734   -6536472.25046  -4972467.64061
  14684047.6544  -50772053.16847 -39440151.50062
  12688183.1704  -40299570.01848 -30978412.18162
 93  4 26 23 19 29.9740000  0  4G24G12G 2G13
  14954573.0924  -16150781.92346 -12584999.04361
  15406626.240    -6684443.279 6  -5087769.65721
  14683323.467   -50775851.236 6 -39443111.10421
  12680317.3034  -40340896.17848 -31010614.37262
 93  4 26 23 19 59.9740000  0  4G24G12G 2G13
  14924874.3654  -16306853.13946 -12706612.84861
  15378513.9904   -6832191.80246  -5202898.31861
  14682648.404   -50779398.316 6 -39445875.11721
  12672545.9674  -40381745.13048 -31042444.71162
 93  4 26 23 20 29.9740000  0  4G24G12G 2G13
  14895225.194   -16462657.057 6 -12828018.37821
  15350440.8654   -6979708.27646  -5317846.14761
  14682025.4284  -50782671.09146 -39448425.40861
  12664864.4124  -40422111.62848 -31073899.11862
 93  4 26 23 20 59.9740000  0  4G24G12G 2G13
  14865626.7094  -16618189.44646 -12949212.32561
  15322411.3504   -7126993.69346  -5432613.93661
  14681452.9044  -50785677.69446 -39450768.27061
  12657272.7724  -40462001.47048 -31104982.09962
 93  4 26 23 21 29.9740000  0  4G24G12G 2G13
  14836083.678   -16773439.077 6 -13070185.95221
  15294431.5764   -7274040.31246  -5547195.64861
  14680934.8114  -50788407.09947 -39452895.13161
  12649773.0924  -40501411.54748 -31135691.23962
 93  4 26 23 21 59.9740000  0  4G24G12G 2G13
  14806590.920   -16928419.577 6 -13190949.86021
  15266494.0534   -7420852.33946  -5661594.56661
  14680472.1154  -50790847.35746 -39454796.69361
  12642363.5844  -40540350.68948 -31166033.41962
 93  4 26 23 22 29.9740000  0  4G24G12G 2G13
  14777153.0844  -17083121.27946 -13311496.51761
  15238603.7014   -7567418.05546  -5775801.56161
  14680064.0144  -50792993.57947 -39456469.13061
  12635044.5374  -40578811.82848 -31196003.11662
 93  4 26 23 22 59.9740000  0  4G24G12G 2G13
  14747767.7014  -17237546.66146 -13431827.86862
  15210759.0224   -7713741.01346  -5889819.37761
  14679706.1704  -50794875.29946 -39457935.46161
  12627815.4044  -40616803.36748 -31225606.90762
 93  4 26 23 23 29.9740000  0  4G24G12G 2G13
  14718437.115   -17391682.340 6 -13551933.45722
  15182962.7564   -7859819.02546  -6003646.33261
  14679395.178   -50796490.142 6 -39459193.83421
  12620673.9044  -40654327.62048 -31254846.57862
 93  4 26 23 23 59.9740000  0  4G24G12G 2G13
  14689161.8894  -17545508.73546 -13671798.05661
  15155211.6704   -8005640.32746  -6117273.25561
  14679140.748   -50797827.398 6 -39460235.88521
  12613625.0224  -40691377.99648 -31283716.99262
 93  4 26 23 24 29.9740000  0  4G24G12G 2G13
  14659950.0224  -17699021.38146 -13791418.20061
  15127506.8424   -8151216.27746  -6230709.00461
  14678937.4674  -50798898.77246 -39461070.77861
  12606660.0064  -40727970.59048 -31312230.68262
 93  4 26 23 24 59.9740000  0  4G24G12G 2G13
  14630804.069   -17852195.620 6 -13910774.65921
  15099855.4984   -8296530.91846  -6343941.13461
  14678789.975   -50799684.551 6 -39461683.13321
  12599787.2954  -40764093.81748 -31340378.64662
 93  4 26 23 25 29.9740000  0  4G24G12G 2G13
  14601721.4444  -18005030.74947 -14029866.84562
  15072255.3654   -8441583.31846  -6456968.92461
  14678696.639   -50800164.317 6 -39462057.01821
  12593001.803   -40799751.360 8 -31368163.72822
 93  4 26 23 25 59.9740000  0  4G24G12G 2G13
  14572701.069   -18157530.384 7 -14148697.63022
  15044700.3654   -8586363.49546  -6569784.57961
  14678666.0764  -50800330.42846
  12586306.3114  -40834938.37148 -31395582.17262
 93  4 26 23 26 29.9740000  0  4G24G12G 2G13
  14543741.4284  -18309700.20446 -14267271.41062
  15017202.4444   -8730872.77246  -6682389.15761
  14678690.0844  -50800197.85346
  12579698.1234  -40869660.76348 -31422638.56362
 93  4 26 23 26 59.9740000  0  4G24G12G 2G13
  14514845.6314  -18461553.36346 -14385598.43661
  14989757.9204   -8875106.94146  -6794779.35061
  14678767.8194  -50799784.36946
  12573179.3424  -40903919.14148 -31449333.39162
 93  4 26 23 27 29.9740000  0  4G24G12G 2G13
  14486005.756   -18613107.505 6 -14503692.47421
  14962363.108    -9019066.957 6  -6906955.94221
  14678901.0294  -50799097.78046 -39461226.19761
  12566746.9674  -40937719.28648 -31475671.16462
 93  4 26 23 27 59.9740000  0  4G24G12G 2G13
  14457221.326   -18764362.466 6 -14621553.38721
  14935019.311    -9162748.718 6  -7018915.71421
  14679086.0764  -50798134.28146 -39460475.47961
  12560401.3034  -40971062.10348 -31501652.57262
 93  4 26 23 28 29.9740000  0  4G24G12G 2G13
  14428497.975   -18915315.390 6 -14739178.95121
  14907735.0064   -9306141.24846  -7130650.10061
  14679321.373   -50796887.040 6 -39459503.68221
  12554145.154   -41003941.217 8 -31527272.64922
 93  4 26 23 28 59.9730000  0  4G24G12G 2G13
  14399830.017   -19065964.611 7 -14856567.86021
  14880506.1964   -9449241.71646  -7242156.90361
  14679613.118   -50795349.116 6 -39458305.37921
  12547975.5014  -41036363.05848 -31552536.42262
 93  4 26 23 29 29.9730000  0  4G24G12G 2G13
  14371222.056   -19216300.376 7 -14973712.51722
  14853326.8064   -9592058.32546  -7353442.51661
  14679964.8454  -50793503.57146 -39456867.35461
  12541891.7674  -41068333.08248 -31577448.12962
 93  4 26 23 29 59.9730000  0  4G24G12G 2G13
  14342676.111   -19366311.336 7 -15090604.08122
  14826204.2514   -9734585.03046  -7464502.24261
  14680375.6424  -50791352.45646 -39455191.23661
  12535892.6814  -41099853.57948 -31602009.55362
 93  4 26 23 30 29.9730000  0  4G24G12G 2G13
  14314191.314   -19515992.399 6 -15207238.57921
  14799134.3294   -9876823.34846  -7575337.24161
  14680838.571   -50788920.592 6 -39453296.35221
  12529979.9154  -41130930.92948 -31626225.66562
 93  4 26 23 30 59.9730000  0  4G24G12G 2G13
  14285777.361   -19665319.227 6 -15323597.06521
  14772124.720   -10018765.038 6  -7685941.11921
  14681355.0254  -50786201.50746 -39451177.64861
  12524151.6184  -41161561.44448 -31650093.59562
 93  4 26 23 31 29.9730000  0  4G24G12G 2G13
  14257423.064   -19814308.127 7 -15439692.21821
  14745171.173   -10160415.045 6  -7796317.69121
  14681925.251   -50783203.639 6 -39448841.73921
  12518405.8144  -41191755.16048 -31673621.16162
 93  4 26 23 31 59.9730000  0  4G24G12G 2G13
  14229136.2514  -19962962.09047 -15555526.40562
  14718273.978   -10301767.875 6  -7906462.70621
  14682548.5174  -50779932.78846 -39446293.08861
  12512742.3764  -41221511.75248 -31696808.11562
 93  4 26 23 32 29.9730000  0  4G24G12G 2G13
  14200915.400   -20111269.762 7 -15671090.73222
  14691432.2754  -10442819.50847  -8016373.00161
  14683221.8144  -50776384.96546 -39443528.62261
  12507162.5094  -41250832.02548 -31719655.07462
 93  4 26 23 32 59.9730000  0  4G24G12G 2G13
  14172757.001   -20259239.389 6 -15786391.64822
  14664648.0094  -10583563.88546  -8126043.88261
  14683955.8534  -50772547.11346 -39440538.14761
  12501666.5874  -41279715.19748 -31742161.43462
 93  4 26 23 33 29.9730000  0  4G24G12G 2G13
  14144661.837   -20406868.822 6 -15901427.48822
  14637924.5954  -10723991.36946  -8235467.83461
  14684740.2204  -50768421.56846 -39437323.50461
  12496254.9074  -41308156.68648 -31764323.64062
 93  4 26 23 33 59.9730000  0  4G24G12G 2G13
  14116639.142   -20554128.263 7 -16016175.02822
  14611263.9704  -10864092.49946  -8344637.48861
  14685579.0714  -50764012.72346 -39433888.11161
  12490927.6424  -41336151.75248 -31786137.96362
 93  4 26 23 34 29.9730000  0  4G24G12G 2G13
  14088688.837   -20701021.301 7 -16130637.04622
  14584666.8214  -11003870.80546  -8453555.58361
  14686470.9234  -50759325.53446 -39430235.82361
  12485682.8214  -41363708.67148 -31807610.87762
 93  4 26 23 34 59.9730000  0  4G24G12G 2G13
  14060803.720   -20847542.103 7 -16244809.01222
  14558129.9314  -11143323.78946  -8562220.18461
  14687416.5254  -50754355.83746 -39426363.39261
  12480523.0644  -41390830.11248 -31828744.47062
 93  4 26 23 35 29.9730000  0  4G24G12G 2G13
  14032997.306   -20993684.619 7 -16358686.21622
  14531653.0644  -11282458.01246  -8670636.39261
  14688414.275   -50749107.562 6 -39422273.86621
  12475441.7754  -41417527.67648 -31849547.75462
 93  4 26 23 35 59.9730000  0  4G24G12G 2G13
  14005255.0564  -21139453.99147 -16472272.66162
  14505238.0484  -11421278.20546  -8778807.91861
  14689466.7594  -50743571.31846 -39417959.97461
  12470440.0484  -41443811.07248 -31870028.32862
 93  4 26 23 36 29.9730000  0  4G24G12G 2G13
  13977584.7514  -21284863.35347 -16585578.58862
  14478879.7124  -11559774.06146  -8886726.70561
  14690580.7824  -50737726.42046 -39413405.58061
  12465518.0874  -41469675.07348 -31890182.08662
 93  4 26 23 36 59.9730000  0  4G24G12G 2G13
  13949978.571   -21429927.346 7 -16698615.37322
  14452589.165   -11697945.832 6  -8994392.96221
  14691749.8294  -50731581.16546 -39408617.13861
  12460677.0254  -41495124.73448 -31910012.98662
 93  4 26 23 37 29.9730000  0  4G24G12G 2G13
  13922440.9234  -21574660.37447 -16811394.28262
  14426354.954   -11835797.062 6  -9101809.45221
  14692976.0794  -50725154.65446 -39403609.52761
  12455910.2824  -41520169.29448 -31929528.22362
 93  4 26 23 37 59.9730000  0  4G24G12G 2G13
  13894962.454   -21719055.655 7 -16923909.99022
  14400185.9544  -11973318.28346  -9208968.78461
  14694246.0254  -50718450.35146 -39398385.47561
  12451222.5644  -41544803.56748 -31948723.75162
 93  4 26 23 38 29.9730000  0  4G24G12G 2G13
  13867547.626   -21863111.222 7 -17036161.00222
  14374080.861   -12110506.747 6  -9315868.83522
  14695576.1574  -50711482.67246 -39392956.19261
  12446613.0324  -41569030.23848 -31967601.66962
 93  4 26 23 38 59.9730000  0  4G24G12G 2G13
  13840208.790   -22006787.323 7 -17148116.31422
  14348039.173   -12247347.341 6  -9422497.83222
  14696953.0254  -50704251.41646 -39387321.50861
  12442082.9004  -41592838.95848 -31986153.91662
 93  4 26 23 39 29.9730000  0  4G24G12G 2G13
  13812941.0484  -22150068.43747 -17259763.87762
  14322065.6034  -12383849.61446  -9528863.18662
  14698375.611   -50696763.147 6 -39381486.54321
  12437627.3454  -41616244.24748 -32004391.79962
 93  4 26 23 39 59.9730000  0  4G24G12G 2G13
  13785753.861   -22292956.524 7 -17371105.16122
  14296151.5014  -12520015.30846  -9634966.26962
  14699849.5094  -50689008.50446 -39375444.03561
  12433249.7044  -41639252.90148 -32022320.61062
 93  4 26 23 40 29.9730000  0  4G24G12G 2G13
  13758638.204   -22435436.013 7 -17482128.05522
  14270308.431   -12655834.017 6  -9740798.98822
  14701383.095   -50680966.934 6 -39369177.92721
  12428948.7594  -41661859.62248 -32039936.23862
 93  4 26 23 40 59.9730000  0  4G24G12G 2G13
  13731603.579   -22577498.632 7 -17592826.11523
  14244531.5564  -12791302.32947  -9846358.66061
  14702968.5564  -50672627.58146 -39362679.80661
  12424722.4154  -41684066.07748 -32057239.96162
 93  4 26 23 41 29.9730000  0  4G24G12G 2G13
  13704647.111   -22719163.032 7 -17703213.87422
  14218817.337   -12926419.997 7  -9951645.10122
  14704616.4864  -50663977.73346 -39355939.71761
  12420569.3534  -41705877.21748 -32074235.64562
 93  4 26 23 41 59.9730000  0  4G24G12G 2G13
  13677764.095   -22860434.371 7 -17813295.36522
  14193171.775   -13061178.344 6 -10056651.56921
  14706323.876   -50655003.348 6 -39348946.76821
  12416496.8144  -41727290.01148 -32090920.93762
 93  4 26 23 42 29.9720000  0  4G24G12G 2G13
  13650956.504   -23001303.978 7 -17923063.79422
  14167598.2934  -13195579.12847 -10161379.40661
  14708088.778   -50645721.827 6 -39341714.47321
  12412496.2934  -41748314.32048 -32107303.51662
 93  4 26 23 42 59.9720000  0  4G24G12G 2G13
  13624221.9104  -23141798.26147 -18032539.79362
  14142089.215   -13329636.501 7 -10265839.65321
  14709913.621   -50636143.152 6 -39334250.63221
  12408566.4034  -41768961.88048 -32123392.52662
 93  4 26 23 43 29.9720000  0  4G24G12G 2G13
  13597555.668   -23281924.070 7 -18141728.64822
  14116645.387   -13463351.876 7 -10370033.41521
  14711787.942   -50626283.087 6 -39326567.54421
  12404706.0904  -41789243.00848 -32139196.00262
